[[{"header":{"parameterUnit":"m.s-1","parameterCategory":1,"la1":31.0,"la2":29.5877,"lo1":-88.7671,"lo2":-86.6584,"dy":0.0162,"dx":0.0185,"nx":115,"ny":88,"refTime":"2023-07-22T18:00:00:Z","depth":0,"parameterNumber":2,"parameterNumberName":"U-component_of_WINDS"},"data":[0.0,0.0,0.0,0.0,0.0,0.0,0.0,0.0,0.0,0.0,0.0,0.0,0.0,0.0,0.0,0.0,0.0,0.0,0.0,0.0,0.0,0.0,0.0,0.0,0.0,0.0,0.0,0.0,0.0,0.0,0.0,0.0,0.0,0.0,0.0,0.0,0.0,0.0,0.0,0.0,0.0,0.0,0.0,0.0,0.0,0.0,0.0,0.0,0.0,0.0,0.0,0.0,0.0,0.0,0.0,0.0,0.0,0.0,0.0,0.0,0.0,0.0,0.0,0.0,0.0,0.0,0.0,0.0,0.0,0.0,0.0,0.0,0.0,0.0,0.0,0.0,0.0,0.0,0.0,0.0,0.0,0.0,0.0,0.0,0.0,0.0,0.0,0.0,0.0,0.0,0.0,0.0,0.0,0.0,0.0,0.0,0.0,0.0,0.0,0.0,0.0,0.0,0.0,0.0,0.0,0.0,0.0,0.0,0.0,0.0,0.0,0.0,0.0,0.0,0.0,0.0,0.0,0.0,0.0,0.0,0.0,0.0,0.0,0.0,0.0,0.0,0.0,0.0,0.0,0.0,0.0,0.0,0.0,0.0,0.0,0.0,0.0,0.0,0.0,0.0,0.0,0.0,0.0,0.0,0.0,0.0,0.0,0.0,0.0,0.0,0.0,0.0,0.0,0.0,0.0,0.0,0.0,0.0,0.0,0.0,0.0,0.0,0.0,0.0,0.0,0.0,0.0,0.0,0.0,0.0,0.0,0.0,0.0,0.0,0.0,0.0,0.0,0.0,0.0,0.0,0.0,0.0,0.0,0.0,0.0,0.0,0.0,0.0,0.0,0.0,0.0,0.0,0.0,0.0,0.0,0.0,0.0,0.0,0.0,0.0,0.0,0.0,0.0,0.0,0.0,0.0,0.0,0.0,0.0,0.0,0.0,0.0,0.0,0.0,0.0,0.0,0.0,0.0,0.0,0.0,0.0,0.0,0.0,0.0,0.0,0.0,0.0,0.0,0.0,0.0,0.0,0.0,0.0,0.0,0.0,0.0,0.0,0.0,0.0,0.0,0.0,0.0,0.0,0.0,0.0,0.0,0.0,0.0,0.0,0.0,0.0,0.0,0.0,0.0,0.0,0.0,0.0,0.0,0.0,0.0,0.0,0.0,0.0,0.0,0.0,0.0,0.0,0.0,0.0,0.0,0.0,0.0,0.0,0.0,0.0,0.0,0.0,0.0,0.0,0.0,0.0,0.0,0.0,0.0,0.0,0.0,0.0,0.0,0.0,0.0,0.0,0.0,0.0,0.0,0.0,0.0,0.0,0.0,0.0,0.0,0.0,0.0,0.0,0.0,0.0,0.0,0.0,0.0,0.0,0.0,0.0,0.0,0.0,0.0,0.0,0.0,0.0,0.0,0.0,0.0,0.0,0.0,0.0,0.0,0.0,0.0,0.0,0.0,0.0,0.0,0.0,0.0,0.0,0.0,0.0,0.0,0.0,0.0,0.0,0.0,0.0,0.0,0.0,0.0,0.0,0.0,0.0,0.0,0.0,0.0,0.0,0.0,0.0,0.0,0.0,0.0,0.0,0.0,0.0,0.0,0.0,0.0,0.0,0.0,0.0,0.0,0.0,0.0,0.0,0.0,0.0,0.0,0.0,0.0,0.0,0.0,0.0,0.0,0.0,0.0,0.0,0.0,0.0,0.0,0.0,0.0,0.0,0.0,0.0,0.0,0.0,0.0,0.0,0.0,0.0,0.0,0.0,0.0,0.0,0.0,0.0,0.0,0.0,0.0,0.0,0.0,0.0,0.0,0.0,0.0,0.0,0.0,0.0,0.0,0.0,0.0,0.0,0.0,0.0,0.0,0.0,0.0,0.0,0.0,0.0,0.0,0.0,0.0,0.0,0.0,0.0,0.0,0.0,0.0,0.0,0.0,0.0,0.0,0.0,0.0,0.0,0.0,0.0,0.0,0.0,0.0,0.0,0.0,0.0,0.0,0.0,0.0,0.0,0.0,0.0,0.0,0.0,0.0,0.0,0.0,0.0,0.0,0.0,0.0,0.0,0.0,0.0,0.0,0.0,0.0,0.0,0.0,0.0,0.0,0.0,0.0,0.0,0.0,0.0,0.0,0.0,0.0,0.0,0.0,0.0,0.0,0.0,0.0,0.0,0.0,0.0,0.0,0.0,0.0,0.0,0.0,0.0,0.0,0.0,0.0,0.0,0.0,0.0,0.0,0.0,0.0,0.0,0.0,0.0,0.0,0.0,0.0,0.0,0.0,0.0,0.0,0.0,0.0,0.0,0.0,0.0,0.0,0.0,0.0,0.0,0.0,0.0,0.0,0.0,0.0,0.0,0.0,0.0,0.0,0.0,0.0,0.0,0.0,0.0,0.0,0.0,0.0,0.0,0.0,0.0,0.0,0.0,0.0,0.0,0.0,0.0,0.0,0.0,0.0,0.0,0.0,0.0,0.0,0.0,0.0,0.0,0.0,0.0,0.0,0.0,0.0,0.0,0.0,0.0,0.0,0.0,0.0,0.0,0.0,0.0,0.0,0.0,0.0,0.0,0.0,0.0,0.0,0.0,0.0,0.0,0.0,0.0,0.0,0.0,0.0,0.0,0.0,0.0,0.0,0.0,0.0,0.0,0.0,0.0,0.0,0.0,0.0,0.0,0.0,0.0,0.0,0.0,0.0,0.0,0.0,0.0,0.0,0.0,0.0,0.0,0.0,0.0,0.0,0.0,0.0,0.0,0.0,0.0,0.0,0.0,0.0,0.0,0.0,0.0,0.0,0.0,0.0,0.0,0.0,0.0,0.0,0.0,0.0,0.0,0.0,0.0,0.0,0.0,0.0,0.0,0.0,0.0,0.0,0.0,0.0,0.0,0.0,0.0,0.0,0.0,0.0,0.0,0.0,0.0,0.0,0.0,0.0,0.0,0.0,0.0,0.0,0.0,0.0,0.0,0.0,0.0,0.0,0.0,0.0,0.0,0.0,0.0,0.0,0.0,0.0,0.0,0.0,0.0,0.0,0.0,0.0,0.0,0.0,0.0,0.0,0.0,0.0,0.0,0.0,0.0,0.0,0.0,0.0,0.0,0.0,0.0,0.0,0.0,0.0,0.0,0.0,0.0,0.0,0.0,0.0,0.0,0.0,0.0,0.0,0.0,0.0,0.0,0.0,0.0,0.0,0.0,0.0,0.0,0.0,0.0,0.0,0.0,0.0,0.0,0.0,0.0,0.0,0.0,0.0,0.0,0.0,0.0,0.0,0.0,0.0,0.0,0.0,0.0,0.0,0.0,0.0,0.0,0.0,0.0,0.0,0.0,0.0,0.0,0.0,0.0,0.0,0.0,0.0,0.0,0.0,0.0,0.0,0.0,0.0,0.0,0.0,0.0,0.0,0.0,0.0,0.0,0.0,0.0,0.0,0.0,0.0,0.0,0.0,0.0,0.0,0.0,0.0,0.0,0.0,0.0,0.0,0.0,0.0,0.0,0.0,0.0,0.0,0.0,0.0,0.0,0.0,0.0,0.0,0.0,0.0,0.0,0.0,0.0,0.0,0.0,0.0,0.0,0.0,0.0,0.0,0.0,0.0,0.0,0.0,0.0,0.0,0.0,0.0,0.0,0.0,0.0,0.0,0.0,0.0,0.0,0.0,0.0,0.0,0.0,0.0,0.0,0.0,0.0,0.0,0.0,0.0,0.0,0.0,0.0,0.0,0.0,0.0,0.0,0.0,0.0,0.0,0.0,0.0,0.0,0.0,0.0,0.0,0.0,0.0,0.0,0.0,0.0,0.0,0.0,0.0,0.0,0.0,0.0,0.0,0.0,0.0,0.0,0.0,0.0,0.0,0.0,0.0,0.0,0.0,0.0,0.0,0.0,0.0,0.0,0.0,0.0,0.0,0.0,0.0,0.0,0.0,0.0,0.0,0.0,0.0,0.0,0.0,0.0,0.0,0.0,0.0,0.0,0.0,0.0,0.0,0.0,0.0,0.0,0.0,0.0,0.0,0.0,0.0,0.0,0.0,0.0,0.0,0.0,0.0,0.0,0.0,0.0,0.0,0.0,0.0,0.0,0.0,0.0,0.0,0.0,0.0,0.0,0.0,0.0,0.0,0.0,0.0,0.0,0.0,0.0,0.0,0.0,0.0,0.0,0.0,0.0,0.0,0.0,0.0,0.0,0.0,0.0,0.0,0.0,0.0,0.0,0.0,0.0,0.0,0.0,0.0,0.0,0.0,0.0,0.0,0.0,0.0,0.0,0.0,0.0,0.0,0.537,0.0,0.0,0.0,0.0,0.0,0.0,0.0,0.0,0.0,0.0,0.0,0.0,0.0,0.0,0.0,0.0,0.0,0.0,0.0,0.0,0.0,0.0,0.0,0.0,0.0,0.0,0.0,0.0,0.0,0.0,0.0,0.0,0.0,0.0,0.0,0.0,0.0,0.0,0.0,0.0,0.0,0.0,0.0,0.0,0.0,0.0,0.0,0.0,0.0,0.0,0.0,0.0,0.0,0.0,0.0,0.0,0.0,0.0,0.0,0.0,0.0,0.0,0.0,0.0,0.0,0.0,0.0,0.0,0.0,0.0,0.0,0.0,0.0,0.0,0.0,0.0,0.0,0.0,0.0,0.0,0.0,0.0,0.0,0.0,0.0,0.0,0.0,0.0,0.0,0.0,0.0,0.0,0.0,0.0,0.0,0.0,0.0,0.0,0.0,0.0,0.0,0.0,0.0,0.0,0.0,0.0,0.0,0.0,0.0,0.0,0.4474,0.4379,0.5232,0.5914,0.6353,0.0,0.0,0.0,0.0,0.0,0.0,0.0,0.0,0.0,0.0,0.0,0.0,0.0,0.0,0.0,0.0,0.0,0.0,0.0,0.0,0.0,0.0,0.0,0.0,0.0,0.0,0.0,0.0,0.0,0.0,0.0,0.0,0.0,0.0,0.0,0.0,0.0,0.0,0.0,0.0,0.0,0.0,0.0,0.0,0.0,0.0,0.0,0.0,0.0,0.0,0.0,0.0,0.0,0.0,0.0,0.0,0.0,0.0,0.0,0.0,0.0,0.0,0.0,0.0,0.0,0.0,0.0,0.0,0.0,0.0,0.0,0.0,0.0,0.0,0.0,0.0,0.0,0.0,0.0,0.0,0.0,0.0,0.0,0.0,0.0,0.0,0.0,0.0,0.0,0.0,0.0,0.0,0.0,0.0,0.0,0.0,0.0,0.0,0.0,0.0,0.0,0.0,0.0,0.0,0.0,0.0,0.0,0.0,0.0,0.0,0.0,0.0,0.5602,0.6337,0.6996,0.0,0.0,0.0,0.0,0.0,0.0,0.0,0.0,0.0,0.0,0.0,0.0,0.0,0.0,0.0,0.0,0.0,0.0,0.0,0.0,0.0,0.0,0.0,0.0,0.0,0.0,0.0,0.0,0.0,0.0,0.0,0.0,0.0,0.0,0.0,0.0,0.0,0.0,0.0,0.0,0.0,0.0,0.0,0.0,0.0,0.0,0.0,0.0,0.0,0.0,0.0,0.0,0.0,0.0,0.0,0.0,0.0,0.0,0.0,0.0,0.0,0.0,0.0,0.0,0.0,0.0,0.0,0.0,0.0,0.0,0.0,0.0,0.0,0.0,0.0,0.0,0.0,0.0,0.0,0.0,0.0,0.0,0.0,0.0,0.0,0.0,0.0,0.0,0.0,0.0,0.0,0.0,0.0,0.0,0.0,0.0,0.0,0.0,0.0,0.0,0.0,0.0,0.0,0.0,0.0,0.0,0.0,0.0,0.0,0.0,0.5724,0.5595,0.6623,0.0,0.7055,0.0,0.0,0.0,0.0,0.0,0.0,0.0,0.0,0.0,0.0,0.0,0.0,0.0,0.0,0.0,0.0,0.0,0.0,0.0,0.0,0.0,0.0,0.0,0.0,0.0,0.0,0.0,0.0,0.0,0.0,0.0,0.0,0.0,0.0,0.0,0.0,0.0,0.0,0.0,0.0,0.0,0.0,0.0,0.0,0.0,0.0,0.0,0.0,0.0,0.0,0.0,0.0,0.0,0.0,0.0,0.0,0.0,0.0,0.0,0.0,0.0,0.0,0.0,0.0,0.0,0.0,0.0,0.0,0.0,0.0,0.0,0.0,0.0,0.0,0.0,0.0,0.0,0.0,0.0,0.0,0.0,0.0,0.0,0.0,0.0,0.0,0.0,0.0,0.0,0.0,0.0,0.0,0.0,0.0,0.0,0.0,0.0,0.0,0.0,0.0,0.0,0.0,0.0,0.0,0.0,0.0,0.0,0.0,0.0,0.0,0.6427,0.5838,0.7201,0.7772,0.0,0.0,0.0,0.0,0.0,0.0,0.0,0.0,0.0,0.0,0.0,0.0,0.0,0.0,0.0,0.0,0.0,0.0,0.0,0.0,0.0,0.0,0.0,0.0,0.0,0.0,0.0,0.0,0.0,0.0,0.0,0.0,0.0,0.0,0.0,0.0,0.0,0.0,0.0,0.0,0.0,0.0,0.0,0.0,0.0,0.0,0.0,0.0,0.0,0.0,0.0,0.0,0.0,0.0,0.0,0.0,0.0,0.0,0.0,0.0,0.0,0.0,0.0,0.0,0.0,0.0,0.0,0.0,0.0,0.0,0.0,0.0,0.0,0.0,0.0,0.0,0.0,0.0,0.0,0.0,0.0,0.0,0.0,0.0,0.0,0.0,0.0,0.0,0.0,0.0,0.0,0.0,0.0,0.0,0.0,0.0,0.0,0.0,0.0,0.0,0.0,0.0,0.0,0.0,0.0,0.0,0.0,0.0,0.0,0.0,0.58,0.6623,0.6195,0.7395,0.7878,0.7375,0.0,0.0,0.0,0.0,0.0,0.0,0.0,0.0,0.0,0.0,0.0,0.0,0.0,0.0,0.0,0.0,0.0,0.0,0.0,0.0,0.0,0.0,0.0,0.0,0.0,0.0,0.0,0.0,0.0,0.0,0.0,0.0,0.0,0.0,0.0,0.0,0.0,0.0,0.0,0.0,0.0,0.0,0.0,0.0,0.0,0.0,0.0,0.0,0.0,0.0,0.0,0.0,0.0,0.0,0.0,0.0,0.0,0.0,0.0,0.0,0.0,0.0,0.0,0.0,0.0,0.0,0.0,0.0,0.0,0.0,0.0,0.0,0.0,0.0,0.0,0.0,0.0,0.0,0.0,0.0,0.0,0.0,0.0,0.0,0.0,0.0,0.0,0.0,0.0,0.0,0.0,0.0,0.0,0.0,0.0,0.0,0.0,0.0,0.0,0.0,0.0,0.0,0.0,0.0,0.0,0.0,0.0,0.0,0.494,0.5571,0.6082,0.6545,0.7071,0.71,0.0,0.0,0.0,0.0,0.0,0.0,0.0,0.0,0.0,0.0,0.0,0.0,0.0,0.0,0.0,0.0,0.0,0.0,0.0,0.0,0.0,0.0,0.0,0.0,0.0,0.0,0.0,0.0,0.0,0.0,0.0,0.0,0.0,0.0,0.0,0.0,0.0,0.0,0.0,0.0,0.0,0.0,0.0,0.0,0.0,0.0,0.0,0.0,0.0,0.0,0.0,0.0,0.0,0.0,0.0,0.0,0.0,0.0,0.0,0.0,0.0,0.0,0.0,0.0,0.0,0.0,0.0,0.0,0.0,0.0,0.0,0.0,0.0,0.0,0.0,0.0,0.0,0.0,0.0,0.0,0.0,0.0,0.0,0.0,0.0,0.0,0.0,0.0,0.0,0.0,0.0,0.0,0.0,0.0,0.0,0.0,0.0,0.0,0.0,0.0,0.0,0.0,0.0,0.0,0.0,0.0,0.0,0.0,0.0,0.5891,0.6277,0.6559,0.6665,0.7198,0.7089,0.0,0.0,0.0,0.0,0.0,0.0,0.0,0.0,0.0,0.0,0.0,0.0,0.0,0.0,0.0,0.0,0.0,0.0,0.0,0.0,0.0,0.0,0.0,0.0,0.0,0.0,0.0,0.0,0.0,0.0,0.0,0.0,0.0,0.0,0.0,0.0,0.0,0.0,0.0,0.0,0.0,0.0,0.0,0.0,0.0,0.0,0.0,0.0,0.0,0.0,0.0,0.0,0.0,0.0,0.0,0.0,0.0,0.0,0.0,0.0,0.0,0.0,0.0,0.0,0.0,0.0,0.0,0.0,0.0,0.0,0.0,0.0,0.0,0.0,0.0,0.0,0.0,0.0,0.0,0.0,0.0,0.0,0.0,0.0,0.0,0.0,0.0,0.0,0.0,0.0,0.0,0.0,0.0,0.0,0.0,0.0,0.0,0.0,0.0,0.0,0.0,0.0,0.0,0.0,0.0,0.0,0.0,0.0,0.0,0.5718,0.0,0.5569,0.5787,0.6526,0.6651,0.0,0.0,0.0,0.0,0.0,0.0,0.0,0.0,0.0,0.0,0.0,0.0,0.0,0.0,0.0,0.0,0.0,0.0,0.0,0.0,0.0,0.0,0.0,0.0,0.0,0.0,0.0,0.0,0.0,0.0,0.0,0.0,0.0,0.0,0.0,0.0,0.0,0.0,0.0,0.0,0.0,0.0,0.0,0.0,0.0,0.0,0.0,0.0,0.0,0.0,0.0,0.0,0.0,0.0,0.0,0.0,0.0,0.0,0.0,0.0,0.0,0.0,0.0,0.0,0.0,0.0,0.0,0.0,0.0,0.0,0.0,0.0,0.0,0.0,0.0,0.0,0.0,0.0,0.0,0.0,0.0,0.0,0.0,0.0,0.0,0.0,0.0,0.0,0.0,0.0,0.0,0.0,0.0,0.0,0.0,0.0,0.0,0.0,0.0,0.0,0.0,0.0,0.0,0.0,0.0,0.0,0.0,0.0,0.6825,0.4459,0.321,0.3088,0.3835,0.4958,0.5674,0.0,0.0,0.0,0.0,0.0,0.0,0.0,0.0,0.0,0.0,0.0,0.0,0.0,0.0,0.0,0.0,0.0,0.0,0.0,0.0,0.0,0.0,0.0,0.0,0.0,0.0,0.0,0.0,0.0,0.0,0.0,0.0,0.0,0.0,0.0,0.0,0.0,0.0,0.0,0.0,0.0,0.0,0.0,0.0,0.0,0.0,0.0,0.0,0.0,0.0,0.0,0.0,0.0,0.0,0.0,0.0,0.0,0.0,0.0,0.0,0.0,0.0,0.0,0.0,0.0,0.0,0.0,0.0,0.0,0.0,0.0,0.0,0.0,0.0,0.0,0.0,0.0,0.0,0.0,0.0,0.0,0.0,0.0,0.0,0.0,0.0,0.0,0.0,0.0,0.0,0.0,0.0,0.0,0.0,0.0,0.0,0.0,0.0,0.0,0.0,0.0,0.0,0.0,0.0,0.0,0.0,0.0,0.0,0.0,0.5759,0.3594,0.2883,0.384,0.4529,0.4899,0.0,0.0,0.0,0.0,0.0,0.0,0.0,0.0,0.0,0.0,0.0,0.0,0.0,0.0,0.0,0.0,0.0,0.0,0.0,0.0,0.0,0.0,0.0,0.0,0.0,0.0,0.0,0.0,0.0,0.0,0.0,0.0,0.0,0.0,0.0,0.0,0.0,0.0,0.0,0.0,0.0,0.0,0.0,0.0,0.0,0.0,0.0,0.0,0.0,0.0,0.0,0.0,0.0,0.0,0.0,0.0,0.0,0.0,0.0,0.0,0.0,0.0,0.0,0.0,0.0,0.0,0.0,0.0,0.0,0.0,0.0,0.0,0.0,0.0,0.0,0.0,0.0,0.0,0.0,0.0,0.0,0.0,0.0,0.0,0.0,0.0,0.0,0.0,0.0,0.0,0.0,0.0,0.0,0.0,0.0,0.0,0.0,0.0,0.0,0.0,0.0,0.0,0.0,0.0,0.0,0.0,0.0,0.0,0.0,0.3502,0.1583,0.0943,0.1831,0.338,0.4178,0.4127,0.0,0.0,0.0,0.0,0.0,0.0,0.0,0.0,0.0,0.0,0.0,0.0,0.0,0.0,0.0,0.0,0.0,0.0,0.0,0.0,0.0,0.0,0.0,0.0,0.0,0.0,0.0,0.0,0.0,0.0,0.0,0.0,0.0,0.0,0.0,0.0,0.0,0.0,0.0,0.0,0.0,0.0,0.0,0.0,0.0,0.0,0.0,0.0,0.0,0.0,0.0,0.0,0.0,0.0,0.0,0.0,0.0,0.0,0.0,0.0,0.0,0.0,0.0,0.0,0.0,0.0,0.0,0.0,0.0,0.0,0.0,0.0,0.0,0.0,0.0,0.0,0.0,0.0,0.0,0.0,0.0,0.0,0.0,0.0,0.0,0.0,0.0,0.0,0.0,0.0,0.0,0.0,0.0,0.0,0.0,0.0,0.0,0.0,0.0,0.0,0.0,0.0,0.0,0.0,0.0,0.0,0.0,0.0,-0.1412,-0.2399,-0.2413,-0.1454,0.1724,0.3509,0.0,0.0,0.0,0.0,0.0,0.0,0.0,0.0,0.0,0.0,0.0,0.0,0.0,0.0,0.0,0.0,0.0,0.0,0.0,0.0,0.0,0.0,0.0,0.0,0.0,0.0,0.0,0.0,0.0,0.0,0.0,0.0,0.0,0.0,0.0,0.0,0.0,0.0,0.0,0.0,0.0,0.0,0.0,0.0,0.0,0.0,0.0,0.0,0.0,0.0,0.0,0.0,0.0,0.0,0.0,0.0,0.0,0.0,0.0,0.0,0.0,0.0,0.0,0.0,0.0,0.0,0.0,0.0,0.0,0.0,0.0,0.0,0.0,0.0,0.0,0.0,0.0,0.0,0.0,0.0,0.0,0.0,0.0,0.0,0.0,0.0,0.0,0.0,0.0,0.0,0.0,0.0,0.0,0.0,0.0,0.0,0.0,0.0,0.0,0.0,0.0,0.0,0.0,0.0,0.0,0.0,0.0,0.0,0.0,-0.3171,-0.4508,-0.3833,-0.1175,0.0806,0.2273,0.0,0.0,0.0,0.0,0.0,0.0,0.0,0.0,0.0,0.0,0.0,0.0,0.0,0.0,0.0,0.0,0.0,0.0,0.0,0.0,0.0,0.0,0.0,0.0,0.0,0.0,0.0,0.0,0.0,0.0,0.0,0.0,0.0,0.0,0.0,0.0,0.0,0.0,0.0,0.0,0.0,0.0,0.0,0.0,0.0,0.0,0.0,0.0,0.0,0.0,0.0,0.0,0.0,0.0,0.0,0.0,0.0,0.0,0.0,0.0,0.0,0.0,0.0,0.0,0.0,0.0,0.0,0.0,0.0,0.0,0.0,0.0,0.0,0.0,0.0,0.0,0.0,0.0,0.0,0.0,0.0,0.0,0.0,0.0,0.0,0.0,0.0,0.0,0.0,0.0,0.0,0.0,0.0,0.0,0.0,0.0,0.0,0.0,0.0,0.0,0.0,0.0,0.0,0.0,0.0,0.0,0.0,0.0,-0.2607,-0.6505,-0.6874,-0.5857,-0.3443,-0.0911,0.1041,0.0,0.0,0.0,0.0,0.0,0.0,0.0,0.0,0.0,0.0,0.0,0.0,0.0,0.0,0.0,0.0,0.0,0.0,0.0,0.0,0.0,0.0,0.0,0.0,0.0,0.0,0.0,0.0,0.0,0.0,0.0,0.0,0.0,0.0,0.0,0.0,0.0,0.0,0.0,0.0,0.0,0.0,0.0,0.0,0.0,0.0,0.0,0.0,0.0,0.0,0.0,0.0,0.0,0.0,0.0,0.0,0.0,0.0,0.0,0.0,0.0,0.0,0.0,0.0,0.0,0.0,0.0,0.0,0.0,0.0,0.0,0.0,0.0,0.0,0.0,0.0,0.0,0.0,0.0,0.0,0.0,0.0,0.0,0.0,0.0,0.0,0.0,0.0,0.0,0.0,0.0,0.0,0.0,0.0,0.0,0.0,0.0,0.0,0.0,0.0,0.0,0.0,0.0,0.0,0.0,0.0,0.0,0.0,-0.5352,-1.0139,-0.9133,-0.8036,-0.6879,-0.3016,-0.0304,0.0,0.0,0.0,0.0,0.0,0.0,0.0,0.0,0.0,0.0,0.0,0.0,0.0,0.0,0.0,0.0,0.0,0.0,0.0,0.0,0.0,0.0,0.0,0.0,0.0,0.0,0.0,0.0,0.0,0.0,0.0,0.0,0.0,0.0,0.0,0.0,0.0,0.0,0.0,0.0,0.0,0.0,0.0,0.0,0.0,0.0,0.0,0.0,0.0,0.0,0.0,0.0,0.0,0.0,0.0,0.0,0.0,0.0,0.0,0.0,0.0,0.0,0.0,0.0,0.0,0.0,0.0,0.0,0.0,0.0,0.0,0.0,0.0,0.0,0.0,0.0,0.0,0.0,0.0,0.0,0.0,0.0,0.0,0.0,0.0,0.0,0.0,0.0,0.0,0.0,0.0,0.0,0.0,0.0,0.0,0.0,0.0,0.0,0.0,0.0,0.0,0.0,0.0,0.0,0.0,0.0,0.0,0.0,-0.8612,-1.0592,-0.9952,-0.9098,-0.8051,-0.4768,-0.1978,0.0,0.0,0.0,0.0,0.0,0.0,0.0,0.0,0.0,0.0,0.0,0.0,0.0,0.0,0.0,0.0,0.0,0.0,0.0,0.0,0.0,0.0,0.0,0.0,0.0,0.0,0.0,0.0,0.0,0.0,0.0,0.0,0.0,0.0,0.0,0.0,0.0,0.0,0.0,0.0,0.0,0.0,0.0,0.0,0.0,0.0,0.0,0.0,1.3606,0.0,0.0,0.0,0.0,0.0,0.0,0.0,0.0,0.0,0.0,0.0,0.0,0.0,0.0,0.0,0.0,0.0,0.0,0.0,0.0,0.0,0.0,0.0,0.0,0.0,0.0,0.0,0.0,0.0,0.0,0.0,0.0,0.0,0.0,0.0,0.0,0.0,0.0,0.0,0.0,0.0,0.0,0.0,0.0,0.0,0.0,0.0,0.0,0.0,0.0,0.0,0.0,0.0,0.0,0.0,0.0,0.0,0.0,0.0,-1.0158,-1.1919,-1.1242,-1.0323,-0.9288,-0.7066,-0.4307,0.0,0.0,0.0,0.0,0.0,0.0,0.0,0.0,0.0,0.0,0.0,0.0,0.0,0.0,0.0,0.0,0.0,0.0,0.0,0.0,0.0,0.0,0.0,0.0,0.0,0.0,0.0,0.0,0.0,0.0,0.0,0.0,0.0,0.0,0.0,0.0,0.0,0.0,0.0,0.0,0.0,0.0,0.0,0.0,0.0,0.0,0.0,0.0,0.0,0.0,0.0,0.0,0.0,0.0,0.0,0.0,0.0,0.0,0.0,0.0,0.0,0.0,0.0,0.0,0.0,0.0,0.0,0.0,0.0,0.0,0.0,0.0,0.0,0.0,0.0,0.0,0.0,0.0,0.0,0.0,0.0,0.0,0.0,0.0,0.0,0.0,0.0,0.0,0.0,0.0,0.0,0.0,0.0,0.0,0.0,0.0,0.0,0.0,0.0,0.0,0.0,0.0,0.0,0.0,0.0,0.0,0.0,-0.7199,-1.1515,-1.3559,-1.2722,-1.1723,-1.0667,-0.9446,-0.6706,-0.2336,0.0,0.0,0.0,0.0,0.0,0.0,0.0,0.0,0.0,0.0,0.0,0.0,0.0,0.0,0.0,0.0,0.0,0.0,0.0,0.0,0.0,0.0,0.0,0.0,0.0,0.0,0.0,0.0,0.0,0.0,0.0,0.0,0.0,0.0,0.0,0.0,0.0,0.0,1.4319,1.398,0.0,0.0,0.0,0.0,0.0,0.0,0.0,0.0,1.3396,0.0,0.0,0.0,0.0,0.0,0.0,0.0,0.0,0.0,0.0,0.0,0.0,0.0,0.0,0.0,0.0,0.0,0.0,0.0,0.0,0.0,0.0,0.0,0.0,0.0,0.0,0.0,0.0,0.0,0.0,0.0,0.0,0.0,0.0,0.0,0.0,0.0,0.0,0.0,0.0,0.0,0.0,0.0,0.0,0.0,0.0,0.0,0.0,0.0,0.0,0.0,0.0,0.0,0.0,0.0,0.0,-1.3873,-1.4724,-1.5095,-1.5051,-1.4141,-1.3238,-1.2319,-1.1106,-0.8353,-0.3951,0.0,0.0,0.0,0.0,0.0,0.0,0.0,0.0,0.0,0.0,0.0,0.0,0.0,0.0,0.0,0.0,0.0,0.0,0.0,0.0,0.0,0.0,0.0,0.0,0.0,0.0,0.0,0.0,0.0,0.0,0.0,0.0,0.0,0.0,0.0,0.0,0.0,0.0,0.0,1.4145,1.4012,0.0,0.0,0.0,0.0,0.0,0.0,0.0,0.0,1.3312,0.0,0.0,0.0,0.0,0.0,0.0,0.0,0.0,0.0,0.0,0.0,0.0,0.0,0.0,0.0,0.0,0.0,0.0,0.0,0.0,0.0,0.0,0.0,0.0,0.0,0.0,0.0,0.0,0.0,0.0,0.0,0.0,0.0,0.0,0.0,0.0,0.0,0.0,0.0,0.0,0.0,0.0,0.0,0.0,0.0,0.0,0.0,0.0,0.0,0.0,0.0,0.0,0.0,0.0,0.0,-1.1435,-1.5403,-1.7117,-1.6574,-1.6029,-1.5012,-1.3582,-1.2846,-1.0309,0.0,0.0,0.0,0.0,0.0,0.0,0.0,0.0,0.0,0.0,0.0,0.0,0.0,0.0,0.0,0.0,0.0,0.0,0.0,0.0,0.0,0.0,0.0,0.0,0.0,0.0,0.0,0.0,0.0,0.0,0.0,0.0,0.0,0.0,0.0,0.0,0.0,0.0,0.0,0.0,1.4101,1.3927,1.3998,0.0,0.0,0.0,0.0,0.0,0.0,1.4476,1.4342,0.0,0.0,0.0,0.0,0.0,0.0,0.0,0.0,0.0,0.0,0.0,0.0,0.0,0.0,0.0,0.0,0.0,0.0,0.0,0.0,0.0,0.0,0.0,0.0,0.0,0.0,0.0,0.0,0.0,0.0,0.0,0.0,0.0,0.0,0.0,0.0,0.0,0.0,0.0,0.0,0.0,0.0,0.0,0.0,0.0,0.0,0.0,0.0,0.0,0.0,0.0,0.0,0.0,0.0,0.0,-0.7195,-1.4216,-1.7721,-1.7467,-1.7423,-1.6675,-1.509,-1.4575,-1.2033,0.0,0.0,0.0,0.0,0.0,0.0,0.0,0.0,0.0,0.0,0.0,0.0,0.0,0.0,0.0,0.0,0.0,0.0,0.0,0.0,0.0,0.0,0.0,0.0,0.0,0.0,0.0,0.0,0.0,0.0,0.0,0.0,0.0,0.0,0.0,0.0,0.0,0.0,0.0,0.0,0.0,1.4161,1.4513,1.4818,0.0,0.0,0.0,0.0,1.5399,1.5539,0.0,0.0,0.0,0.0,0.0,0.0,0.0,0.0,0.0,0.0,0.0,0.0,0.0,0.0,0.0,0.0,0.0,0.0,0.0,0.0,0.0,0.0,0.0,0.0,0.0,0.0,0.0,0.0,0.0,0.0,0.0,0.0,0.0,0.0,0.0,0.0,0.0,0.0,0.0,0.0,0.0,0.0,0.0,0.0,0.0,0.0,0.0,0.0,0.0,0.0,0.0,0.0,0.0,0.0,0.0,0.0,-0.8869,-1.3624,-1.6185,-1.655,-1.7419,-1.774,-1.755,-1.6158,-1.3167,0.0,0.0,0.0,0.0,0.0,0.0,0.0,0.0,0.0,0.0,0.0,0.0,0.0,0.0,0.0,0.0,0.0,0.0,0.0,0.0,0.0,0.0,0.0,0.0,0.0,0.0,0.0,0.0,0.0,0.0,0.0,0.0,0.0,0.0,0.0,0.0,0.0,0.0,0.0,0.0,0.0,1.5429,1.6051,1.5923,1.5781,0.0,0.0,1.568,1.5564,1.5542,0.0,0.0,0.0,0.0,0.0,0.0,0.0,0.0,0.0,0.0,0.0,0.0,0.0,0.0,0.0,0.0,0.0,0.0,0.0,0.0,0.0,0.0,0.0,0.0,0.0,0.0,0.0,0.0,0.0,0.0,0.0,0.0,0.0,0.0,0.0,0.0,0.0,0.0,0.0,0.0,0.0,0.0,0.0,0.0,0.0,0.0,0.0,0.0,0.0,0.0,0.0,0.0,0.0,0.0,0.0,-1.4378,-1.7646,-1.8954,-1.9654,-1.9811,-2.0128,-1.9829,-1.8872,-1.8262,-1.5904,0.0,0.0,0.0,0.0,0.0,0.0,0.0,0.0,0.0,0.0,0.0,0.0,0.0,0.0,0.0,0.0,0.0,0.0,0.0,0.0,0.0,0.0,0.0,0.0,0.0,0.0,0.0,0.0,0.0,0.0,0.0,0.0,0.0,0.0,0.0,0.0,0.0,0.0,0.0,0.0,0.0,0.0,1.6246,1.6358,0.0,0.0,0.0,1.691,1.6609,0.0,0.0,0.0,0.0,0.0,0.0,0.0,0.0,0.0,0.0,0.0,0.0,0.0,0.0,0.0,0.0,0.0,0.0,0.0,0.0,0.0,0.0,0.0,0.0,0.0,0.0,0.0,0.0,0.0,0.0,0.0,0.0,0.0,0.0,0.0,0.0,0.0,0.0,0.0,0.0,0.0,0.0,0.0,0.0,0.0,0.0,0.0,0.0,0.0,0.0,0.0,0.0,0.0,0.0,0.0,0.0,0.0,-2.0484,-2.0648,-2.1067,-2.1749,-2.2014,-2.15,-2.0224,-2.0032,0.0,0.0,0.0,0.0,0.0,0.0,0.0,0.0,0.0,0.0,0.0,0.0,0.0,0.0,0.0,0.0,0.0,0.0,0.0,0.0,0.0,0.0,0.0,0.0,0.0,0.0,0.0,1.4178,0.0,0.0,0.0,0.0,0.0,0.0,0.0,0.0,0.0,0.0,0.0,0.0,0.0,0.0,1.6799,1.6976,1.7115,1.7167,0.0,0.0,1.7726,1.7256,1.7526,1.7502,0.0,0.0,0.0,0.0,0.0,0.0,0.0,0.0,0.0,0.0,0.0,0.0,0.0,0.0,0.0,0.0,0.0,0.0,0.0,0.0,0.0,0.0,0.0,0.0,0.0,0.0,0.0,0.0,0.0,0.0,0.0,0.0,0.0,0.0,0.0,0.0,0.0,0.0,0.0,0.0,0.0,0.0,0.0,0.0,0.0,0.0,0.0,0.0,0.0,0.0,0.0,0.0,0.0,0.0,-1.4801,-1.057,-1.4074,-1.7376,-1.9893,-2.1432,-2.2147,-2.2005,-2.0863,-1.8855,0.0,0.0,0.0,0.0,0.0,0.0,0.0,0.0,0.0,0.0,0.0,0.0,0.0,0.0,0.0,0.0,0.0,0.0,0.0,0.0,0.0,0.0,0.0,0.0,0.0,0.0,0.0,0.0,0.0,0.0,0.0,0.0,0.0,0.0,0.0,0.0,0.0,0.0,0.0,0.0,0.0,1.84,1.9077,1.8672,1.8282,0.0,1.7962,1.7516,1.6946,1.7223,1.7382,1.693,0.0,0.0,0.0,0.0,0.0,0.0,0.0,0.0,0.0,0.0,0.0,0.0,0.0,0.0,0.0,0.0,0.0,0.0,0.0,0.0,0.0,0.0,0.0,0.0,0.0,0.0,0.0,0.0,0.0,0.0,0.0,0.0,0.0,0.0,0.0,0.0,0.0,0.0,0.0,0.0,0.0,0.0,0.0,0.0,0.0,0.0,0.0,0.0,0.0,0.0,0.0,0.0,0.0,-1.3539,-1.2934,-1.6422,-1.8674,-1.9515,-2.168,-2.2563,-2.2096,-2.1655,-2.03,0.0,0.0,0.0,0.0,0.0,0.0,0.0,0.0,0.0,0.0,0.0,0.0,0.0,0.0,0.0,0.0,0.0,0.0,0.0,0.0,0.0,0.0,0.0,0.0,0.0,0.0,0.0,0.0,1.6028,1.6164,1.6504,0.0,0.0,0.0,0.0,0.0,0.0,0.0,0.0,0.0,0.0,1.908,1.9354,1.902,0.0,0.0,1.8133,1.7795,1.7207,1.7272,1.728,1.6994,1.7248,0.0,0.0,0.0,0.0,0.0,0.0,0.0,0.0,0.0,0.0,0.0,0.0,0.0,0.0,0.0,0.0,0.0,0.0,0.0,0.0,0.0,0.0,0.0,0.0,0.0,0.0,0.0,0.0,0.0,0.0,0.0,0.0,0.0,0.0,0.0,0.0,0.0,0.0,0.0,0.0,0.0,0.0,0.0,0.0,0.0,0.0,0.0,0.0,0.0,0.0,0.0,0.0,-1.1707,-1.3894,-1.6331,-1.8218,-1.9535,-2.1124,-2.2086,-2.2344,-2.2141,-2.1254,0.0,0.0,0.0,0.0,0.0,0.0,0.0,0.0,0.0,0.0,0.0,0.0,0.0,0.0,0.0,0.0,0.0,0.0,0.0,0.0,0.0,0.0,0.0,0.0,0.0,0.0,0.0,0.0,1.6962,1.7214,1.8022,0.0,0.0,0.0,0.0,0.0,0.0,0.0,0.0,0.0,0.0,1.9625,1.9673,1.9254,1.8826,1.8502,1.8257,1.7902,1.7288,1.7134,1.7044,1.6935,0.0,0.0,0.0,0.0,0.0,0.0,0.0,0.0,0.0,0.0,0.0,0.0,0.0,0.0,0.0,0.0,0.0,0.0,0.0,0.0,0.0,0.0,0.0,0.0,0.0,0.0,0.0,-1.5502,0.0,0.0,-1.2439,0.0,0.0,0.0,0.0,0.0,0.0,0.0,0.0,0.0,0.0,0.0,0.0,0.0,0.0,0.0,0.0,0.0,0.0,0.0,0.0,0.0,0.0,-0.8372,-1.1105,-1.1882,-1.4716,-1.9785,-1.9444,-2.0496,-2.31,-2.2254,-2.1519,-2.1032,0.0,0.0,0.0,0.0,0.0,0.0,0.0,0.0,0.0,0.0,0.0,0.0,0.0,0.0,0.0,0.0,0.0,0.0,0.0,0.0,0.0,0.0,0.0,0.0,0.0,0.0,1.7213,1.7671,1.8435,0.0,0.0,0.0,0.0,0.0,0.0,0.0,0.0,0.0,2.006,2.0079,2.0135,2.026,1.9611,1.9092,1.9014,1.8389,1.7698,1.7052,1.6763,1.6636,0.0,0.0,0.0,0.0,0.0,0.0,0.0,0.0,0.0,0.0,0.0,0.0,0.0,0.0,0.0,0.0,0.0,0.0,0.0,0.0,0.0,0.0,0.0,0.0,0.0,0.0,0.0,-1.6651,-1.5182,0.0,0.0,0.0,0.0,0.0,0.0,0.0,0.0,0.0,0.0,0.0,-0.2134,-0.1598,0.0,0.0,0.0,0.0,0.0,0.0,0.0,0.0,0.0,0.0,0.0,0.0,-0.6912,-0.765,-1.0381,-1.3646,-1.7328,-1.8762,-2.0686,-2.3199,-2.2841,-2.222,-2.1456,0.0,0.0,0.0,0.0,0.0,0.0,0.0,0.0,0.0,0.0,0.0,0.0,0.0,0.0,0.0,0.0,0.0,0.0,0.0,0.0,0.0,0.0,0.0,0.0,0.0,1.8646,0.0,0.0,0.0,0.0,0.0,0.0,0.0,0.0,0.0,0.0,0.0,2.0011,1.9905,2.0088,2.026,2.0285,2.0041,1.9714,0.0,0.0,0.0,0.0,0.0,0.0,0.0,0.0,0.0,0.0,0.0,0.0,0.0,0.0,1.8851,1.8487,1.862,1.8843,1.893,0.0,0.0,0.0,0.0,0.0,0.0,0.0,0.0,0.0,0.0,0.0,0.0,0.0,0.0,-1.6016,-1.4596,-1.2196,0.0,0.0,0.0,0.0,0.0,0.0,0.0,0.0,-0.3676,-0.35,-0.3294,-0.2758,-0.223,0.0,-0.1616,-0.0781,0.0,0.0,0.0,0.0,0.0,0.0,0.0,0.0,-0.6391,-0.6607,-0.9111,-1.2234,-1.5819,-1.7432,-1.9859,-2.3245,-2.3133,-2.2581,-2.1702,-2.1054,-2.0538,0.0,0.0,0.0,0.0,0.0,0.0,0.0,0.0,0.0,0.0,0.0,0.0,0.0,0.0,0.0,0.0,0.0,0.0,0.0,0.0,0.0,0.0,0.0,1.6185,0.0,0.0,0.0,0.0,0.0,0.0,0.0,0.0,0.0,1.8678,1.8782,1.849,1.8363,1.8532,1.8652,1.8672,0.0,0.0,0.0,0.0,0.0,0.0,0.0,1.785,1.8449,1.7501,1.6974,1.7896,1.8298,1.852,1.8646,0.0,0.0,1.8626,1.877,1.8952,1.9043,1.9382,1.9657,1.975,1.9828,1.987,0.0,0.0,0.0,0.0,0.0,0.0,0.0,0.0,-1.3938,-1.4023,0.0,-1.1741,0.0,0.0,0.0,0.0,-0.8137,-0.7717,0.0,0.0,-0.5806,-0.5222,-0.4684,-0.4073,-0.3738,-0.3569,-0.3014,-0.2905,-0.3077,-0.1504,0.0,0.0,0.0,0.0,0.0,0.0,-0.6908,-0.8196,-0.8352,-1.0725,-1.5713,-1.5728,-1.8164,-2.334,-2.3175,-2.2677,-2.1986,-2.1718,-2.1195,-2.0307,-1.9478,0.0,0.0,0.0,0.0,0.0,0.0,0.0,0.0,0.0,0.0,0.0,0.0,0.0,0.0,0.0,0.0,0.0,0.0,0.0,0.0,0.983,0.0,0.0,0.0,0.0,0.0,0.0,0.0,0.0,0.0,0.0,1.5711,1.5874,1.5374,1.5602,0.0,0.0,0.0,0.0,1.7109,1.7108,1.8179,1.8952,1.9173,1.8552,1.8271,1.8868,0.0,0.0,1.8359,1.8715,1.8941,1.8921,1.9154,1.9213,1.9323,1.9277,1.9205,1.9232,1.9569,1.9896,1.9974,2.0124,2.0213,-0.9112,0.0,0.0,0.0,0.0,-1.3954,-1.4292,-1.4854,-1.4881,-1.4896,-1.4752,-1.2276,0.0,0.0,0.0,0.0,0.0,0.0,-0.9036,-0.6455,-0.5928,-0.566,-0.5445,-0.4794,-0.4128,-0.3624,-0.3744,-0.3577,-0.3186,-0.307,-0.2959,-0.2961,0.0,0.0,0.0,0.0,-1.2881,-1.3255,-1.3762,-1.5671,-1.9004,-1.8908,-2.023,-2.3159,-2.307,-2.2773,-2.248,-2.226,-2.1982,-2.1497,-2.0525,0.0,0.0,0.0,0.0,0.0,0.0,0.0,0.0,0.0,0.0,0.0,0.0,0.0,0.0,0.0,0.0,0.0,0.0,0.0,1.055,0.6233,0.5159,0.0,0.0,0.0,0.0,0.0,0.0,0.0,0.0,0.0,0.2281,0.5837,0.9972,0.0,0.0,1.0518,1.1463,1.1406,1.1445,1.2037,1.3216,0.0,2.0085,2.0718,2.0886,2.1419,2.0993,2.0367,1.9655,2.0316,2.0933,2.093,2.0969,2.1092,2.1218,2.022,1.9447,1.9487,1.9705,2.0148,2.0802,2.1005,2.1206,-0.9159,-0.9718,-0.9204,-1.0163,-1.1969,-1.2211,-1.2534,-1.2896,-1.3127,-1.3115,-1.2884,-1.1271,-1.1591,-1.3254,-1.1562,0.0,0.0,0.0,-0.9314,-0.7058,-0.674,-0.6317,-0.5887,-0.5399,-0.4787,-0.4125,-0.4187,-0.4024,-0.363,-0.3852,-0.3919,-0.4067,0.0,0.0,-1.0626,-1.3803,-1.5574,-1.5832,-1.6251,-1.7725,-2.0212,-2.1186,-2.2171,-2.3211,-2.3146,-2.301,-2.2816,-2.2712,-2.2517,-2.2258,-2.1642,-2.1046,0.0,0.0,0.0,0.0,0.0,0.0,0.0,0.0,0.0,0.0,0.0,-0.3526,-0.309,0.0,0.0,0.0,0.0895,0.1526,-0.0939,-0.2591,0.0,0.0,0.0,0.0,0.0,0.0,0.0,-0.2695,-0.624,-0.8094,-0.7205,-0.5217,-0.1191,0.5862,0.3993,0.2341,0.3464,0.0,0.3609,0.4416,0.5925,0.928,1.5797,1.7482,1.8947,2.2136,2.2329,2.1915,2.1224,2.1656,2.2103,2.2111,2.2114,2.2166,2.2324,2.1425,2.0653,2.0653,2.0812,2.1181,2.1788,2.1875,2.2038,-0.9211,-0.9806,-0.8988,-0.8784,-0.9008,-0.9517,-0.9614,-0.9413,-0.9909,-0.9865,-0.9569,-0.942,-1.0676,-1.2849,-1.2542,0.0,-0.9008,-0.891,-0.8613,-0.8184,-0.7877,-0.7187,-0.6159,-0.5937,-0.5555,-0.5007,-0.4798,-0.4638,-0.4508,-0.4351,-0.4081,-0.3938,-0.7764,-1.0012,-1.0793,-1.4399,-1.657,-1.7188,-1.724,-1.8286,-2.0453,-2.2727,-2.3795,-2.3522,-2.3477,-2.3294,-2.3052,-2.3028,-2.2927,-2.2677,-2.2695,-2.2356,-2.162,0.0,0.0,0.0,0.0,0.0,0.0,0.0,0.0,0.0,0.0,0.0,0.0,0.0,0.0,0.0,-0.8243,0.0,-1.8281,-1.3533,0.0,0.0,0.0,-0.0834,-0.2769,-0.8091,-1.0828,-0.8905,0.0,0.0,-1.3674,-1.6076,-1.5507,-0.8475,-0.776,-0.7587,-0.6756,-0.5943,-0.5439,-0.4447,-0.2698,0.1131,0.8026,1.0424,1.3633,2.0044,2.1907,2.1817,2.2528,2.2798,2.28,2.2885,2.2811,2.2849,2.283,2.2827,2.2707,2.2495,2.2486,2.2562,2.2677,2.2696,2.2753,-0.8896,-0.8784,-0.8844,-0.9524,-1.0557,-1.0549,-1.06,-1.0744,-1.0846,-1.0846,-1.0795,-1.0744,-1.0863,-1.0995,-1.0449,-0.9844,-0.9309,-0.9159,-0.9054,-0.889,-0.8196,-0.7711,-0.7396,-0.6642,-0.6105,-0.6058,-0.7963,-0.7452,-0.4848,-0.6829,-0.6455,-0.427,-1.0175,-1.336,-1.3655,-1.9657,-2.287,-2.3054,-2.3069,-2.3211,-2.3524,-2.3891,-2.3935,-2.3671,-2.3735,-2.3628,-2.3318,-2.3271,-2.3194,-2.3151,-2.3045,-2.2888,-2.2712,-2.2745,0.0,0.0,0.0,0.0,0.0,0.0,0.0,0.0,0.0,-1.5619,-1.5551,0.0,-1.0902,0.0,-1.8115,-1.7522,-1.3783,-1.2411,0.0,0.0,-0.5706,-0.5832,-1.6121,-1.4352,-1.4009,-1.859,-2.0598,-2.1581,-2.1401,-2.2103,-2.1969,-2.002,-1.5872,-1.2608,-1.1497,-1.1714,-1.1648,-1.0773,-0.9107,-0.5357,0.0929,0.3923,0.7605,1.4386,1.5996,1.8016,2.2734,2.4148,2.458,2.458,2.458,2.458,2.4541,2.458,2.4538,2.4395,2.3515,2.2811,2.3441,2.3594,2.3785,-1.1088,-0.8992,-1.0223,-1.0673,-1.0446,-1.049,-1.0533,-1.049,-1.0744,-1.0694,-1.049,-1.0482,-1.0336,-1.0035,-0.9666,-0.9517,-0.9465,-0.9361,-0.9899,-1.0985,-1.0433,-1.0656,-1.1478,-1.093,-1.0528,-1.0273,-1.1687,-1.1282,-0.9381,-1.0769,-1.0494,-0.8707,-1.4187,-1.692,-1.7082,-2.2429,-2.5194,-2.5145,-2.5049,-2.491,-2.4639,-2.4408,-2.4192,-2.4019,-2.3998,-2.3901,-2.3738,-2.3678,-2.3588,-2.3422,-2.3343,-2.3302,-2.3348,-2.3199,-2.301,0.0,0.0,0.0,0.0,0.0,0.0,0.0,0.0,0.0,0.0,0.0,-1.6825,-2.0486,-2.1388,-2.0133,-1.6199,-1.6197,-1.6504,-1.6621,-1.3323,-1.4255,-2.2227,-1.9792,-1.9135,-2.321,-2.376,-2.3976,-2.4443,-2.4527,-2.4529,-2.4552,-2.1548,-1.9001,-1.8241,-1.8659,-1.8867,-1.8027,-1.6783,-1.3196,-0.576,-0.1104,0.3075,0.7479,0.899,1.127,1.7034,1.9104,2.0916,2.4277,2.4903,2.4771,2.5115,2.521,2.521,2.5077,2.4446,2.4014,2.4377,2.4473,2.4675,-1.362,-0.9541,-1.163,-1.1388,-0.9562,-0.9961,-0.9961,-0.9718,-1.0241,-1.019,-0.9718,-0.9718,-0.9666,-0.9614,-0.9614,-0.9614,-0.9614,-0.9465,-1.0855,-1.3289,-1.3131,-1.4151,-1.6116,-1.6103,-1.5828,-1.5375,-1.5536,-1.5363,-1.4919,-1.5103,-1.4972,-1.4713,-1.8137,-1.9933,-2.0062,-2.3579,-2.5368,-2.522,-2.5037,-2.4883,-2.4734,-2.4604,-2.4491,-2.4429,-2.4284,-2.4192,-2.4155,-2.4173,-2.4002,-2.3699,-2.3599,-2.3596,-2.3725,-2.3611,-2.3453,0.0,-2.3164,0.0,0.0,0.0,0.0,0.0,0.0,0.0,0.0,-2.2428,-2.1614,-2.1027,-2.1536,-2.1788,-2.1518,-2.1751,-2.2059,-2.2319,-2.2383,-2.2778,-2.3821,-2.3935,-2.4195,-2.4924,-2.4936,-2.4929,-2.4898,-2.4915,-2.4924,-2.4936,-2.4707,-2.4161,-2.4296,-2.452,-2.4573,-2.4408,-2.3855,-1.9789,-1.2906,-0.704,-0.2722,0.011,0.1191,0.352,0.9908,1.1433,1.4249,2.0741,2.1287,2.1355,2.3251,2.3529,2.3983,2.471,2.4981,2.5077,2.5134,2.5134,2.521,-1.1881,-0.902,-0.9653,-0.964,-0.9309,-0.9562,-0.9925,-1.0293,-1.0804,-1.0753,-1.0241,-1.0249,-1.0035,-0.9614,-0.9614,-0.9614,-0.9614,-0.9562,-1.101,-1.3545,-1.324,-1.4439,-1.68,-1.6627,-1.644,-1.6513,-1.8757,-1.8352,-1.5531,-1.7887,-1.7514,-1.4757,-1.8265,-2.0079,-2.0265,0.0,0.0,0.0,-2.5154,-2.5018,-2.4942,-2.4799,-2.47,-2.4578,-2.4629,0.0,-2.4439,-2.4474,-2.4388,-2.4174,-2.3839,0.0,0.0,0.0,0.0,0.0,0.0,0.0,0.0,0.0,0.0,0.0,-2.314,-2.3164,-2.3283,-2.3315,-2.32,-2.2981,-2.3262,-2.352,-2.3597,-2.3674,-2.3731,-2.3787,-2.3805,-2.3932,-2.4281,-2.4429,-2.4643,-2.4864,-2.4987,-2.5024,-2.4968,-2.4981,-2.4956,-2.4986,-2.4998,-2.4981,-2.4918,-2.5092,-2.5177,-2.4982,-2.4404,-2.2983,-1.9888,-1.7773,-1.3983,-0.9696,-0.7146,-0.3018,0.5152,0.5865,0.6144,1.1122,0.979,0.9766,1.4506,1.6069,1.7918,2.3046,2.4423,2.521,2.521,2.5122,2.518,-1.6037,-1.1386,-1.2725,-1.1794,0.0,-0.9821,-1.0146,-1.0403,-1.0387,-1.0233,-1.0035,-1.0293,-1.0087,-0.9614,-0.988,-0.9821,-0.9614,-0.9614,-1.103,-1.3555,-1.4696,-1.6594,-1.9164,-2.0281,-2.0812,-2.0909,-2.2424,-2.2207,-2.0588,-2.204,-2.1842,-2.0039,-2.1878,-2.2806,-2.2859,-2.4672,-2.5551,-2.5449,-2.5335,-2.5216,-2.5088,-2.5022,-2.4937,-2.4799,-2.4823,0.0,0.0,0.0,0.0,0.0,0.0,0.0,0.0,-2.3821,0.0,-2.3602,-2.341,-2.3305,-2.3346,-2.3323,-2.3414,-2.3714,-2.3714,-2.3646,-2.3508,-2.3616,-2.37,-2.3664,-2.3789,-2.3873,-2.3974,-2.3992,-2.4052,-2.4095,-2.4114,-2.4173,-2.4355,-2.4442,-2.4528,-2.4591,-2.4636,-2.4636,-2.4604,-2.4607,-2.462,-2.4697,-2.4636,-2.4682,-2.4864,-2.503,-2.502,-2.4755,-2.448,-2.3763,-2.253,-2.2132,-2.0855,-1.6427,-1.5083,-1.2435,-0.6829,-0.4532,-0.378,-0.4188,-0.1568,0.3505,0.6884,0.8373,0.9764,1.2953,1.4293,1.4606,1.5024,2.012,2.5168,-2.1067,-1.5049,-1.7046,-1.538,-1.1367,-1.1795,-1.1679,-1.115,-1.0395,0.0,0.0,-1.0446,-1.0387,-0.9925,-1.0249,-1.019,-0.9865,-0.9666,-1.1313,-1.4432,-1.6482,-1.9054,-2.2012,-2.4161,-2.5205,-2.5254,-2.5316,-2.5379,-2.5432,-2.5551,-2.5565,-2.5526,-2.5582,-2.5605,-2.5621,-2.5629,-2.5589,-2.554,-2.551,-2.5432,-2.5245,-2.5245,-2.5177,-2.5031,-2.4981,-2.4981,-2.505,-2.5025,-2.4961,-2.4799,-2.4771,-2.4617,-2.4409,-2.4229,-2.4096,-2.3978,-2.3896,-2.3855,-2.3917,-2.3858,-2.3958,-2.4192,-2.4116,-2.3998,-2.3725,-2.3703,-2.3725,-2.3807,-2.3807,-2.3807,-2.3807,-2.3807,-2.3852,-2.3981,-2.4001,-2.4098,-2.4319,-2.4302,-2.4303,-2.4303,-2.4303,-2.4228,-2.4247,-2.4247,-2.4229,-2.4356,-2.4339,-2.4284,-2.4528,-2.4718,-2.4723,-2.4415,-2.4238,-2.3822,-2.307,-2.2807,-2.2359,-2.0814,-2.0633,-2.0766,-1.9458,-1.5713,-1.4727,-1.7588,-1.0319,-0.3872,-0.0428,0.0368,0.1128,0.2756,0.3253,0.3361,0.4288,1.2538,2.022,-2.2243,-1.9069,-1.9404,-1.8974,-1.8032,-1.8085,-1.6667,-1.4194,-1.2497,-1.1451,-1.099,-1.161,-1.1519,-1.0956,-1.0549,-1.06,-1.0897,-1.002,-1.251,-1.7609,-1.7602,-2.0177,-2.4817,-2.5284,-2.5432,-2.5451,-2.5517,-2.5566,-2.5571,-2.5589,-2.559,-2.5584,-2.5606,-2.5634,-2.5661,-2.5683,-2.5681,-2.5676,-2.5609,-2.5526,-2.5391,-2.5372,-2.5309,-2.5168,-2.5168,-2.5149,-2.5176,-2.5168,-2.5168,-2.5141,-2.4968,-2.4828,-2.4737,-2.4424,-2.4266,-2.4229,-2.4075,-2.3958,-2.3996,-2.3958,-2.4075,-2.4247,-2.4096,-2.3937,-2.3813,-2.3792,-2.3813,-2.3813,-2.3813,-2.3834,-2.3876,-2.3876,-2.3896,-2.3978,-2.3958,-2.3999,-2.4192,-2.4173,-2.4155,-2.4319,-2.4391,-2.4338,-2.4247,-2.4247,-2.4247,-2.4321,-2.4266,-2.4229,-2.4118,-2.4227,-2.4412,-2.4369,-2.4058,-2.3537,-2.2935,-2.2792,-2.2468,-2.1859,-2.174,-2.1702,-2.1501,-2.0025,-1.9217,-2.0391,-1.7687,-1.445,-0.9729,-0.8037,-0.5638,-0.1685,-0.01,0.0689,0.051,0.3545,0.6527,-2.472,-2.2339,-2.2218,-2.1288,-1.9822,-1.9855,-1.8933,-1.7451,-1.6901,-1.4437,-1.1086,-1.1867,-1.1982,-1.1502,-1.1814,-1.2466,-1.3236,-1.2751,-1.4486,-1.7907,-1.9165,-2.1009,-2.3341,-2.4825,-2.5513,-2.5561,-2.559,-2.5623,-2.5665,-2.5664,-2.5673,-2.5657,-2.5637,-2.5661,-2.5703,-2.5702,-2.5702,-2.5703,-2.5672,-2.5616,-2.5517,-2.5515,-2.5473,-2.5376,-2.5331,-2.5313,-2.5303,-2.5322,-2.5322,-2.5302,-2.5111,-2.4981,-2.4911,-2.4663,-2.4493,-2.4428,-2.4321,-2.4228,-2.4132,-2.4171,-2.419,-2.4134,-2.4153,-2.4153,-2.4077,-2.4077,-2.4037,-2.3919,-2.3998,-2.4037,-2.3917,-2.3896,-2.3899,-2.3955,-2.3896,-2.3917,-2.4018,-2.3979,-2.3961,-2.4059,-2.4098,-2.4097,-2.4019,-2.4075,-2.4115,-2.4173,-2.4155,-2.4024,-2.3806,-2.3629,-2.3533,-2.3497,-2.3303,-2.2994,-2.2583,-2.2468,-2.2341,-2.2077,-2.2077,-2.2089,-2.2073,-2.177,-2.1636,-2.158,-2.1322,-2.002,-1.6506,-1.5489,-1.3269,-1.1261,-0.9074,-0.8475,-0.8074,-0.6555,-0.2322,-2.7536,-2.5613,-2.5601,-2.4354,-2.241,-2.2374,-2.1814,-2.0959,-2.1392,-1.8337,-1.3481,-1.3949,-1.4135,-1.3952,-1.4673,-1.5555,-1.6403,-1.6273,-1.7284,-1.9334,-2.1232,-2.2459,-2.3223,-2.5191,-2.611,-2.6117,-2.5952,-2.5897,-2.5956,-2.578,-2.5701,-2.5702,-2.5703,-2.5702,-2.5697,-2.5699,-2.5699,-2.5697,-2.5703,-2.5672,-2.5623,-2.5593,-2.5571,-2.5506,-2.5426,-2.5395,-2.5387,-2.5397,-2.5388,-2.5398,-2.525,-2.5134,-2.5053,-2.4872,-2.4708,-2.4578,-2.4532,-2.4447,-2.4266,-2.4303,-2.4303,-2.4153,-2.421,-2.4303,-2.4339,-2.4339,-2.4266,-2.4135,-2.4266,-2.4248,-2.4058,-2.3981,-2.3979,-2.3976,-2.3917,-2.3899,-2.3937,-2.3896,-2.3855,-2.3837,-2.3858,-2.3896,-2.3837,-2.3876,-2.3958,-2.4058,-2.3926,-2.3749,-2.3538,-2.3112,-2.2754,-2.2643,-2.2599,-2.251,-2.2237,-2.218,-2.2197,-2.2197,-2.2197,-2.218,-2.2163,-2.218,-2.2209,-2.2215,-2.2248,-2.1798,-2.14,-2.0586,-1.9466,-1.804,-1.7015,-1.6826,-1.5867,-1.4056,-0.9096,-3.0172,-2.9873,-2.966,-2.9532,-2.8785,-2.87,-2.7159,-2.498,-2.4853,-2.3061,-2.007,-2.0123,-2.0294,-2.0501,-2.0039,-2.0287,-2.0982,-2.0162,-2.1343,-2.3927,-2.4057,-2.5196,-2.7136,-2.7692,-2.7872,-2.7712,-2.705,-2.6736,-2.675,-2.6065,-2.5668,-2.5689,-2.5693,-2.5718,-2.5701,-2.5694,-2.5693,-2.5699,-2.5701,-2.5703,-2.5685,-2.5639,-2.5571,-2.5518,-2.5441,-2.5385,-2.5395,-2.5387,-2.5387,-2.5387,-2.537,-2.5303,-2.5182,-2.5053,-2.4891,-2.4689,-2.4613,-2.4515,-2.4303,-2.4229,-2.4284,-2.4408,-2.4284,-2.4284,-2.4479,-2.4478,-2.4495,-2.4458,-2.4472,-2.4422,-2.4301,-2.4265,-2.4229,-2.4171,-2.4113,-2.4074,-2.4074,-2.4034,-2.3976,-2.3896,-2.3917,-2.3896,-2.3896,-2.3896,-2.3937,-2.3958,-2.3592,-2.3287,-2.3165,-2.2781,-2.2426,-2.236,-2.231,-2.2282,-2.2197,-2.2197,-2.2197,-2.2214,-2.2271,-2.2282,-2.2282,-2.2282,-2.2299,-2.2282,-2.231,-2.2226,-2.2209,-2.2034,-2.1624,-2.0493,-1.9923,-1.9703,-1.9096,-1.8114,-1.3897,-3.0586,-3.0533,-3.0507,-3.0424,-3.0301,-3.026,-2.945,-2.8219,-2.8147,-2.738,-2.6345,-2.6243,-2.4614,-2.175,-2.1955,-2.2802,-2.3955,-2.3581,-2.4617,-2.6707,-2.6606,-2.7129,-2.8052,-2.8158,-2.8149,-2.8136,-2.7785,-2.7634,-2.7561,-2.7277,-2.6899,-2.6448,-2.6415,-2.6166,-2.5683,-2.5683,-2.5705,-2.5689,-2.5694,-2.5701,-2.5683,-2.5627,-2.558,-2.5554,-2.5523,-2.5498,-2.5468,-2.5468,-2.5472,-2.5448,-2.5331,-2.5284,-2.5253,-2.5126,-2.5025,-2.4874,-2.4719,-2.4545,-2.4411,-2.4321,-2.4284,-2.4374,-2.4321,-2.4358,-2.453,-2.4512,-2.4543,-2.4651,-2.4663,-2.4632,-2.4535,-2.4484,-2.4439,-2.4338,-2.4266,-2.419,-2.4112,-2.4054,-2.3976,-2.3958,-2.3996,-2.3996,-2.3958,-2.3976,-2.3896,-2.3774,-2.341,-2.3177,-2.2975,-2.2642,-2.2432,-2.2366,-2.2338,-2.231,-2.2271,-2.2254,-2.2254,-2.2254,-2.2299,-2.2327,-2.231,-2.2327,-2.2327,-2.2327,-2.2338,-2.2338,-2.2293,-2.1698,-2.1207,-2.0509,-1.898,-1.8015,-1.7584,-1.7397,-1.4897,-3.0602,-3.0602,-3.0602,-3.0602,-3.0621,-3.0602,-3.0472,-3.026,-3.0206,-3.0145,-3.0047,-3.0042,-2.7937,-2.462,-2.4833,-2.5812,-2.6906,-2.6996,-2.7624,-2.8746,-2.8814,-2.8837,-2.8841,-2.887,-2.8846,-2.8817,-2.8627,-2.8364,-2.8173,-2.8178,-2.7874,-2.7335,-2.7267,-2.6942,-2.6356,-2.6149,-2.6039,-2.6042,-2.5849,-2.5696,-2.5702,-2.566,-2.5627,-2.5598,-2.5615,-2.5589,-2.5531,-2.5512,-2.5538,-2.5541,-2.5357,-2.5274,-2.5303,-2.5209,-2.5137,-2.5063,-2.4779,-2.4629,-2.4584,-2.4464,-2.4393,-2.4357,-2.4357,-2.4393,-2.4515,-2.4497,-2.4561,-2.4731,-2.476,-2.4746,-2.4682,-2.4663,-2.4601,-2.4458,-2.4408,-2.4393,-2.4248,-2.4173,-2.4135,-2.4075,-2.4094,-2.4094,-2.4036,-2.4036,-2.3976,-2.3732,-2.345,-2.3212,-2.2952,-2.2668,-2.2487,-2.2432,-2.2449,-2.2394,-2.231,-2.231,-2.2338,-2.2338,-2.2338,-2.2366,-2.2338,-2.2338,-2.2338,-2.2366,-2.2394,-2.2394,-2.2366,-2.1635,-2.0941,-1.9928,-1.8639,-1.7356,-1.7275,-1.6738,-1.6413,-3.0602,-3.0602,-3.0602,-3.0613,-3.0604,-3.0613,-3.0582,-3.0548,-3.0492,-3.043,-3.0375,-3.0419,-3.0271,-2.9685,-2.9568,-3.012,-3.0361,-3.0197,-3.0211,-3.0419,-3.0477,-3.0501,-3.0505,-3.0494,-3.0438,-3.0224,-2.9588,-2.8968,-2.8353,-2.8271,-2.8197,-2.8148,-2.8142,-2.8114,-2.7845,-2.7199,-2.689,-2.6873,-2.6182,-2.5732,-2.572,-2.5722,-2.5655,-2.562,-2.5595,-2.5601,-2.5601,-2.5601,-2.5595,-2.5595,-2.5518,-2.5434,-2.5322,-2.5293,-2.5275,-2.5221,-2.4926,-2.4726,-2.4748,-2.4663,-2.4561,-2.4495,-2.4442,-2.4391,-2.4446,-2.4446,-2.4513,-2.4692,-2.4707,-2.4657,-2.4645,-2.4734,-2.4697,-2.4538,-2.4666,-2.4651,-2.4472,-2.4422,-2.4391,-2.4247,-2.419,-2.4152,-2.4095,-2.4151,-2.4054,-2.3795,-2.35,-2.3224,-2.2977,-2.2703,-2.2542,-2.2515,-2.2487,-2.246,-2.2338,-2.2338,-2.2394,-2.2394,-2.2405,-2.247,-2.246,-2.246,-2.2422,-2.2422,-2.2422,-2.2449,-2.2405,-2.2084,-2.15,-2.0751,-1.9982,-1.9038,-1.8113,-1.8387,-1.8062,-3.0606,-3.0606,-3.0606,-3.0616,-3.0616,-3.0616,-3.0606,-3.0616,-3.0578,-3.055,-3.054,-3.0559,-3.055,-3.052,-3.054,-3.0568,-3.0637,-3.0637,-3.0645,-3.0634,-3.0634,-3.0618,-3.061,-3.0632,-3.0659,-3.0607,-3.035,-3.0068,-2.9831,-2.9803,-2.9539,-2.9093,-2.9047,-2.8782,-2.8258,-2.7878,-2.7739,-2.7669,-2.6917,-2.6483,-2.6456,-2.5996,-2.5693,-2.5666,-2.5664,-2.5649,-2.5609,-2.5615,-2.5604,-2.5601,-2.5589,-2.5483,-2.5322,-2.522,-2.5156,-2.5099,-2.4969,-2.4856,-2.4802,-2.4723,-2.4642,-2.4626,-2.461,-2.4578,-2.4599,-2.4564,-2.4578,-2.466,-2.461,-2.4561,-2.4629,-2.4768,-2.4794,-2.462,-2.4716,-2.4682,-2.4476,-2.4441,-2.4441,-2.4303,-2.4247,-2.4229,-2.4191,-2.4191,-2.4037,-2.3649,-2.3455,-2.32,-2.2884,-2.2668,-2.2623,-2.2596,-2.2569,-2.2542,-2.2477,-2.2405,-2.2405,-2.2432,-2.246,-2.2487,-2.2487,-2.2487,-2.246,-2.246,-2.2487,-2.2388,-2.2332,-2.1823,-2.1381,-2.1101,-2.0416,-1.9974,-1.9287,-1.9353,-1.9119,-3.0588,-3.0569,-3.0598,-3.0617,-3.0617,-3.0617,-3.0617,-3.0617,-3.0617,-3.0617,-3.0617,-3.0617,-3.0617,-3.0617,-3.0617,-3.0616,-3.0604,-3.0613,-3.0621,-3.0602,-3.0602,-3.0602,-3.0618,-3.0672,-3.0703,-3.072,-3.0739,-3.076,-3.076,-3.0743,-3.0452,-2.9949,-2.9934,-2.9645,-2.908,-2.8802,-2.8645,-2.8493,-2.7783,-2.7253,-2.6968,-2.6424,-2.5964,-2.5742,-2.5704,-2.566,-2.5639,-2.5639,-2.563,-2.5629,-2.5582,-2.5476,-2.5293,-2.5172,-2.5082,-2.505,-2.5031,-2.4966,-2.4884,-2.4827,-2.4764,-2.4738,-2.4719,-2.4719,-2.4689,-2.4657,-2.4657,-2.4657,-2.4629,-2.4596,-2.4645,-2.4753,-2.4783,-2.4689,-2.4764,-2.4731,-2.4478,-2.4491,-2.4476,-2.4357,-2.4303,-2.4266,-2.4229,-2.4229,-2.3981,-2.3504,-2.3419,-2.3248,-2.2884,-2.2712,-2.2712,-2.2703,-2.2659,-2.2605,-2.2569,-2.2525,-2.2487,-2.2515,-2.2542,-2.2542,-2.2515,-2.2542,-2.2542,-2.2542,-2.2443,-2.2343,-2.2027,-2.1507,-2.126,-2.1119,-2.0893,-2.0532,-2.023,-2.0143,-1.9854,-3.0559,-3.052,-3.0588,-3.0598,-3.0588,-3.0588,-3.0617,-3.0617,-3.0598,-3.0598,-3.0617,-3.0617,-3.0617,-3.0617,-3.0617,-3.0617,-3.0607,-3.0606,-3.0604,-3.0621,-3.0621,-3.0621,-3.061,-3.0665,-3.0706,-3.072,-3.0835,-3.0878,-3.0859,-3.0819,-3.0739,-3.076,-3.0682,-3.0585,-3.0702,-2.9922,-2.9589,-2.9413,-2.873,-2.793,-2.7145,-2.7005,-2.655,-2.5896,-2.5752,-2.5701,-2.5699,-2.5699,-2.5699,-2.5671,-2.5593,-2.5418,-2.5252,-2.5156,-2.5082,-2.5089,-2.5101,-2.5057,-2.4993,-2.498,-2.4926,-2.4856,-2.4808,-2.4798,-2.4753,-2.4738,-2.4723,-2.4738,-2.4707,-2.4692,-2.4689,-2.4723,-2.4723,-2.4704,-2.4804,-2.4837,-2.4723,-2.4692,-2.4613,-2.4446,-2.4358,-2.4303,-2.4284,-2.4266,-2.4058,-2.3653,-2.3459,-2.3359,-2.3003,-2.2842,-2.279,-2.2842,-2.2816,-2.2712,-2.2685,-2.2659,-2.2605,-2.2623,-2.2632,-2.2632,-2.2605,-2.2605,-2.2569,-2.2525,-2.2248,-2.2147,-2.1986,-2.157,-2.1479,-2.1324,-2.1166,-2.1007,-2.0828,-2.0648,-2.0467,-3.0519,-3.049,-3.0519,-3.054,-3.053,-3.054,-3.0569,-3.0598,-3.054,-3.054,-3.0598,-3.0617,-3.0617,-3.0617,-3.0617,-3.0617,-3.0617,-3.0607,-3.0616,-3.0606,-3.0616,-3.0615,-3.0621,-3.0671,-3.0739,-3.0771,-3.0799,-3.0834,-3.0839,-3.0819,-3.082,-3.0859,-3.0798,-3.0797,-3.0798,-3.0566,-3.0429,-3.0312,-2.9569,-2.8983,-2.8613,-2.7591,-2.6878,-2.6576,-2.6027,-2.569,-2.5701,-2.5701,-2.5697,-2.5691,-2.5671,-2.5537,-2.5359,-2.5184,-2.5082,-2.5082,-2.5082,-2.5082,-2.507,-2.507,-2.5025,-2.4953,-2.494,-2.4945,-2.4922,-2.4908,-2.4889,-2.4908,-2.4827,-2.4783,-2.4749,-2.4738,-2.4707,-2.4689,-2.4804,-2.4832,-2.4738,-2.466,-2.458,-2.45,-2.4447,-2.4411,-2.4358,-2.4284,-2.4039,-2.3714,-2.354,-2.3371,-2.3126,-2.2995,-2.2995,-2.3045,-2.2919,-2.2842,-2.2816,-2.2764,-2.2712,-2.2676,-2.2685,-2.2685,-2.2685,-2.2632,-2.2552,-2.2388,-2.2135,-2.1932,-2.1797,-2.1678,-2.1556,-2.1481,-2.1246,-2.1183,-2.1151,-2.1023,-2.0813,-3.049,-3.0509,-3.053,-3.054,-3.053,-3.054,-3.054,-3.0559,-3.0501,-3.055,-3.0569,-3.0569,-3.0578,-3.0607,-3.0607,-3.0617,-3.0617,-3.0617,-3.0617,-3.0617,-3.0617,-3.0616,-3.0613,-3.0671,-3.0714,-3.0759,-3.0785,-3.0784,-3.0796,-3.0798,-3.084,-3.0877,-3.0856,-3.0836,-3.0856,-3.084,-3.084,-3.0761,-3.0293,-2.9863,-2.9411,-2.8506,-2.7659,-2.703,-2.6464,-2.6032,-2.5757,-2.5696,-2.569,-2.5678,-2.5652,-2.5537,-2.5385,-2.5239,-2.5132,-2.5139,-2.5139,-2.5139,-2.5095,-2.5076,-2.5082,-2.5038,-2.5025,-2.5044,-2.505,-2.5018,-2.5018,-2.4972,-2.4926,-2.487,-2.4875,-2.4827,-2.4817,-2.4798,-2.4808,-2.4775,-2.4707,-2.466,-2.4615,-2.4549,-2.4532,-2.4498,-2.4411,-2.4266,-2.4039,-2.3795,-2.3602,-2.3458,-2.3247,-2.3144,-2.3144,-2.3144,-2.307,-2.2995,-2.297,-2.2893,-2.279,-2.2755,-2.2729,-2.2729,-2.2703,-2.2596,-2.2487,-2.2192,-2.1903,-2.1738,-2.1617,-2.1509,-2.1386,-2.134,-2.1309,-2.1294,-2.1214,-2.1262,-2.1119,-3.0481,-3.0509,-3.0559,-3.0588,-3.0569,-3.0588,-3.0559,-3.052,-3.0491,-3.055,-3.0569,-3.0559,-3.053,-3.0577,-3.0606,-3.0616,-3.0598,-3.0606,-3.0616,-3.0607,-3.0607,-3.0616,-3.0621,-3.0678,-3.0703,-3.0706,-3.0771,-3.0799,-3.0792,-3.0795,-3.0819,-3.0878,-3.0898,-3.0898,-3.0898,-3.0898,-3.0897,-3.0875,-3.0853,-3.0421,-2.9771,-2.9537,-2.8832,-2.7349,-2.7036,-2.6587,-2.6019,-2.5783,-2.5701,-2.5684,-2.5576,-2.5452,-2.5339,-2.5243,-2.5176,-2.5191,-2.521,-2.5168,-2.5125,-2.5113,-2.5101,-2.5101,-2.5082,-2.5082,-2.507,-2.507,-2.5076,-2.5025,-2.498,-2.4999,-2.4991,-2.4977,-2.4977,-2.4964,-2.4842,-2.4768,-2.4704,-2.4707,-2.4676,-2.4631,-2.4599,-2.4582,-2.4517,-2.4339,-2.4096,-2.3878,-2.3649,-2.3463,-2.3342,-2.3265,-2.3217,-2.3193,-2.3193,-2.3144,-2.3095,-2.302,-2.2893,-2.2738,-2.2712,-2.2685,-2.2632,-2.2497,-2.2304,-2.2003,-2.1784,-2.1617,-2.1495,-2.1433,-2.1386,-2.1371,-2.134,-2.1309,-2.1294,-2.1294,-2.1198,-3.0449,-3.0509,-3.0519,-3.053,-3.052,-3.053,-3.054,-3.0559,-3.052,-3.052,-3.053,-3.0579,-3.054,-3.053,-3.0579,-3.0599,-3.0615,-3.0607,-3.061,-3.0607,-3.0606,-3.0632,-3.0665,-3.0683,-3.0711,-3.0704,-3.073,-3.0767,-3.0791,-3.0788,-3.0818,-3.0898,-3.0918,-3.0918,-3.0918,-3.0917,-3.0916,-3.0914,-3.0913,-3.0832,-3.0517,-2.9913,-2.9425,-2.8934,-2.7687,-2.6963,-2.6587,-2.6039,-2.5705,-2.5693,-2.5571,-2.5485,-2.543,-2.5293,-2.5209,-2.5206,-2.5206,-2.5214,-2.518,-2.518,-2.5156,-2.5101,-2.5101,-2.5076,-2.5082,-2.5082,-2.5089,-2.5057,-2.5025,-2.5025,-2.5044,-2.5031,-2.4999,-2.4999,-2.4931,-2.4894,-2.4817,-2.4783,-2.4734,-2.4692,-2.4676,-2.466,-2.4561,-2.4356,-2.4116,-2.3961,-2.3732,-2.3499,-2.343,-2.3407,-2.3401,-2.3378,-2.3354,-2.3289,-2.3217,-2.3119,-2.297,-2.2764,-2.2685,-2.2659,-2.2535,-2.2381,-2.213,-2.184,-2.1754,-2.1603,-2.1542,-2.1481,-2.1433,-2.1402,-2.1371,-2.134,-2.1325,-2.1277,-2.1087,-3.0439,-3.05,-3.053,-3.054,-3.053,-3.0559,-3.055,-3.0559,-3.052,-3.052,-3.053,-3.054,-3.055,-3.0549,-3.0583,-3.0614,-3.0606,-3.0639,-3.0625,-3.0616,-3.0606,-3.064,-3.0673,-3.0703,-3.069,-3.0697,-3.0709,-3.073,-3.0781,-3.0801,-3.0835,-3.0898,-3.0918,-3.0918,-3.0918,-3.0918,-3.0915,-3.0912,-3.0912,-3.0913,-3.0852,-3.0425,-2.9931,-2.9455,-2.8188,-2.729,-2.6542,-2.5943,-2.5691,-2.5676,-2.5591,-2.5531,-2.5492,-2.5321,-2.5222,-2.5209,-2.5209,-2.5198,-2.5206,-2.5206,-2.5184,-2.516,-2.513,-2.5137,-2.5132,-2.5132,-2.5151,-2.5095,-2.5063,-2.507,-2.507,-2.5057,-2.5025,-2.4993,-2.5012,-2.501,-2.4884,-2.4889,-2.4846,-2.4783,-2.4734,-2.4719,-2.4689,-2.4373,-2.4192,-2.4058,-2.3831,-2.3656,-2.3539,-2.3539,-2.3539,-2.3494,-2.3471,-2.3401,-2.3336,-2.3265,-2.3028,-2.2825,-2.2561,-2.2535,-2.2381,-2.2198,-2.2015,-2.1797,-2.1694,-2.1634,-2.1573,-2.1573,-2.1542,-2.1495,-2.1433,-2.1371,-2.1309,-2.1151,-2.0958,-3.0449,-3.052,-3.0588,-3.0617,-3.0598,-3.0598,-3.0559,-3.052,-3.052,-3.053,-3.0559,-3.053,-3.0559,-3.0613,-3.0591,-3.0603,-3.0632,-3.0664,-3.0665,-3.0637,-3.0604,-3.0621,-3.0673,-3.0695,-3.0703,-3.0697,-3.0709,-3.073,-3.0778,-3.0782,-3.0835,-3.0878,-3.0897,-3.0897,-3.0897,-3.0918,-3.0916,-3.0909,-3.0912,-3.0913,-3.0891,-3.0735,-3.0413,-2.9725,-2.8655,-2.7413,-2.6384,-2.5789,-2.5698,-2.5693,-2.5643,-2.5543,-2.5486,-2.5367,-2.5273,-2.5222,-2.5212,-2.5231,-2.5212,-2.5201,-2.5201,-2.5198,-2.5187,-2.5206,-2.5203,-2.5191,-2.5149,-2.5076,-2.5088,-2.5051,-2.5057,-2.507,-2.5082,-2.5051,-2.507,-2.5063,-2.5023,-2.4991,-2.495,-2.4861,-2.4827,-2.4798,-2.4673,-2.4442,-2.4192,-2.4174,-2.3899,-2.37,-2.3611,-2.3589,-2.3585,-2.3562,-2.3539,-2.3534,-2.3471,-2.3383,-2.3126,-2.2876,-2.249,-2.2298,-2.213,-2.1957,-2.1827,-2.1708,-2.1708,-2.1694,-2.1664,-2.1634,-2.1556,-2.1433,-2.123,-2.1261,-2.1261,-2.1007,-2.0795,-3.0479,-3.0569,-3.0569,-3.0617,-3.0617,-3.0617,-3.0598,-3.0588,-3.0588,-3.0559,-3.053,-3.0559,-3.0595,-3.0614,-3.06,-3.0626,-3.0678,-3.0672,-3.07,-3.0671,-3.0621,-3.0613,-3.0637,-3.0688,-3.0707,-3.0697,-3.0755,-3.0767,-3.0739,-3.0782,-3.0834,-3.0878,-3.0856,-3.0832,-3.0897,-3.0898,-3.0918,-3.0915,-3.0896,-3.087,-3.0841,-3.0801,-3.0651,-3.018,-2.895,-2.7735,-2.6774,-2.6026,-2.5715,-2.5679,-2.5589,-2.5504,-2.5467,-2.5365,-2.5303,-2.5273,-2.5262,-2.5252,-2.5203,-2.5212,-2.5212,-2.5201,-2.522,-2.5209,-2.5206,-2.5195,-2.5099,-2.5,-2.4953,-2.494,-2.4959,-2.5095,-2.5095,-2.5051,-2.5038,-2.5057,-2.5076,-2.5012,-2.4985,-2.4945,-2.495,-2.495,-2.4908,-2.4491,-2.4283,-2.4229,-2.4001,-2.3725,-2.3678,-2.3678,-2.3634,-2.3629,-2.3607,-2.3585,-2.3499,-2.3389,-2.3067,-2.279,-2.2419,-2.213,-2.1928,-2.1869,-2.1811,-2.1768,-2.1768,-2.1738,-2.1708,-2.1432,-2.1291,-2.1166,-2.1071,-2.0958,-2.0861,-2.0712,-2.0613,-3.049,-3.0598,-3.0617,-3.0617,-3.0617,-3.0617,-3.0617,-3.0617,-3.0617,-3.0577,-3.0565,-3.0582,-3.063,-3.0652,-3.0667,-3.0682,-3.0664,-3.0646,-3.0671,-3.0671,-3.0632,-3.0625,-3.0691,-3.0685,-3.0678,-3.0664,-3.0716,-3.0732,-3.0726,-3.0774,-3.082,-3.0839,-3.0818,-3.082,-3.0839,-3.0838,-3.0835,-3.0823,-3.0799,-3.0791,-3.0758,-3.0739,-3.0447,-2.998,-2.8846,-2.7733,-2.6864,-2.6091,-2.5742,-2.5616,-2.5566,-2.5511,-2.5499,-2.5401,-2.5341,-2.5312,-2.5303,-2.5293,-2.5253,-2.5243,-2.5243,-2.5252,-2.5252,-2.5212,-2.5179,-2.5145,-2.5063,-2.4942,-2.4861,-2.479,-2.4813,-2.487,-2.494,-2.4912,-2.4898,-2.4931,-2.4959,-2.4985,-2.4993,-2.4972,-2.4898,-2.4856,-2.47,-2.4491,-2.4283,-2.4174,-2.4001,-2.3747,-2.3761,-2.3721,-2.37,-2.3678,-2.3656,-2.3611,-2.3567,-2.333,-2.2958,-2.2625,-2.2292,-2.2056,-2.1857,-2.184,-2.184,-2.1811,-2.1797,-2.1797,-2.1691,-2.1368,-2.115,-2.115,-2.1039,-2.0745,-2.0545,-2.0496,-2.041,-3.0491,-3.0615,-3.0597,-3.0606,-3.0623,-3.0613,-3.0632,-3.0632,-3.0623,-3.0622,-3.062,-3.0614,-3.067,-3.0715,-3.0758,-3.0715,-3.0664,-3.0658,-3.0684,-3.0696,-3.067,-3.0675,-3.073,-3.0711,-3.0667,-3.0613,-3.0696,-3.0729,-3.0745,-3.0761,-3.0798,-3.0795,-3.08,-3.0799,-3.0786,-3.0786,-3.0786,-3.0762,-3.0747,-3.0715,-3.0682,-3.0682,-3.0339,-2.9791,-2.8941,-2.8037,-2.7195,-2.6439,-2.584,-2.56,-2.5529,-2.5525,-2.5468,-2.5421,-2.5388,-2.5313,-2.5322,-2.5332,-2.5313,-2.5303,-2.5293,-2.5292,-2.5292,-2.5271,-2.5179,-2.5099,-2.5,-2.4879,-2.4779,-2.467,-2.4657,-2.4719,-2.4704,-2.4673,-2.4692,-2.4723,-2.4794,-2.4898,-2.4926,-2.5012,-2.4959,-2.4884,-2.4719,-2.4491,-2.4301,-2.4116,-2.3939,-2.3813,-2.3807,-2.3786,-2.3747,-2.3682,-2.3638,-2.3412,-2.3319,-2.3253,-2.2875,-2.2573,-2.2209,-2.2027,-2.1857,-2.184,-2.1869,-2.184,-2.1811,-2.1811,-2.1754,-2.1575,-2.1404,-2.1294,-2.0926,-2.0563,-2.0361,-2.0277,-2.017,-3.0571,-3.0678,-3.0637,-3.0613,-3.0675,-3.0681,-3.0675,-3.0681,-3.0675,-3.0686,-3.0697,-3.0677,-3.0724,-3.0768,-3.0728,-3.0728,-3.0735,-3.0743,-3.0751,-3.0749,-3.072,-3.072,-3.0755,-3.0742,-3.0728,-3.0716,-3.0762,-3.0774,-3.0774,-3.08,-3.0797,-3.0797,-3.08,-3.0796,-3.078,-3.0796,-3.0791,-3.0763,-3.0726,-3.0686,-3.0689,-3.062,-3.0567,-3.0195,-2.9453,-2.8709,-2.7899,-2.7109,-2.6344,-2.5618,-2.5582,-2.5538,-2.5453,-2.5404,-2.5397,-2.5379,-2.5379,-2.5379,-2.5361,-2.5322,-2.5313,-2.5303,-2.5293,-2.5231,-2.5153,-2.505,-2.4907,-2.4719,-2.4594,-2.451,-2.4459,-2.4559,-2.4657,-2.4657,-2.4626,-2.4626,-2.4689,-2.4719,-2.4813,-2.4959,-2.4959,-2.4884,-2.4639,-2.4459,-2.4265,-2.4116,-2.3979,-2.3858,-2.3834,-2.3813,-2.3792,-2.3689,-2.3576,-2.3301,-2.3028,-2.2977,-2.2807,-2.2581,-2.2281,-2.2084,-2.1957,-2.1899,-2.1869,-2.1869,-2.1869,-2.1823,-2.1771,-2.1702,-2.1531,-2.1341,-2.0844,-2.0361,-2.0326,-2.0326,-1.9995,-3.0639,-3.0706,-3.0652,-3.067,-3.0706,-3.0696,-3.0696,-3.0711,-3.0696,-3.0728,-3.0742,-3.0749,-3.0784,-3.0834,-3.0834,-3.0813,-3.0788,-3.0757,-3.0757,-3.076,-3.076,-3.0782,-3.081,-3.0811,-3.0816,-3.0818,-3.084,-3.082,-3.08,-3.0797,-3.079,-3.079,-3.0793,-3.0784,-3.0758,-3.0778,-3.0763,-3.0755,-3.0697,-3.0652,-3.0644,-3.0607,-3.0623,-3.0402,-2.9873,-2.9206,-2.8648,-2.7414,-2.6675,-2.6158,-2.5757,-2.5534,-2.5464,-2.544,-2.5423,-2.5406,-2.5387,-2.5397,-2.5379,-2.5361,-2.5351,-2.5303,-2.5243,-2.519,-2.5087,-2.498,-2.4783,-2.4582,-2.4428,-2.4374,-2.4356,-2.4408,-2.4426,-2.4425,-2.4426,-2.4461,-2.4493,-2.4491,-2.4657,-2.4813,-2.4704,-2.4591,-2.4545,-2.4355,-2.4229,-2.4116,-2.3999,-2.3958,-2.3878,-2.3858,-2.3837,-2.3667,-2.3513,-2.3236,-2.2952,-2.2773,-2.2694,-2.2508,-2.2298,-2.213,-2.2015,-2.1957,-2.194,-2.194,-2.1911,-2.1911,-2.1831,-2.1793,-2.1577,-2.1357,-2.0974,-2.0613,-2.0478,-2.0308,-2.003,-3.072,-3.0754,-3.0701,-3.0715,-3.0735,-3.0742,-3.0742,-3.0739,-3.0746,-3.0782,-3.0814,-3.0816,-3.0859,-3.0898,-3.0897,-3.0859,-3.0799,-3.0747,-3.079,-3.0816,-3.0818,-3.0859,-3.0897,-3.0895,-3.0874,-3.0855,-3.0871,-3.0855,-3.0799,-3.0784,-3.0791,-3.0794,-3.0796,-3.0778,-3.0745,-3.0739,-3.0739,-3.0691,-3.0626,-3.0602,-3.0604,-3.0616,-3.0617,-3.0598,-2.9962,-2.9582,-2.9096,-2.8206,-2.7372,-2.6812,-2.6149,-2.558,-2.5622,-2.5561,-2.5476,-2.5412,-2.5393,-2.5395,-2.5379,-2.5322,-2.5264,-2.5212,-2.5126,-2.5068,-2.4968,-2.4794,-2.4615,-2.4447,-2.4358,-2.4339,-2.4303,-2.4266,-2.4266,-2.4229,-2.4247,-2.4229,-2.432,-2.4373,-2.4409,-2.4461,-2.4355,-2.4391,-2.4425,-2.4375,-2.4229,-2.4173,-2.4057,-2.3998,-2.3937,-2.3937,-2.3876,-2.3649,-2.345,-2.317,-2.291,-2.2588,-2.2525,-2.2415,-2.226,-2.2118,-2.2044,-2.1986,-2.2015,-2.2061,-2.2073,-2.2061,-2.1982,-2.188,-2.1744,-2.1497,-2.1135,-2.0925,-2.0844,-2.0496,-2.0154,-3.0758,-3.0868,-3.0768,-3.076,-3.0857,-3.0878,-3.0878,-3.0878,-3.0859,-3.0879,-3.0879,-3.0878,-3.0877,-3.0895,-3.0895,-3.0875,-3.0877,-3.0859,-3.0859,-3.0859,-3.0857,-3.0856,-3.0891,-3.0909,-3.0866,-3.0843,-3.0823,-3.0804,-3.0786,-3.0791,-3.0785,-3.0791,-3.0798,-3.0774,-3.074,-3.0745,-3.0709,-3.0678,-3.0634,-3.0604,-3.0616,-3.0598,-3.0617,-3.0559,-3.0414,-3.0074,-2.9495,-2.8902,-2.8507,-2.7744,-2.6365,-2.5959,-2.6276,-2.5851,-2.5569,-2.5456,-2.5429,-2.5395,-2.5332,-2.5253,-2.5171,-2.5103,-2.5006,-2.4874,-2.4779,-2.466,-2.4517,-2.4448,-2.4394,-2.4376,-2.4339,-2.4321,-2.4303,-2.4266,-2.4247,-2.4229,-2.4229,-2.4266,-2.4321,-2.4303,-2.4284,-2.4373,-2.4459,-2.4375,-2.4284,-2.421,-2.4115,-2.4037,-2.3978,-2.3937,-2.3774,-2.3518,-2.3289,-2.3042,-2.2807,-2.2525,-2.2415,-2.2349,-2.2265,-2.2135,-2.2106,-2.2077,-2.2123,-2.2168,-2.2209,-2.2163,-2.2065,-2.1965,-2.1906,-2.1694,-2.1417,-2.1309,-2.1246,-2.0795,-2.0326,-3.0816,-3.0891,-3.0847,-3.0852,-3.0898,-3.0918,-3.0917,-3.0917,-3.0916,-3.0914,-3.0912,-3.0911,-3.087,-3.0868,-3.087,-3.0889,-3.0868,-3.0849,-3.087,-3.087,-3.087,-3.0849,-3.0888,-3.0864,-3.0823,-3.0801,-3.0801,-3.0801,-3.0796,-3.0794,-3.0791,-3.0794,-3.0801,-3.079,-3.0754,-3.0769,-3.0755,-3.0722,-3.0678,-3.0649,-3.0616,-3.0617,-3.0617,-3.0617,-3.0617,-3.0346,-3.0037,-2.9476,-2.9205,-2.8489,-2.7263,-2.679,-2.6934,-2.6365,-2.5642,-2.609,-2.5685,-2.5455,-2.536,-2.5262,-2.5168,-2.5122,-2.4994,-2.4832,-2.4676,-2.4568,-2.45,-2.4465,-2.4483,-2.4447,-2.4393,-2.4375,-2.4358,-2.4339,-2.4284,-2.4266,-2.4229,-2.4192,-2.4229,-2.4209,-2.4209,-2.4321,-2.4392,-2.4321,-2.4266,-2.4209,-2.4171,-2.4133,-2.4016,-2.3896,-2.3667,-2.3335,-2.3116,-2.2859,-2.2659,-2.2405,-2.2405,-2.2321,-2.2338,-2.2209,-2.218,-2.2168,-2.2214,-2.2242,-2.2254,-2.2209,-2.2135,-2.2049,-2.1991,-2.1857,-2.1705,-2.1601,-2.1433,-2.099,-2.0478,-3.0823,-3.0866,-3.0892,-3.0915,-3.0917,-3.0918,-3.0917,-3.0916,-3.0914,-3.0911,-3.0907,-3.0886,-3.0845,-3.0821,-3.0845,-3.0864,-3.0801,-3.0801,-3.0823,-3.0843,-3.0843,-3.0823,-3.0845,-3.0823,-3.0801,-3.0801,-3.0801,-3.0801,-3.0799,-3.0796,-3.0796,-3.0799,-3.0785,-3.0798,-3.0794,-3.0782,-3.0784,-3.0767,-3.0697,-3.0657,-3.0616,-3.0616,-3.0607,-3.0598,-3.0617,-3.0617,-3.0501,-3.0075,-2.9669,-2.9399,-2.878,-2.8335,-2.8141,-2.7314,-2.6708,-2.6863,-2.6477,-2.6226,-2.5974,-2.5691,-2.5321,-2.5106,-2.4968,-2.4734,-2.4615,-2.4534,-2.45,-2.45,-2.45,-2.45,-2.4482,-2.4447,-2.4447,-2.4412,-2.4375,-2.4339,-2.4321,-2.4247,-2.421,-2.4191,-2.419,-2.419,-2.4247,-2.4228,-2.4209,-2.4209,-2.419,-2.419,-2.4074,-2.3917,-2.3628,-2.3312,-2.3084,-2.285,-2.2596,-2.2422,-2.2394,-2.2366,-2.2338,-2.231,-2.2254,-2.2254,-2.2254,-2.2282,-2.2299,-2.2254,-2.2209,-2.2135,-2.2061,-2.1928,-2.1811,-2.1721,-2.1509,-2.1071,-2.0545,-3.0801,-3.0801,-3.0871,-3.0915,-3.0917,-3.0918,-3.0917,-3.0916,-3.0912,-3.0889,-3.0886,-3.0845,-3.0801,-3.0801,-3.0801,-3.0821,-3.0801,-3.0801,-3.0801,-3.0801,-3.0801,-3.0801,-3.0801,-3.0801,-3.0801,-3.0801,-3.0801,-3.0801,-3.0801,-3.0799,-3.0799,-3.0799,-3.0788,-3.0801,-3.0794,-3.0786,-3.0755,-3.0736,-3.0683,-3.0637,-3.0604,-3.0615,-3.0604,-3.0616,-3.0607,-3.0617,-3.0617,-3.0424,-3.0318,-3.0318,-2.9989,-2.9593,-2.9081,-2.8348,-2.7902,-2.7676,-2.7355,-2.7139,-2.6955,-2.6187,-2.5354,-2.4969,-2.4888,-2.5017,-2.5047,-2.4683,-2.4555,-2.4778,-2.5,-2.4834,-2.4723,-2.4537,-2.4687,-2.465,-2.4596,-2.4394,-2.4339,-2.4266,-2.421,-2.421,-2.4191,-2.4209,-2.419,-2.419,-2.419,-2.419,-2.419,-2.419,-2.4132,-2.3955,-2.3671,-2.3364,-2.3157,-2.2876,-2.2596,-2.2487,-2.246,-2.2405,-2.2422,-2.2366,-2.231,-2.231,-2.2293,-2.2282,-2.2299,-2.2282,-2.2265,-2.2209,-2.2152,-2.2003,-2.1869,-2.1781,-2.137,-2.0812,-2.0326,-3.0801,-3.0801,-3.0868,-3.0911,-3.0913,-3.0917,-3.0918,-3.0916,-3.0913,-3.087,-3.0823,-3.0821,-3.0801,-3.0801,-3.0801,-3.0801,-3.0801,-3.0801,-3.0801,-3.0801,-3.0801,-3.0801,-3.0801,-3.0801,-3.0801,-3.0801,-3.0801,-3.0801,-3.0801,-3.0801,-3.0801,-3.0796,-3.0788,-3.0801,-3.0794,-3.0782,-3.075,-3.0709,-3.0691,-3.0664,-3.0661,-3.0653,-3.0661,-3.0673,-3.0613,-3.0604,-3.0615,-3.0607,-3.0559,-3.051,-3.0481,-3.0199,-2.9828,-2.9098,-2.8687,-2.8478,-2.8095,-2.7826,-2.7684,-2.702,-2.6622,-2.6488,-2.6346,-2.6122,-2.5974,-2.6001,-2.6022,-2.6078,-2.5911,-2.5745,-2.5949,-2.5578,-2.528,-2.5114,-2.4929,-2.4689,-2.4598,-2.4635,-2.4432,-2.4505,-2.4338,-2.419,-2.419,-2.419,-2.419,-2.419,-2.419,-2.419,-2.4113,-2.3996,-2.3692,-2.3477,-2.3259,-2.2977,-2.2685,-2.2605,-2.2542,-2.2487,-2.2477,-2.2422,-2.2394,-2.2366,-2.2349,-2.2338,-2.2282,-2.2282,-2.2282,-2.2271,-2.2197,-2.202,-2.1886,-2.1797,-2.1276,-2.0581,-2.0139,-3.0801,-3.0801,-3.0845,-3.0888,-3.0891,-3.0916,-3.0918,-3.0917,-3.0914,-3.0891,-3.0823,-3.0821,-3.0801,-3.0801,-3.0801,-3.0801,-3.0801,-3.0801,-3.0801,-3.0801,-3.0801,-3.0801,-3.0801,-3.0801,-3.0801,-3.0801,-3.0801,-3.0801,-3.0801,-3.0801,-3.0801,-3.0796,-3.0791,-3.0785,-3.0798,-3.0774,-3.0755,-3.0706,-3.0709,-3.0704,-3.0697,-3.0704,-3.0697,-3.069,-3.0642,-3.0645,-3.0645,-3.064,-3.0568,-3.0491,-3.0439,-3.0383,-3.0023,-2.9589,-2.9186,-2.8979,-2.8751,-2.8293,-2.8173,-2.7702,-2.7521,-2.7145,-2.7102,-2.7088,-2.7186,-2.7045,-2.6712,-2.6878,-2.6879,-2.6935,-2.6953,-2.634,-2.6061,-2.5968,-2.5783,-2.556,-2.5504,-2.5466,-2.5077,-2.4836,-2.4669,-2.4538,-2.419,-2.419,-2.419,-2.419,-2.419,-2.419,-2.4151,-2.3996,-2.3774,-2.3562,-2.3382,-2.3091,-2.2825,-2.2799,-2.2764,-2.2569,-2.2515,-2.2487,-2.246,-2.2432,-2.2405,-2.2349,-2.2338,-2.2282,-2.218,-2.2065,-2.2036,-2.2007,-2.1738,-2.1324,-2.0991,-2.0326,-2.005,-3.0801,-3.0801,-3.0801,-3.0847,-3.0914,-3.0918,-3.0918,-3.0917,-3.0914,-3.0891,-3.0866,-3.0823,-3.0801,-3.0801,-3.0801,-3.0801,-3.0801,-3.0801,-3.0801,-3.0801,-3.0801,-3.0801,-3.0801,-3.0801,-3.0801,-3.0801,-3.0801,-3.0801,-3.0801,-3.0801,-3.0801,-3.0799,-3.0794,-3.0791,-3.0788,-3.0735,-3.0711,-3.0706,-3.0714,-3.071,-3.0717,-3.071,-3.0724,-3.0711,-3.0664,-3.0668,-3.0661,-3.0629,-3.054,-3.0449,-3.0428,-3.0359,-3.0171,-3.0018,-2.9846,-2.9832,-2.9779,-2.9696,-2.968,-2.8332,-2.7796,-2.77,-2.7819,-2.7672,-2.7305,-2.7158,-2.7308,-2.7717,-2.7401,-2.7176,-2.7046,-2.6916,-2.6897,-2.6786,-2.658,-2.6283,-2.6188,-2.6131,-2.5723,-2.5369,-2.5276,-2.5089,-2.4538,-2.419,-2.419,-2.419,-2.419,-2.419,-2.417,-2.4074,-2.3876,-2.371,-2.3518,-2.3259,-2.3052,-2.3052,-2.297,-2.2738,-2.2579,-2.2569,-2.2515,-2.246,-2.2432,-2.2377,-2.2248,-2.2106,-2.1945,-2.1781,-2.1708,-2.1526,-2.1007,-2.0597,-2.0342,-2.017,-1.9925,-3.0801,-3.0801,-3.0845,-3.0889,-3.0895,-3.0915,-3.0917,-3.0918,-3.0895,-3.0868,-3.0843,-3.0801,-3.0801,-3.0801,-3.0801,-3.0801,-3.0801,-3.0801,-3.0801,-3.0801,-3.0801,-3.0801,-3.0801,-3.0801,-3.0801,-3.0801,-3.0801,-3.0801,-3.0801,-3.0801,-3.0801,-3.0799,-3.0799,-3.0796,-3.0788,-3.0767,-3.0774,-3.0778,-3.0765,-3.0764,-3.0759,-3.0759,-3.0759,-3.0761,-3.0664,-3.0634,-3.0626,-3.0576,-3.0481,-3.0352,-3.0348,-3.0279,-3.0138,-3.0019,-2.9969,-2.9988,-2.9905,-2.9924,-2.9869,-2.9282,-2.9099,-2.8902,-2.8757,-2.8702,-2.8835,-2.869,-2.8727,-2.8652,-2.8426,-2.8386,-2.8589,-2.7974,-2.7733,-2.7529,-2.7268,-2.6783,-2.6577,-2.6556,-2.6368,-2.6068,-2.586,-2.5181,-2.4593,-2.4245,-2.419,-2.419,-2.419,-2.419,-2.419,-2.4151,-2.4036,-2.3855,-2.3667,-2.344,-2.3271,-2.3151,-2.2995,-2.2738,-2.2632,-2.2649,-2.2579,-2.2497,-2.2388,-2.2349,-2.2135,-2.1915,-2.1691,-2.1448,-2.1198,-2.0925,-2.0613,-2.041,-2.0342,-2.0135,-1.9869,-3.0801,-3.0801,-3.0866,-3.0911,-3.0913,-3.0914,-3.0917,-3.0918,-3.0914,-3.087,-3.0847,-3.0804,-3.0801,-3.0801,-3.0801,-3.0801,-3.0801,-3.0801,-3.0801,-3.0801,-3.0801,-3.0801,-3.0801,-3.0801,-3.0801,-3.0801,-3.0801,-3.0801,-3.0801,-3.0801,-3.0801,-3.0801,-3.0801,-3.0799,-3.0794,-3.0785,-3.0794,-3.079,-3.0778,-3.0769,-3.0734,-3.0703,-3.0697,-3.0678,-3.0614,-3.0565,-3.0539,-3.0472,-3.0352,-3.0267,-3.0188,-3.0157,-3.0034,-2.9956,-2.9924,-2.9907,-2.9907,-2.9907,-2.9869,-2.9851,-2.9666,-2.9638,-2.9789,-2.9789,-2.9754,-2.942,-2.9458,-2.9476,-2.9509,-2.9411,-2.9221,-2.8589,-2.8496,-2.8292,-2.8103,-2.7635,-2.7576,-2.759,-2.7345,-2.6985,-2.6578,-2.5733,-2.476,-2.441,-2.419,-2.419,-2.419,-2.419,-2.419,-2.4151,-2.4094,-2.3917,-2.3732,-2.3491,-2.3301,-2.3126,-2.297,-2.2738,-2.2685,-2.2676,-2.2623,-2.2497,-2.2388,-2.2248,-2.2003,-2.1721,-2.1386,-2.1103,-2.086,-2.0695,-2.0512,-2.0376,-2.0342,-2.0065,-1.9762,-3.0801,-3.0821,-3.0886,-3.0911,-3.0914,-3.0916,-3.0917,-3.0918,-3.0916,-3.0894,-3.0913,-3.0825,-3.0801,-3.0801,-3.0801,-3.0801,-3.0801,-3.0801,-3.0801,-3.0801,-3.0801,-3.0801,-3.0801,-3.0801,-3.0801,-3.0801,-3.0801,-3.0801,-3.0801,-3.0801,-3.0801,-3.0801,-3.0801,-3.0799,-3.0796,-3.0788,-3.0778,-3.0767,-3.0774,-3.0734,-3.0659,-3.062,-3.0591,-3.0543,-3.0491,-3.0482,-3.0462,-3.0432,-3.0386,-3.0297,-3.0203,-3.0114,-3.003,-2.994,-2.9924,-2.9907,-2.9907,-2.9907,-2.9907,-2.9907,-2.9891,-2.9823,-2.9806,-2.9789,-2.9718,-2.9608,-2.9589,-2.9569,-2.949,-2.9429,-2.9277,-2.9258,-2.9221,-2.9145,-2.9122,-2.8968,-2.8926,-2.875,-2.843,-2.8092,-2.7721,-2.6875,-2.5478,-2.4871,-2.4467,-2.419,-2.419,-2.419,-2.4171,-2.4094,-2.4016,-2.3858,-2.3689,-2.3535,-2.3348,-2.3126,-2.297,-2.2738,-2.2712,-2.2703,-2.2623,-2.2497,-2.2287,-2.2089,-2.184,-2.154,-2.1039,-2.0679,-2.046,-2.0323,-2.0392,-2.0204,-2.0135,-1.9874,-1.9566,-3.0801,-3.0801,-3.087,-3.0913,-3.0914,-3.0917,-3.0918,-3.0917,-3.0916,-3.0914,-3.0889,-3.0868,-3.0843,-3.0801,-3.0801,-3.0801,-3.0801,-3.0801,-3.0801,-3.0801,-3.0801,-3.0801,-3.0801,-3.0801,-3.0801,-3.0801,-3.0801,-3.0801,-3.0801,-3.0801,-3.0801,-3.0801,-3.0796,-3.0799,-3.0771,-3.0758,-3.0739,-3.0721,-3.0745,-3.0678,-3.0603,-3.0552,-3.0518,-3.0462,-3.0402,-3.04,-3.0359,-3.0321,-3.0286,-3.0234,-3.0161,-3.0075,-3.0083,-3.0007,-2.9975,-2.9907,-2.9907,-2.9907,-2.9907,-2.9907,-2.9891,-2.9857,-2.9857,-2.9789,-2.97,-2.9608,-2.955,-2.9511,-2.949,-2.9409,-2.9388,-2.9388,-2.9388,-2.9368,-2.9347,-2.9304,-2.9262,-2.9144,-2.8861,-2.8691,-2.8338,-2.7414,-2.6051,-2.5335,-2.4929,-2.4468,-2.4191,-2.4191,-2.4134,-2.4056,-2.3937,-2.3795,-2.358,-2.3376,-2.3253,-2.307,-2.2919,-2.279,-2.2755,-2.2659,-2.2579,-2.2426,-2.2186,-2.1853,-2.1493,-2.1023,-2.0561,-2.0339,-2.0304,-2.0304,-2.0304,-2.0115,-1.9889,-1.9675,-1.9457,-3.0801,-3.0823,-3.0871,-3.0915,-3.0917,-3.0918,-3.0918,-3.0917,-3.0916,-3.0913,-3.0891,-3.0866,-3.0843,-3.0801,-3.0801,-3.0801,-3.0801,-3.0801,-3.0801,-3.0801,-3.0801,-3.0801,-3.0801,-3.0801,-3.0801,-3.0801,-3.0799,-3.0801,-3.078,-3.0799,-3.0801,-3.0799,-3.0794,-3.0765,-3.0735,-3.0682,-3.0639,-3.0633,-3.0632,-3.0595,-3.0535,-3.0482,-3.0463,-3.0413,-3.0333,-3.0297,-3.026,-3.0221,-3.0213,-3.0204,-3.0123,-3.0094,-3.0083,-3.0038,-2.9972,-2.9924,-2.9907,-2.9907,-2.9907,-2.9907,-2.9891,-2.9857,-2.9841,-2.9755,-2.9682,-2.9589,-2.955,-2.9492,-2.9431,-2.9388,-2.9388,-2.9388,-2.9388,-2.9388,-2.9368,-2.9365,-2.9344,-2.9302,-2.9188,-2.9034,-2.8458,-2.7643,-2.6776,-2.6057,-2.5411,-2.4948,-2.4505,-2.4191,-2.4114,-2.3958,-2.3837,-2.3714,-2.3468,-2.323,-2.3102,-2.302,-2.2868,-2.2764,-2.2738,-2.2659,-2.2552,-2.2343,-2.2044,-2.1568,-2.1007,-2.0646,-2.0373,-2.0339,-2.0304,-2.0304,-2.027,-2.0115,-1.9889,-1.9639,-1.9398,-3.0801,-3.0804,-3.0891,-3.0917,-3.0918,-3.0918,-3.0918,-3.0917,-3.0914,-3.0913,-3.0892,-3.0825,-3.0801,-3.0801,-3.0801,-3.0801,-3.0801,-3.0801,-3.0801,-3.0801,-3.0801,-3.0801,-3.0801,-3.0801,-3.0777,-3.0777,-3.0774,-3.0765,-3.0768,-3.0762,-3.0739,-3.0771,-3.0724,-3.0701,-3.0697,-3.062,-3.0564,-3.0543,-3.0546,-3.0519,-3.0452,-3.0381,-3.0348,-3.0323,-3.0305,-3.026,-3.0234,-3.0207,-3.0213,-3.0166,-3.0138,-3.0109,-3.0079,-3.0053,-2.9972,-2.994,-2.9924,-2.9907,-2.9907,-2.9907,-2.9874,-2.9825,-2.9756,-2.9683,-2.9608,-2.9569,-2.9511,-2.9471,-2.9409,-2.9388,-2.9388,-2.9388,-2.9388,-2.9388,-2.9368,-2.9368,-2.9347,-2.9344,-2.9286,-2.9153,-2.8855,-2.8077,-2.7483,-2.6725,-2.578,-2.5392,-2.4763,-2.4265,-2.4037,-2.3896,-2.3753,-2.3606,-2.3376,-2.3151,-2.3045,-2.2919,-2.279,-2.2712,-2.2685,-2.2535,-2.2326,-2.213,-2.1928,-2.1323,-2.073,-2.0561,-2.0339,-2.0304,-2.0304,-2.0304,-2.027,-2.015,-1.9925,-1.9654,-1.9369,-3.0823,-3.0888,-3.0895,-3.0917,-3.0918,-3.0918,-3.0918,-3.0917,-3.0914,-3.0912,-3.0909,-3.0866,-3.0845,-3.0801,-3.0801,-3.0801,-3.0801,-3.0801,-3.0801,-3.0801,-3.0801,-3.0777,-3.078,-3.0777,-3.0749,-3.0732,-3.072,-3.0711,-3.0691,-3.0675,-3.065,-3.0664,-3.062,-3.062,-3.0633,-3.056,-3.0491,-3.0482,-3.0462,-3.046,-3.0417,-3.0352,-3.0316,-3.0299,-3.0286,-3.0292,-3.0266,-3.0221,-3.0221,-3.0194,-3.0185,-3.0138,-3.009,-3.0034,-2.9988,-2.9972,-2.994,-2.9924,-2.9907,-2.9907,-2.9857,-2.9806,-2.9755,-2.9664,-2.9569,-2.951,-2.9468,-2.9429,-2.9409,-2.9388,-2.9388,-2.9388,-2.9388,-2.9388,-2.9388,-2.9368,-2.9347,-2.9347,-2.9365,-2.9254,-2.9105,-2.8656,-2.8079,-2.728,-2.6354,-2.5502,-2.4652,-2.4096,-2.3937,-2.3753,-2.3682,-2.3531,-2.3301,-2.3095,-2.2995,-2.2919,-2.2816,-2.2668,-2.2615,-2.2381,-2.2141,-2.1823,-2.154,-2.0991,-2.0512,-2.0426,-2.0373,-2.0304,-2.0304,-2.0304,-2.027,-2.0185,-2.001,-1.9762,-1.9464,-3.0823,-3.0907,-3.0914,-3.0917,-3.0918,-3.0918,-3.0918,-3.0917,-3.0914,-3.0912,-3.0907,-3.0866,-3.0843,-3.0801,-3.0801,-3.0801,-3.0801,-3.0801,-3.0801,-3.0801,-3.0777,-3.0771,-3.0768,-3.0742,-3.0691,-3.0667,-3.0656,-3.0633,-3.0605,-3.062,-3.062,-3.0605,-3.0591,-3.0552,-3.0563,-3.0492,-3.0451,-3.046,-3.0414,-3.039,-3.0398,-3.0367,-3.0348,-3.0355,-3.0343,-3.033,-3.0305,-3.026,-3.0234,-3.0207,-3.0199,-3.0157,-3.0113,-3.0068,-3.0022,-2.9956,-2.9924,-2.9907,-2.9907,-2.9891,-2.9839,-2.9789,-2.9771,-2.9682,-2.9511,-2.945,-2.9468,-2.9429,-2.9409,-2.9388,-2.9388,-2.9388,-2.9388,-2.9388,-2.9388,-2.9368,-2.9368,-2.9368,-2.9368,-2.9349,-2.9235,-2.9079,-2.8482,-2.7883,-2.6956,-2.6043,-2.512,-2.418,-2.3922,-2.3685,-2.3594,-2.3476,-2.3289,-2.3193,-2.3168,-2.3045,-2.2919,-2.2747,-2.2561,-2.2271,-2.1969,-2.157,-2.1151,-2.086,-2.0662,-2.0561,-2.0509,-2.0407,-2.0339,-2.0304,-2.0304,-2.027,-2.0061,-1.9833,-1.9485,-3.0845,-3.0891,-3.0915,-3.0918,-3.0918,-3.0918,-3.0918,-3.0917,-3.0914,-3.0912,-3.0909,-3.0845,-3.0801,-3.0801,-3.0801,-3.0801,-3.0801,-3.0801,-3.0801,-3.0774,-3.0771,-3.0732,-3.0691,-3.0677,-3.0639,-3.0593,-3.0583,-3.0576,-3.0552,-3.0552,-3.0535,-3.056,-3.0537,-3.0492,-3.0462,-3.0409,-3.0371,-3.0383,-3.0379,-3.0398,-3.0398,-3.0398,-3.0398,-3.0398,-3.0398,-3.0367,-3.0323,-3.0286,-3.0247,-3.024,-3.0199,-3.0171,-3.0128,-3.0102,-3.0057,-2.9991,-2.9924,-2.9924,-2.9907,-2.9907,-2.9823,-2.9773,-2.979,-2.9701,-2.9511,-2.945,-2.947,-2.945,-2.9409,-2.9388,-2.9388,-2.9388,-2.9388,-2.9388,-2.9388,-2.9388,-2.9388,-2.9388,-2.9388,-2.9388,-2.9347,-2.9265,-2.8824,-2.8261,-2.7435,-2.6538,-2.5645,-2.4741,-2.4017,-2.375,-2.3549,-2.3499,-2.336,-2.3313,-2.3289,-2.3193,-2.307,-2.2703,-2.2446,-2.2141,-2.1823,-2.1464,-2.123,-2.1103,-2.0941,-2.0761,-2.0628,-2.0527,-2.0441,-2.0373,-2.0185,-2.0115,-1.9975,-1.9711,-1.9449,-3.0891,-3.0915,-3.0918,-3.0918,-3.0918,-3.0918,-3.0918,-3.0917,-3.0915,-3.0913,-3.0912,-3.0888,-3.0845,-3.0801,-3.0801,-3.078,-3.0777,-3.0777,-3.0742,-3.0724,-3.0724,-3.0672,-3.0626,-3.06,-3.0564,-3.0527,-3.0492,-3.0449,-3.0482,-3.0422,-3.0409,-3.0449,-3.0394,-3.0379,-3.0414,-3.0367,-3.0336,-3.0336,-3.0367,-3.0386,-3.0367,-3.0367,-3.0398,-3.0398,-3.0398,-3.0367,-3.0323,-3.0305,-3.0266,-3.024,-3.0199,-3.019,-3.0161,-3.0117,-3.0072,-3.0007,-2.9921,-2.9905,-2.9907,-2.9907,-2.9823,-2.979,-2.979,-2.9773,-2.9626,-2.9531,-2.9511,-2.9471,-2.9451,-2.9409,-2.9409,-2.9388,-2.9388,-2.9409,-2.9409,-2.9409,-2.9409,-2.9388,-2.9407,-2.9386,-2.9365,-2.92,-2.8993,-2.8297,-2.747,-2.655,-2.5651,-2.4766,-2.4011,-2.3768,-2.3526,-2.3476,-2.3407,-2.3378,-2.333,-2.3336,-2.3175,-2.2764,-2.232,-2.1953,-2.1645,-2.1433,-2.123,-2.1167,-2.1103,-2.0974,-2.0827,-2.0695,-2.0561,-2.046,-2.005,-1.9874,-1.9767,-1.9566,-1.9281]},{"header":{"parameterUnit":"m.s-1","parameterCategory":1,"la1":31.0,"la2":29.5877,"lo1":-88.7671,"lo2":-86.6584,"dy":0.0162,"dx":0.0185,"nx":115,"ny":88,"refTime":"2023-07-22T18:00:00:Z","depth":0,"parameterNumber":3,"parameterNumberName":"V-component_of_WINDS"},"data":[0.0,0.0,0.0,0.0,0.0,0.0,0.0,0.0,0.0,0.0,0.0,0.0,0.0,0.0,0.0,0.0,0.0,0.0,0.0,0.0,0.0,0.0,0.0,0.0,0.0,0.0,0.0,0.0,0.0,0.0,0.0,0.0,0.0,0.0,0.0,0.0,0.0,0.0,0.0,0.0,0.0,0.0,0.0,0.0,0.0,0.0,0.0,0.0,0.0,0.0,0.0,0.0,0.0,0.0,0.0,0.0,0.0,0.0,0.0,0.0,0.0,0.0,0.0,0.0,0.0,0.0,0.0,0.0,0.0,0.0,0.0,0.0,0.0,0.0,0.0,0.0,0.0,0.0,0.0,0.0,0.0,0.0,0.0,0.0,0.0,0.0,0.0,0.0,0.0,0.0,0.0,0.0,0.0,0.0,0.0,0.0,0.0,0.0,0.0,0.0,0.0,0.0,0.0,0.0,0.0,0.0,0.0,0.0,0.0,0.0,0.0,0.0,0.0,0.0,0.0,0.0,0.0,0.0,0.0,0.0,0.0,0.0,0.0,0.0,0.0,0.0,0.0,0.0,0.0,0.0,0.0,0.0,0.0,0.0,0.0,0.0,0.0,0.0,0.0,0.0,0.0,0.0,0.0,0.0,0.0,0.0,0.0,0.0,0.0,0.0,0.0,0.0,0.0,0.0,0.0,0.0,0.0,0.0,0.0,0.0,0.0,0.0,0.0,0.0,0.0,0.0,0.0,0.0,0.0,0.0,0.0,0.0,0.0,0.0,0.0,0.0,0.0,0.0,0.0,0.0,0.0,0.0,0.0,0.0,0.0,0.0,0.0,0.0,0.0,0.0,0.0,0.0,0.0,0.0,0.0,0.0,0.0,0.0,0.0,0.0,0.0,0.0,0.0,0.0,0.0,0.0,0.0,0.0,0.0,0.0,0.0,0.0,0.0,0.0,0.0,0.0,0.0,0.0,0.0,0.0,0.0,0.0,0.0,0.0,0.0,0.0,0.0,0.0,0.0,0.0,0.0,0.0,0.0,0.0,0.0,0.0,0.0,0.0,0.0,0.0,0.0,0.0,0.0,0.0,0.0,0.0,0.0,0.0,0.0,0.0,0.0,0.0,0.0,0.0,0.0,0.0,0.0,0.0,0.0,0.0,0.0,0.0,0.0,0.0,0.0,0.0,0.0,0.0,0.0,0.0,0.0,0.0,0.0,0.0,0.0,0.0,0.0,0.0,0.0,0.0,0.0,0.0,0.0,0.0,0.0,0.0,0.0,0.0,0.0,0.0,0.0,0.0,0.0,0.0,0.0,0.0,0.0,0.0,0.0,0.0,0.0,0.0,0.0,0.0,0.0,0.0,0.0,0.0,0.0,0.0,0.0,0.0,0.0,0.0,0.0,0.0,0.0,0.0,0.0,0.0,0.0,0.0,0.0,0.0,0.0,0.0,0.0,0.0,0.0,0.0,0.0,0.0,0.0,0.0,0.0,0.0,0.0,0.0,0.0,0.0,0.0,0.0,0.0,0.0,0.0,0.0,0.0,0.0,0.0,0.0,0.0,0.0,0.0,0.0,0.0,0.0,0.0,0.0,0.0,0.0,0.0,0.0,0.0,0.0,0.0,0.0,0.0,0.0,0.0,0.0,0.0,0.0,0.0,0.0,0.0,0.0,0.0,0.0,0.0,0.0,0.0,0.0,0.0,0.0,0.0,0.0,0.0,0.0,0.0,0.0,0.0,0.0,0.0,0.0,0.0,0.0,0.0,0.0,0.0,0.0,0.0,0.0,0.0,0.0,0.0,0.0,0.0,0.0,0.0,0.0,0.0,0.0,0.0,0.0,0.0,0.0,0.0,0.0,0.0,0.0,0.0,0.0,0.0,0.0,0.0,0.0,0.0,0.0,0.0,0.0,0.0,0.0,0.0,0.0,0.0,0.0,0.0,0.0,0.0,0.0,0.0,0.0,0.0,0.0,0.0,0.0,0.0,0.0,0.0,0.0,0.0,0.0,0.0,0.0,0.0,0.0,0.0,0.0,0.0,0.0,0.0,0.0,0.0,0.0,0.0,0.0,0.0,0.0,0.0,0.0,0.0,0.0,0.0,0.0,0.0,0.0,0.0,0.0,0.0,0.0,0.0,0.0,0.0,0.0,0.0,0.0,0.0,0.0,0.0,0.0,0.0,0.0,0.0,0.0,0.0,0.0,0.0,0.0,0.0,0.0,0.0,0.0,0.0,0.0,0.0,0.0,0.0,0.0,0.0,0.0,0.0,0.0,0.0,0.0,0.0,0.0,0.0,0.0,0.0,0.0,0.0,0.0,0.0,0.0,0.0,0.0,0.0,0.0,0.0,0.0,0.0,0.0,0.0,0.0,0.0,0.0,0.0,0.0,0.0,0.0,0.0,0.0,0.0,0.0,0.0,0.0,0.0,0.0,0.0,0.0,0.0,0.0,0.0,0.0,0.0,0.0,0.0,0.0,0.0,0.0,0.0,0.0,0.0,0.0,0.0,0.0,0.0,0.0,0.0,0.0,0.0,0.0,0.0,0.0,0.0,0.0,0.0,0.0,0.0,0.0,0.0,0.0,0.0,0.0,0.0,0.0,0.0,0.0,0.0,0.0,0.0,0.0,0.0,0.0,0.0,0.0,0.0,0.0,0.0,0.0,0.0,0.0,0.0,0.0,0.0,0.0,0.0,0.0,0.0,0.0,0.0,0.0,0.0,0.0,0.0,0.0,0.0,0.0,0.0,0.0,0.0,0.0,0.0,0.0,0.0,0.0,0.0,0.0,0.0,0.0,0.0,0.0,0.0,0.0,0.0,0.0,0.0,0.0,0.0,0.0,0.0,0.0,0.0,0.0,0.0,0.0,0.0,0.0,0.0,0.0,0.0,0.0,0.0,0.0,0.0,0.0,0.0,0.0,0.0,0.0,0.0,0.0,0.0,0.0,0.0,0.0,0.0,0.0,0.0,0.0,0.0,0.0,0.0,0.0,0.0,0.0,0.0,0.0,0.0,0.0,0.0,0.0,0.0,0.0,0.0,0.0,0.0,0.0,0.0,0.0,0.0,0.0,0.0,0.0,0.0,0.0,0.0,0.0,0.0,0.0,0.0,0.0,0.0,0.0,0.0,0.0,0.0,0.0,0.0,0.0,0.0,0.0,0.0,0.0,0.0,0.0,0.0,0.0,0.0,0.0,0.0,0.0,0.0,0.0,0.0,0.0,0.0,0.0,0.0,0.0,0.0,0.0,0.0,0.0,0.0,0.0,0.0,0.0,0.0,0.0,0.0,0.0,0.0,0.0,0.0,0.0,0.0,0.0,0.0,0.0,0.0,0.0,0.0,0.0,0.0,0.0,0.0,0.0,0.0,0.0,0.0,0.0,0.0,0.0,0.0,0.0,0.0,0.0,0.0,0.0,0.0,0.0,0.0,0.0,0.0,0.0,0.0,0.0,0.0,0.0,0.0,0.0,0.0,0.0,0.0,0.0,0.0,0.0,0.0,0.0,0.0,0.0,0.0,0.0,0.0,0.0,0.0,0.0,0.0,0.0,0.0,0.0,0.0,0.0,0.0,0.0,0.0,0.0,0.0,0.0,0.0,0.0,0.0,0.0,0.0,0.0,0.0,0.0,0.0,0.0,0.0,0.0,0.0,0.0,0.0,0.0,0.0,0.0,0.0,0.0,0.0,0.0,0.0,0.0,0.0,0.0,0.0,0.0,0.0,0.0,0.0,0.0,0.0,0.0,0.0,0.0,0.0,0.0,0.0,0.0,0.0,0.0,0.0,0.0,0.0,0.0,0.0,0.0,0.0,0.0,0.0,0.0,0.0,0.0,0.0,0.0,0.0,0.0,0.0,0.0,0.0,0.0,0.0,0.0,0.0,0.0,0.0,0.0,0.0,0.0,0.0,0.0,0.0,0.0,0.0,0.0,0.0,0.0,0.0,0.0,0.0,0.0,0.0,0.0,0.0,0.0,0.0,0.0,0.0,0.0,0.0,0.0,0.0,0.0,0.0,0.0,0.0,0.0,0.0,0.0,0.0,0.0,0.0,0.0,0.0,0.0,0.0,0.0,0.0,0.0,0.0,0.0,0.0,0.0,0.0,0.0,0.0,0.0,0.0,0.0,0.0,0.0,0.0,0.0,0.0,0.0,0.0,0.0,0.0,0.0,0.0,0.0,0.0,0.0,0.0,0.0,0.0,0.0,0.0,0.0,0.0,0.0,0.0,0.0,0.0,0.0,0.0,0.0,0.0,0.0,0.0,0.0,0.0,0.0,0.0,0.0,1.4173,0.0,0.0,0.0,0.0,0.0,0.0,0.0,0.0,0.0,0.0,0.0,0.0,0.0,0.0,0.0,0.0,0.0,0.0,0.0,0.0,0.0,0.0,0.0,0.0,0.0,0.0,0.0,0.0,0.0,0.0,0.0,0.0,0.0,0.0,0.0,0.0,0.0,0.0,0.0,0.0,0.0,0.0,0.0,0.0,0.0,0.0,0.0,0.0,0.0,0.0,0.0,0.0,0.0,0.0,0.0,0.0,0.0,0.0,0.0,0.0,0.0,0.0,0.0,0.0,0.0,0.0,0.0,0.0,0.0,0.0,0.0,0.0,0.0,0.0,0.0,0.0,0.0,0.0,0.0,0.0,0.0,0.0,0.0,0.0,0.0,0.0,0.0,0.0,0.0,0.0,0.0,0.0,0.0,0.0,0.0,0.0,0.0,0.0,0.0,0.0,0.0,0.0,0.0,0.0,0.0,0.0,0.0,0.0,0.0,0.0,1.4522,1.4551,1.4183,1.3933,1.3782,0.0,0.0,0.0,0.0,0.0,0.0,0.0,0.0,0.0,0.0,0.0,0.0,0.0,0.0,0.0,0.0,0.0,0.0,0.0,0.0,0.0,0.0,0.0,0.0,0.0,0.0,0.0,0.0,0.0,0.0,0.0,0.0,0.0,0.0,0.0,0.0,0.0,0.0,0.0,0.0,0.0,0.0,0.0,0.0,0.0,0.0,0.0,0.0,0.0,0.0,0.0,0.0,0.0,0.0,0.0,0.0,0.0,0.0,0.0,0.0,0.0,0.0,0.0,0.0,0.0,0.0,0.0,0.0,0.0,0.0,0.0,0.0,0.0,0.0,0.0,0.0,0.0,0.0,0.0,0.0,0.0,0.0,0.0,0.0,0.0,0.0,0.0,0.0,0.0,0.0,0.0,0.0,0.0,0.0,0.0,0.0,0.0,0.0,0.0,0.0,0.0,0.0,0.0,0.0,0.0,0.0,0.0,0.0,0.0,0.0,0.0,0.0,1.4041,1.3746,1.3511,0.0,0.0,0.0,0.0,0.0,0.0,0.0,0.0,0.0,0.0,0.0,0.0,0.0,0.0,0.0,0.0,0.0,0.0,0.0,0.0,0.0,0.0,0.0,0.0,0.0,0.0,0.0,0.0,0.0,0.0,0.0,0.0,0.0,0.0,0.0,0.0,0.0,0.0,0.0,0.0,0.0,0.0,0.0,0.0,0.0,0.0,0.0,0.0,0.0,0.0,0.0,0.0,0.0,0.0,0.0,0.0,0.0,0.0,0.0,0.0,0.0,0.0,0.0,0.0,0.0,0.0,0.0,0.0,0.0,0.0,0.0,0.0,0.0,0.0,0.0,0.0,0.0,0.0,0.0,0.0,0.0,0.0,0.0,0.0,0.0,0.0,0.0,0.0,0.0,0.0,0.0,0.0,0.0,0.0,0.0,0.0,0.0,0.0,0.0,0.0,0.0,0.0,0.0,0.0,0.0,0.0,0.0,0.0,0.0,0.0,1.3992,1.4023,1.3654,0.0,1.348,0.0,0.0,0.0,0.0,0.0,0.0,0.0,0.0,0.0,0.0,0.0,0.0,0.0,0.0,0.0,0.0,0.0,0.0,0.0,0.0,0.0,0.0,0.0,0.0,0.0,0.0,0.0,0.0,0.0,0.0,0.0,0.0,0.0,0.0,0.0,0.0,0.0,0.0,0.0,0.0,0.0,0.0,0.0,0.0,0.0,0.0,0.0,0.0,0.0,0.0,0.0,0.0,0.0,0.0,0.0,0.0,0.0,0.0,0.0,0.0,0.0,0.0,0.0,0.0,0.0,0.0,0.0,0.0,0.0,0.0,0.0,0.0,0.0,0.0,0.0,0.0,0.0,0.0,0.0,0.0,0.0,0.0,0.0,0.0,0.0,0.0,0.0,0.0,0.0,0.0,0.0,0.0,0.0,0.0,0.0,0.0,0.0,0.0,0.0,0.0,0.0,0.0,0.0,0.0,0.0,0.0,0.0,0.0,0.0,0.0,1.3705,1.3923,1.3403,1.3194,0.0,0.0,0.0,0.0,0.0,0.0,0.0,0.0,0.0,0.0,0.0,0.0,0.0,0.0,0.0,0.0,0.0,0.0,0.0,0.0,0.0,0.0,0.0,0.0,0.0,0.0,0.0,0.0,0.0,0.0,0.0,0.0,0.0,0.0,0.0,0.0,0.0,0.0,0.0,0.0,0.0,0.0,0.0,0.0,0.0,0.0,0.0,0.0,0.0,0.0,0.0,0.0,0.0,0.0,0.0,0.0,0.0,0.0,0.0,0.0,0.0,0.0,0.0,0.0,0.0,0.0,0.0,0.0,0.0,0.0,0.0,0.0,0.0,0.0,0.0,0.0,0.0,0.0,0.0,0.0,0.0,0.0,0.0,0.0,0.0,0.0,0.0,0.0,0.0,0.0,0.0,0.0,0.0,0.0,0.0,0.0,0.0,0.0,0.0,0.0,0.0,0.0,0.0,0.0,0.0,0.0,0.0,0.0,0.0,0.0,1.4003,1.3654,1.3832,1.3341,1.3176,1.3442,0.0,0.0,0.0,0.0,0.0,0.0,0.0,0.0,0.0,0.0,0.0,0.0,0.0,0.0,0.0,0.0,0.0,0.0,0.0,0.0,0.0,0.0,0.0,0.0,0.0,0.0,0.0,0.0,0.0,0.0,0.0,0.0,0.0,0.0,0.0,0.0,0.0,0.0,0.0,0.0,0.0,0.0,0.0,0.0,0.0,0.0,0.0,0.0,0.0,0.0,0.0,0.0,0.0,0.0,0.0,0.0,0.0,0.0,0.0,0.0,0.0,0.0,0.0,0.0,0.0,0.0,0.0,0.0,0.0,0.0,0.0,0.0,0.0,0.0,0.0,0.0,0.0,0.0,0.0,0.0,0.0,0.0,0.0,0.0,0.0,0.0,0.0,0.0,0.0,0.0,0.0,0.0,0.0,0.0,0.0,0.0,0.0,0.0,0.0,0.0,0.0,0.0,0.0,0.0,0.0,0.0,0.0,0.0,1.4246,1.4053,1.3904,1.38,1.3582,1.3567,0.0,0.0,0.0,0.0,0.0,0.0,0.0,0.0,0.0,0.0,0.0,0.0,0.0,0.0,0.0,0.0,0.0,0.0,0.0,0.0,0.0,0.0,0.0,0.0,0.0,0.0,0.0,0.0,0.0,0.0,0.0,0.0,0.0,0.0,0.0,0.0,0.0,0.0,0.0,0.0,0.0,0.0,0.0,0.0,0.0,0.0,0.0,0.0,0.0,0.0,0.0,0.0,0.0,0.0,0.0,0.0,0.0,0.0,0.0,0.0,0.0,0.0,0.0,0.0,0.0,0.0,0.0,0.0,0.0,0.0,0.0,0.0,0.0,0.0,0.0,0.0,0.0,0.0,0.0,0.0,0.0,0.0,0.0,0.0,0.0,0.0,0.0,0.0,0.0,0.0,0.0,0.0,0.0,0.0,0.0,0.0,0.0,0.0,0.0,0.0,0.0,0.0,0.0,0.0,0.0,0.0,0.0,0.0,0.0,1.3795,1.3774,1.375,1.3742,1.3537,1.3617,0.0,0.0,0.0,0.0,0.0,0.0,0.0,0.0,0.0,0.0,0.0,0.0,0.0,0.0,0.0,0.0,0.0,0.0,0.0,0.0,0.0,0.0,0.0,0.0,0.0,0.0,0.0,0.0,0.0,0.0,0.0,0.0,0.0,0.0,0.0,0.0,0.0,0.0,0.0,0.0,0.0,0.0,0.0,0.0,0.0,0.0,0.0,0.0,0.0,0.0,0.0,0.0,0.0,0.0,0.0,0.0,0.0,0.0,0.0,0.0,0.0,0.0,0.0,0.0,0.0,0.0,0.0,0.0,0.0,0.0,0.0,0.0,0.0,0.0,0.0,0.0,0.0,0.0,0.0,0.0,0.0,0.0,0.0,0.0,0.0,0.0,0.0,0.0,0.0,0.0,0.0,0.0,0.0,0.0,0.0,0.0,0.0,0.0,0.0,0.0,0.0,0.0,0.0,0.0,0.0,0.0,0.0,0.0,0.0,1.3719,0.0,1.4138,1.4324,1.3917,1.3944,0.0,0.0,0.0,0.0,0.0,0.0,0.0,0.0,0.0,0.0,0.0,0.0,0.0,0.0,0.0,0.0,0.0,0.0,0.0,0.0,0.0,0.0,0.0,0.0,0.0,0.0,0.0,0.0,0.0,0.0,0.0,0.0,0.0,0.0,0.0,0.0,0.0,0.0,0.0,0.0,0.0,0.0,0.0,0.0,0.0,0.0,0.0,0.0,0.0,0.0,0.0,0.0,0.0,0.0,0.0,0.0,0.0,0.0,0.0,0.0,0.0,0.0,0.0,0.0,0.0,0.0,0.0,0.0,0.0,0.0,0.0,0.0,0.0,0.0,0.0,0.0,0.0,0.0,0.0,0.0,0.0,0.0,0.0,0.0,0.0,0.0,0.0,0.0,0.0,0.0,0.0,0.0,0.0,0.0,0.0,0.0,0.0,0.0,0.0,0.0,0.0,0.0,0.0,0.0,0.0,0.0,0.0,0.0,1.3181,1.4035,1.4632,1.5177,1.567,1.4818,1.4684,0.0,0.0,0.0,0.0,0.0,0.0,0.0,0.0,0.0,0.0,0.0,0.0,0.0,0.0,0.0,0.0,0.0,0.0,0.0,0.0,0.0,0.0,0.0,0.0,0.0,0.0,0.0,0.0,0.0,0.0,0.0,0.0,0.0,0.0,0.0,0.0,0.0,0.0,0.0,0.0,0.0,0.0,0.0,0.0,0.0,0.0,0.0,0.0,0.0,0.0,0.0,0.0,0.0,0.0,0.0,0.0,0.0,0.0,0.0,0.0,0.0,0.0,0.0,0.0,0.0,0.0,0.0,0.0,0.0,0.0,0.0,0.0,0.0,0.0,0.0,0.0,0.0,0.0,0.0,0.0,0.0,0.0,0.0,0.0,0.0,0.0,0.0,0.0,0.0,0.0,0.0,0.0,0.0,0.0,0.0,0.0,0.0,0.0,0.0,0.0,0.0,0.0,0.0,0.0,0.0,0.0,0.0,0.0,0.0,1.5716,1.6048,1.6349,1.6633,1.6195,1.6148,0.0,0.0,0.0,0.0,0.0,0.0,0.0,0.0,0.0,0.0,0.0,0.0,0.0,0.0,0.0,0.0,0.0,0.0,0.0,0.0,0.0,0.0,0.0,0.0,0.0,0.0,0.0,0.0,0.0,0.0,0.0,0.0,0.0,0.0,0.0,0.0,0.0,0.0,0.0,0.0,0.0,0.0,0.0,0.0,0.0,0.0,0.0,0.0,0.0,0.0,0.0,0.0,0.0,0.0,0.0,0.0,0.0,0.0,0.0,0.0,0.0,0.0,0.0,0.0,0.0,0.0,0.0,0.0,0.0,0.0,0.0,0.0,0.0,0.0,0.0,0.0,0.0,0.0,0.0,0.0,0.0,0.0,0.0,0.0,0.0,0.0,0.0,0.0,0.0,0.0,0.0,0.0,0.0,0.0,0.0,0.0,0.0,0.0,0.0,0.0,0.0,0.0,0.0,0.0,0.0,0.0,0.0,0.0,0.0,1.7604,1.7232,1.7279,1.7797,1.719,1.7074,1.7528,0.0,0.0,0.0,0.0,0.0,0.0,0.0,0.0,0.0,0.0,0.0,0.0,0.0,0.0,0.0,0.0,0.0,0.0,0.0,0.0,0.0,0.0,0.0,0.0,0.0,0.0,0.0,0.0,0.0,0.0,0.0,0.0,0.0,0.0,0.0,0.0,0.0,0.0,0.0,0.0,0.0,0.0,0.0,0.0,0.0,0.0,0.0,0.0,0.0,0.0,0.0,0.0,0.0,0.0,0.0,0.0,0.0,0.0,0.0,0.0,0.0,0.0,0.0,0.0,0.0,0.0,0.0,0.0,0.0,0.0,0.0,0.0,0.0,0.0,0.0,0.0,0.0,0.0,0.0,0.0,0.0,0.0,0.0,0.0,0.0,0.0,0.0,0.0,0.0,0.0,0.0,0.0,0.0,0.0,0.0,0.0,0.0,0.0,0.0,0.0,0.0,0.0,0.0,0.0,0.0,0.0,0.0,0.0,1.9578,1.8222,1.8023,1.9007,1.7905,1.7643,0.0,0.0,0.0,0.0,0.0,0.0,0.0,0.0,0.0,0.0,0.0,0.0,0.0,0.0,0.0,0.0,0.0,0.0,0.0,0.0,0.0,0.0,0.0,0.0,0.0,0.0,0.0,0.0,0.0,0.0,0.0,0.0,0.0,0.0,0.0,0.0,0.0,0.0,0.0,0.0,0.0,0.0,0.0,0.0,0.0,0.0,0.0,0.0,0.0,0.0,0.0,0.0,0.0,0.0,0.0,0.0,0.0,0.0,0.0,0.0,0.0,0.0,0.0,0.0,0.0,0.0,0.0,0.0,0.0,0.0,0.0,0.0,0.0,0.0,0.0,0.0,0.0,0.0,0.0,0.0,0.0,0.0,0.0,0.0,0.0,0.0,0.0,0.0,0.0,0.0,0.0,0.0,0.0,0.0,0.0,0.0,0.0,0.0,0.0,0.0,0.0,0.0,0.0,0.0,0.0,0.0,0.0,0.0,0.0,1.947,1.9144,1.9271,1.9926,1.9436,1.9202,0.0,0.0,0.0,0.0,0.0,0.0,0.0,0.0,0.0,0.0,0.0,0.0,0.0,0.0,0.0,0.0,0.0,0.0,0.0,0.0,0.0,0.0,0.0,0.0,0.0,0.0,0.0,0.0,0.0,0.0,0.0,0.0,0.0,0.0,0.0,0.0,0.0,0.0,0.0,0.0,0.0,0.0,0.0,0.0,0.0,0.0,0.0,0.0,0.0,0.0,0.0,0.0,0.0,0.0,0.0,0.0,0.0,0.0,0.0,0.0,0.0,0.0,0.0,0.0,0.0,0.0,0.0,0.0,0.0,0.0,0.0,0.0,0.0,0.0,0.0,0.0,0.0,0.0,0.0,0.0,0.0,0.0,0.0,0.0,0.0,0.0,0.0,0.0,0.0,0.0,0.0,0.0,0.0,0.0,0.0,0.0,0.0,0.0,0.0,0.0,0.0,0.0,0.0,0.0,0.0,0.0,0.0,0.0,1.8548,1.8499,1.8886,1.9307,1.9781,1.9862,1.9856,0.0,0.0,0.0,0.0,0.0,0.0,0.0,0.0,0.0,0.0,0.0,0.0,0.0,0.0,0.0,0.0,0.0,0.0,0.0,0.0,0.0,0.0,0.0,0.0,0.0,0.0,0.0,0.0,0.0,0.0,0.0,0.0,0.0,0.0,0.0,0.0,0.0,0.0,0.0,0.0,0.0,0.0,0.0,0.0,0.0,0.0,0.0,0.0,0.0,0.0,0.0,0.0,0.0,0.0,0.0,0.0,0.0,0.0,0.0,0.0,0.0,0.0,0.0,0.0,0.0,0.0,0.0,0.0,0.0,0.0,0.0,0.0,0.0,0.0,0.0,0.0,0.0,0.0,0.0,0.0,0.0,0.0,0.0,0.0,0.0,0.0,0.0,0.0,0.0,0.0,0.0,0.0,0.0,0.0,0.0,0.0,0.0,0.0,0.0,0.0,0.0,0.0,0.0,0.0,0.0,0.0,0.0,0.0,1.8214,1.7126,1.7925,1.8592,1.9029,1.9593,1.988,0.0,0.0,0.0,0.0,0.0,0.0,0.0,0.0,0.0,0.0,0.0,0.0,0.0,0.0,0.0,0.0,0.0,0.0,0.0,0.0,0.0,0.0,0.0,0.0,0.0,0.0,0.0,0.0,0.0,0.0,0.0,0.0,0.0,0.0,0.0,0.0,0.0,0.0,0.0,0.0,0.0,0.0,0.0,0.0,0.0,0.0,0.0,0.0,0.0,0.0,0.0,0.0,0.0,0.0,0.0,0.0,0.0,0.0,0.0,0.0,0.0,0.0,0.0,0.0,0.0,0.0,0.0,0.0,0.0,0.0,0.0,0.0,0.0,0.0,0.0,0.0,0.0,0.0,0.0,0.0,0.0,0.0,0.0,0.0,0.0,0.0,0.0,0.0,0.0,0.0,0.0,0.0,0.0,0.0,0.0,0.0,0.0,0.0,0.0,0.0,0.0,0.0,0.0,0.0,0.0,0.0,0.0,0.0,1.6721,1.7034,1.7325,1.7855,1.8627,1.9303,1.9647,0.0,0.0,0.0,0.0,0.0,0.0,0.0,0.0,0.0,0.0,0.0,0.0,0.0,0.0,0.0,0.0,0.0,0.0,0.0,0.0,0.0,0.0,0.0,0.0,0.0,0.0,0.0,0.0,0.0,0.0,0.0,0.0,0.0,0.0,0.0,0.0,0.0,0.0,0.0,0.0,0.0,0.0,0.0,0.0,0.0,0.0,0.0,0.0,0.7235,0.0,0.0,0.0,0.0,0.0,0.0,0.0,0.0,0.0,0.0,0.0,0.0,0.0,0.0,0.0,0.0,0.0,0.0,0.0,0.0,0.0,0.0,0.0,0.0,0.0,0.0,0.0,0.0,0.0,0.0,0.0,0.0,0.0,0.0,0.0,0.0,0.0,0.0,0.0,0.0,0.0,0.0,0.0,0.0,0.0,0.0,0.0,0.0,0.0,0.0,0.0,0.0,0.0,0.0,0.0,0.0,0.0,0.0,0.0,1.5945,1.6182,1.6589,1.7266,1.8131,1.8773,1.9231,0.0,0.0,0.0,0.0,0.0,0.0,0.0,0.0,0.0,0.0,0.0,0.0,0.0,0.0,0.0,0.0,0.0,0.0,0.0,0.0,0.0,0.0,0.0,0.0,0.0,0.0,0.0,0.0,0.0,0.0,0.0,0.0,0.0,0.0,0.0,0.0,0.0,0.0,0.0,0.0,0.0,0.0,0.0,0.0,0.0,0.0,0.0,0.0,0.0,0.0,0.0,0.0,0.0,0.0,0.0,0.0,0.0,0.0,0.0,0.0,0.0,0.0,0.0,0.0,0.0,0.0,0.0,0.0,0.0,0.0,0.0,0.0,0.0,0.0,0.0,0.0,0.0,0.0,0.0,0.0,0.0,0.0,0.0,0.0,0.0,0.0,0.0,0.0,0.0,0.0,0.0,0.0,0.0,0.0,0.0,0.0,0.0,0.0,0.0,0.0,0.0,0.0,0.0,0.0,0.0,0.0,0.0,1.2532,1.5143,1.4862,1.571,1.6588,1.7492,1.8049,1.8676,1.9371,0.0,0.0,0.0,0.0,0.0,0.0,0.0,0.0,0.0,0.0,0.0,0.0,0.0,0.0,0.0,0.0,0.0,0.0,0.0,0.0,0.0,0.0,0.0,0.0,0.0,0.0,0.0,0.0,0.0,0.0,0.0,0.0,0.0,0.0,0.0,0.0,0.0,0.0,0.5749,0.6482,0.0,0.0,0.0,0.0,0.0,0.0,0.0,0.0,0.7656,0.0,0.0,0.0,0.0,0.0,0.0,0.0,0.0,0.0,0.0,0.0,0.0,0.0,0.0,0.0,0.0,0.0,0.0,0.0,0.0,0.0,0.0,0.0,0.0,0.0,0.0,0.0,0.0,0.0,0.0,0.0,0.0,0.0,0.0,0.0,0.0,0.0,0.0,0.0,0.0,0.0,0.0,0.0,0.0,0.0,0.0,0.0,0.0,0.0,0.0,0.0,0.0,0.0,0.0,0.0,0.0,0.3913,1.0025,1.318,1.3141,1.439,1.5432,1.62,1.7101,1.7914,1.8589,0.0,0.0,0.0,0.0,0.0,0.0,0.0,0.0,0.0,0.0,0.0,0.0,0.0,0.0,0.0,0.0,0.0,0.0,0.0,0.0,0.0,0.0,0.0,0.0,0.0,0.0,0.0,0.0,0.0,0.0,0.0,0.0,0.0,0.0,0.0,0.0,0.0,0.0,0.0,0.6114,0.646,0.0,0.0,0.0,0.0,0.0,0.0,0.0,0.0,0.7763,0.0,0.0,0.0,0.0,0.0,0.0,0.0,0.0,0.0,0.0,0.0,0.0,0.0,0.0,0.0,0.0,0.0,0.0,0.0,0.0,0.0,0.0,0.0,0.0,0.0,0.0,0.0,0.0,0.0,0.0,0.0,0.0,0.0,0.0,0.0,0.0,0.0,0.0,0.0,0.0,0.0,0.0,0.0,0.0,0.0,0.0,0.0,0.0,0.0,0.0,0.0,0.0,0.0,0.0,0.0,0.2378,0.867,1.2493,1.3361,1.4306,1.5478,1.6848,1.744,1.8314,0.0,0.0,0.0,0.0,0.0,0.0,0.0,0.0,0.0,0.0,0.0,0.0,0.0,0.0,0.0,0.0,0.0,0.0,0.0,0.0,0.0,0.0,0.0,0.0,0.0,0.0,0.0,0.0,0.0,0.0,0.0,0.0,0.0,0.0,0.0,0.0,0.0,0.0,0.0,0.0,0.6168,0.6643,0.649,0.0,0.0,0.0,0.0,0.0,0.0,0.8442,0.8322,0.0,0.0,0.0,0.0,0.0,0.0,0.0,0.0,0.0,0.0,0.0,0.0,0.0,0.0,0.0,0.0,0.0,0.0,0.0,0.0,0.0,0.0,0.0,0.0,0.0,0.0,0.0,0.0,0.0,0.0,0.0,0.0,0.0,0.0,0.0,0.0,0.0,0.0,0.0,0.0,0.0,0.0,0.0,0.0,0.0,0.0,0.0,0.0,0.0,0.0,0.0,0.0,0.0,0.0,0.0,-0.2046,0.5743,1.0438,1.1616,1.3674,1.5482,1.7056,1.7524,1.8618,0.0,0.0,0.0,0.0,0.0,0.0,0.0,0.0,0.0,0.0,0.0,0.0,0.0,0.0,0.0,0.0,0.0,0.0,0.0,0.0,0.0,0.0,0.0,0.0,0.0,0.0,0.0,0.0,0.0,0.0,0.0,0.0,0.0,0.0,0.0,0.0,0.0,0.0,0.0,0.0,0.0,0.6831,0.6538,0.7267,0.0,0.0,0.0,0.0,0.9298,0.9062,0.0,0.0,0.0,0.0,0.0,0.0,0.0,0.0,0.0,0.0,0.0,0.0,0.0,0.0,0.0,0.0,0.0,0.0,0.0,0.0,0.0,0.0,0.0,0.0,0.0,0.0,0.0,0.0,0.0,0.0,0.0,0.0,0.0,0.0,0.0,0.0,0.0,0.0,0.0,0.0,0.0,0.0,0.0,0.0,0.0,0.0,0.0,0.0,0.0,0.0,0.0,0.0,0.0,0.0,0.0,0.0,-1.3336,-0.1854,0.4111,0.3935,1.0674,1.4559,1.4726,1.6158,1.7713,0.0,0.0,0.0,0.0,0.0,0.0,0.0,0.0,0.0,0.0,0.0,0.0,0.0,0.0,0.0,0.0,0.0,0.0,0.0,0.0,0.0,0.0,0.0,0.0,0.0,0.0,0.0,0.0,0.0,0.0,0.0,0.0,0.0,0.0,0.0,0.0,0.0,0.0,0.0,0.0,0.0,0.6589,0.7021,0.7809,0.8303,0.0,0.0,0.8736,0.8941,0.9018,0.0,0.0,0.0,0.0,0.0,0.0,0.0,0.0,0.0,0.0,0.0,0.0,0.0,0.0,0.0,0.0,0.0,0.0,0.0,0.0,0.0,0.0,0.0,0.0,0.0,0.0,0.0,0.0,0.0,0.0,0.0,0.0,0.0,0.0,0.0,0.0,0.0,0.0,0.0,0.0,0.0,0.0,0.0,0.0,0.0,0.0,0.0,0.0,0.0,0.0,0.0,0.0,0.0,0.0,0.0,-0.6066,-0.5861,0.2369,0.7105,0.7954,1.1621,1.4209,1.5488,1.6086,1.7586,0.0,0.0,0.0,0.0,0.0,0.0,0.0,0.0,0.0,0.0,0.0,0.0,0.0,0.0,0.0,0.0,0.0,0.0,0.0,0.0,0.0,0.0,0.0,0.0,0.0,0.0,0.0,0.0,0.0,0.0,0.0,0.0,0.0,0.0,0.0,0.0,0.0,0.0,0.0,0.0,0.0,0.0,0.7446,0.8335,0.0,0.0,0.0,0.9616,1.0128,0.0,0.0,0.0,0.0,0.0,0.0,0.0,0.0,0.0,0.0,0.0,0.0,0.0,0.0,0.0,0.0,0.0,0.0,0.0,0.0,0.0,0.0,0.0,0.0,0.0,0.0,0.0,0.0,0.0,0.0,0.0,0.0,0.0,0.0,0.0,0.0,0.0,0.0,0.0,0.0,0.0,0.0,0.0,0.0,0.0,0.0,0.0,0.0,0.0,0.0,0.0,0.0,0.0,0.0,0.0,0.0,0.0,-0.3382,0.2352,0.6643,0.9344,1.1766,1.3763,1.5448,1.5792,0.0,0.0,0.0,0.0,0.0,0.0,0.0,0.0,0.0,0.0,0.0,0.0,0.0,0.0,0.0,0.0,0.0,0.0,0.0,0.0,0.0,0.0,0.0,0.0,0.0,0.0,0.0,0.5836,0.0,0.0,0.0,0.0,0.0,0.0,0.0,0.0,0.0,0.0,0.0,0.0,0.0,0.0,0.7261,0.7293,0.8394,0.9273,0.0,0.0,1.039,1.1153,1.0687,1.0309,0.0,0.0,0.0,0.0,0.0,0.0,0.0,0.0,0.0,0.0,0.0,0.0,0.0,0.0,0.0,0.0,0.0,0.0,0.0,0.0,0.0,0.0,0.0,0.0,0.0,0.0,0.0,0.0,0.0,0.0,0.0,0.0,0.0,0.0,0.0,0.0,0.0,0.0,0.0,0.0,0.0,0.0,0.0,0.0,0.0,0.0,0.0,0.0,0.0,0.0,0.0,0.0,0.0,0.0,-2.0846,-1.6121,-0.9096,-0.2908,0.1872,0.9042,1.2851,1.3092,1.4744,1.6535,0.0,0.0,0.0,0.0,0.0,0.0,0.0,0.0,0.0,0.0,0.0,0.0,0.0,0.0,0.0,0.0,0.0,0.0,0.0,0.0,0.0,0.0,0.0,0.0,0.0,0.0,0.0,0.0,0.0,0.0,0.0,0.0,0.0,0.0,0.0,0.0,0.0,0.0,0.0,0.0,0.0,0.6068,0.6198,0.7591,0.8671,0.0,0.9651,1.0629,1.1376,1.1025,1.0809,1.1259,0.0,0.0,0.0,0.0,0.0,0.0,0.0,0.0,0.0,0.0,0.0,0.0,0.0,0.0,0.0,0.0,0.0,0.0,0.0,0.0,0.0,0.0,0.0,0.0,0.0,0.0,0.0,0.0,0.0,0.0,0.0,0.0,0.0,0.0,0.0,0.0,0.0,0.0,0.0,0.0,0.0,0.0,0.0,0.0,0.0,0.0,0.0,0.0,0.0,0.0,0.0,0.0,0.0,-1.4267,-1.1904,-0.5455,-0.0815,0.1922,0.8322,1.2187,1.3016,1.3663,1.5022,0.0,0.0,0.0,0.0,0.0,0.0,0.0,0.0,0.0,0.0,0.0,0.0,0.0,0.0,0.0,0.0,0.0,0.0,0.0,0.0,0.0,0.0,0.0,0.0,0.0,0.0,0.0,0.0,0.6152,0.6286,0.5204,0.0,0.0,0.0,0.0,0.0,0.0,0.0,0.0,0.0,0.0,0.6062,0.6102,0.7017,0.0,0.0,0.9239,0.9915,1.1121,1.1057,1.1008,1.1409,1.1094,0.0,0.0,0.0,0.0,0.0,0.0,0.0,0.0,0.0,0.0,0.0,0.0,0.0,0.0,0.0,0.0,0.0,0.0,0.0,0.0,0.0,0.0,0.0,0.0,0.0,0.0,0.0,0.0,0.0,0.0,0.0,0.0,0.0,0.0,0.0,0.0,0.0,0.0,0.0,0.0,0.0,0.0,0.0,0.0,0.0,0.0,0.0,0.0,0.0,0.0,0.0,0.0,-1.306,-1.1052,-0.6557,-0.2277,0.1709,0.6257,0.9891,1.2385,1.2977,1.4068,0.0,0.0,0.0,0.0,0.0,0.0,0.0,0.0,0.0,0.0,0.0,0.0,0.0,0.0,0.0,0.0,0.0,0.0,0.0,0.0,0.0,0.0,0.0,0.0,0.0,0.0,0.0,0.0,0.6048,0.6096,0.4493,0.0,0.0,0.0,0.0,0.0,0.0,0.0,0.0,0.0,0.0,0.5535,0.5363,0.6349,0.7416,0.8335,0.8904,0.972,1.1067,1.1234,1.1335,1.1531,0.0,0.0,0.0,0.0,0.0,0.0,0.0,0.0,0.0,0.0,0.0,0.0,0.0,0.0,0.0,0.0,0.0,0.0,0.0,0.0,0.0,0.0,0.0,0.0,0.0,0.0,0.0,0.088,0.0,0.0,-0.7511,0.0,0.0,0.0,0.0,0.0,0.0,0.0,0.0,0.0,0.0,0.0,0.0,0.0,0.0,0.0,0.0,0.0,0.0,0.0,0.0,0.0,0.0,-2.1954,-1.6938,-1.5697,-1.0209,0.0043,0.2215,0.5684,1.0772,1.2783,1.3841,1.412,0.0,0.0,0.0,0.0,0.0,0.0,0.0,0.0,0.0,0.0,0.0,0.0,0.0,0.0,0.0,0.0,0.0,0.0,0.0,0.0,0.0,0.0,0.0,0.0,0.0,0.0,0.4733,0.5529,0.5768,0.0,0.0,0.0,0.0,0.0,0.0,0.0,0.0,0.0,0.4447,0.436,0.4188,0.3755,0.5439,0.6761,0.6921,0.8673,1.0321,1.118,1.1575,1.1757,0.0,0.0,0.0,0.0,0.0,0.0,0.0,0.0,0.0,0.0,0.0,0.0,0.0,0.0,0.0,0.0,0.0,0.0,0.0,0.0,0.0,0.0,0.0,0.0,0.0,0.0,0.0,-0.0545,-0.3856,0.0,0.0,0.0,0.0,0.0,0.0,0.0,0.0,0.0,0.0,0.0,-2.3791,-2.4381,0.0,0.0,0.0,0.0,0.0,0.0,0.0,0.0,0.0,0.0,0.0,0.0,-2.4107,-2.2216,-1.798,-1.2341,-0.5381,-0.0532,0.4776,1.0511,1.1701,1.2764,1.3867,0.0,0.0,0.0,0.0,0.0,0.0,0.0,0.0,0.0,0.0,0.0,0.0,0.0,0.0,0.0,0.0,0.0,0.0,0.0,0.0,0.0,0.0,0.0,0.0,0.0,0.5612,0.0,0.0,0.0,0.0,0.0,0.0,0.0,0.0,0.0,0.0,0.0,0.4574,0.4687,0.4224,0.3755,0.3622,0.426,0.5053,0.0,0.0,0.0,0.0,0.0,0.0,0.0,0.0,0.0,0.0,0.0,0.0,0.0,0.0,0.7616,0.8967,0.8732,0.8193,0.7938,0.0,0.0,0.0,0.0,0.0,0.0,0.0,0.0,0.0,0.0,0.0,0.0,0.0,0.0,-0.3734,-0.6962,-1.2303,0.0,0.0,0.0,0.0,0.0,0.0,0.0,0.0,-2.4234,-2.4517,-2.4605,-2.5181,-2.5489,0.0,-2.5515,-2.5554,0.0,0.0,0.0,0.0,0.0,0.0,0.0,0.0,-2.4936,-2.4657,-2.0829,-1.5175,-0.7973,-0.3467,0.2526,1.0167,1.1158,1.2197,1.3627,1.447,1.5128,0.0,0.0,0.0,0.0,0.0,0.0,0.0,0.0,0.0,0.0,0.0,0.0,0.0,0.0,0.0,0.0,0.0,0.0,0.0,0.0,0.0,0.0,0.0,0.4565,0.0,0.0,0.0,0.0,0.0,0.0,0.0,0.0,0.0,0.2211,0.1313,0.0484,0.0762,0.0323,-0.0041,-0.0041,0.0,0.0,0.0,0.0,0.0,0.0,0.0,0.9193,0.8166,0.9801,1.0761,0.9316,0.8728,0.8343,0.8107,0.0,0.0,0.8488,0.8016,0.7418,0.7453,0.6579,0.5776,0.5524,0.5313,0.5231,0.0,0.0,0.0,0.0,0.0,0.0,0.0,0.0,-0.8047,-0.8055,0.0,-1.3213,0.0,0.0,0.0,0.0,-2.4319,-2.4107,0.0,0.0,-2.4898,-2.5107,-2.5273,-2.5359,-2.539,-2.5395,-2.5467,-2.5499,-2.5518,-2.5503,0.0,0.0,0.0,0.0,0.0,0.0,-2.4291,-2.3804,-2.3584,-1.8299,-0.7202,-0.6275,-0.0833,0.9847,1.1116,1.2058,1.3276,1.3637,1.4297,1.5372,1.5703,0.0,0.0,0.0,0.0,0.0,0.0,0.0,0.0,0.0,0.0,0.0,0.0,0.0,0.0,0.0,0.0,0.0,0.0,0.0,0.0,0.2474,0.0,0.0,0.0,0.0,0.0,0.0,0.0,0.0,0.0,0.0,-0.1859,-0.4514,-0.6765,-0.6582,0.0,0.0,0.0,0.0,-0.0,0.0187,0.3906,0.6805,0.6884,0.778,0.823,0.7575,0.0,0.0,0.8367,0.7896,0.7604,0.7549,0.7161,0.6945,0.6985,0.6403,0.6055,0.6716,0.5936,0.5053,0.498,0.4692,0.4389,-2.2986,0.0,0.0,0.0,0.0,-1.2786,-1.2644,-1.2409,-1.2377,-1.2389,-1.2711,-1.82,0.0,0.0,0.0,0.0,0.0,0.0,-2.1159,-2.4738,-2.493,-2.5012,-2.508,-2.5252,-2.535,-2.5387,-2.5429,-2.5453,-2.5485,-2.546,-2.5473,-2.5493,0.0,0.0,0.0,0.0,-1.3813,-1.3726,-1.3583,-0.9935,-0.2586,-0.1904,0.2394,1.0738,1.1377,1.1918,1.2461,1.2852,1.3208,1.3695,1.4239,0.0,0.0,0.0,0.0,0.0,0.0,0.0,0.0,0.0,0.0,0.0,0.0,0.0,0.0,0.0,0.0,0.0,0.0,0.0,0.492,0.487,0.4485,0.0,0.0,0.0,0.0,0.0,0.0,0.0,0.0,0.0,-0.3892,-0.4359,-0.4492,0.0,0.0,-0.314,-0.0701,0.005,0.0675,0.1638,0.439,0.0,0.5335,0.6384,0.6887,0.5789,0.6619,0.7818,0.9009,0.8003,0.7055,0.7003,0.6162,0.5652,0.6285,0.6278,0.6132,0.6004,0.5465,0.493,0.4707,0.4513,0.4507,-2.4016,-2.3753,-2.3978,-2.1919,-1.8519,-1.8361,-1.8237,-1.8079,-1.7985,-1.7969,-1.8231,-2.1767,-2.0281,-1.5315,-1.8868,0.0,0.0,0.0,-2.155,-2.4613,-2.4723,-2.4874,-2.5,-2.513,-2.5214,-2.533,-2.536,-2.5406,-2.5426,-2.5393,-2.5462,-2.532,0.0,0.0,-1.7426,-1.2429,-0.9685,-0.9372,-0.9194,-0.6233,-0.0353,0.2461,0.6149,1.0578,1.104,1.141,1.1877,1.2076,1.2353,1.2657,1.2939,1.3602,0.0,0.0,0.0,0.0,0.0,0.0,0.0,0.0,0.0,0.0,0.0,1.5583,1.4858,0.0,0.0,0.0,0.658,0.5109,0.5328,0.5168,0.0,0.0,0.0,0.0,0.0,0.0,0.0,-0.0065,-0.249,-0.4533,-0.5782,-0.4656,-0.4088,-0.5164,-0.5572,-0.4964,-0.283,0.0,-0.1216,-0.0396,0.2954,0.5012,0.3975,0.5345,0.6156,0.5009,0.5464,0.6336,0.7412,0.6724,0.6026,0.5925,0.536,0.4965,0.5566,0.5691,0.5776,0.5776,0.5334,0.489,0.4681,0.465,0.4634,-2.3996,-2.3674,-2.4039,-2.4135,-2.4094,-2.3855,-2.3795,-2.3896,-2.3631,-2.3671,-2.3834,-2.3915,-2.0953,-1.6009,-1.6053,0.0,-2.4094,-2.4151,-2.4155,-2.4283,-2.4425,-2.4657,-2.4934,-2.4968,-2.5056,-2.5171,-2.4973,-2.5023,-2.5245,-2.4995,-2.506,-2.5222,-2.0493,-1.7696,-1.6699,-1.1764,-0.8857,-0.8106,-0.7902,-0.5028,0.0804,0.641,0.9614,1.0167,1.0269,1.0677,1.1368,1.1418,1.1619,1.2058,1.1814,1.2201,1.3314,0.0,0.0,0.0,0.0,0.0,0.0,0.0,0.0,0.0,0.0,0.0,0.0,0.0,0.0,0.0,0.5799,0.0,0.4898,0.4299,0.0,0.0,0.0,0.4553,0.4163,0.3228,0.1546,-0.1192,0.0,0.0,-0.6892,-0.48,-0.452,-0.8512,-0.9372,-0.9538,-0.9214,-0.6154,-0.4424,-0.3815,0.0793,0.3943,0.2961,0.4533,0.5822,0.5184,0.4957,0.5087,0.5046,0.5002,0.4898,0.4969,0.4849,0.4857,0.4853,0.4956,0.5138,0.5922,0.5398,0.4796,0.482,0.4824,0.4836,-2.4114,-2.4135,-2.4134,-2.3873,-2.3435,-2.3417,-2.3394,-2.3307,-2.3259,-2.3259,-2.3283,-2.3307,-2.2647,-2.1579,-2.1784,-2.264,-2.3937,-2.4016,-2.4056,-2.4096,-2.432,-2.4458,-2.4575,-2.479,-2.4947,-2.4758,-2.1731,-2.1953,-2.4943,-2.1992,-2.2145,-2.4851,-1.7535,-1.3072,-1.156,-0.2719,0.19,0.1814,0.1866,0.3107,0.5593,0.7878,0.9368,0.9865,0.971,0.9969,1.0626,1.0728,1.0939,1.1167,1.1116,1.1349,1.1823,1.2221,0.0,0.0,0.0,0.0,0.0,0.0,0.0,0.0,0.0,1.4438,1.3638,0.0,1.0528,0.0,0.7457,0.6508,0.7023,0.6053,0.0,0.0,0.5534,0.5344,0.4357,0.3712,0.2755,0.1259,0.0539,-0.0188,-0.1028,-0.0531,-0.0383,-0.1532,-0.3994,-0.503,-0.327,-0.3221,-0.285,-0.1514,0.2676,0.4995,0.2551,0.3611,0.5449,0.5996,0.618,0.5985,0.5196,0.5133,0.5169,0.5169,0.5169,0.5169,0.516,0.5169,0.5272,0.5464,0.5106,0.4849,0.4983,0.5015,0.5056,-2.0003,-2.3891,-2.1675,-2.1762,-2.3463,-2.3422,-2.3382,-2.3422,-2.3307,-2.333,-2.3422,-2.3405,-2.3491,-2.3642,-2.3774,-2.3855,-2.3876,-2.3917,-2.2765,-2.066,-2.0812,-1.9728,-1.7674,-1.7835,-1.7962,-1.7974,-1.5794,-1.6038,-1.8214,-1.6271,-1.6472,-1.8567,-1.1591,-0.7711,-0.6729,0.0734,0.4783,0.523,0.5496,0.6095,0.7182,0.7931,0.8567,0.904,0.9152,0.9295,0.9651,0.9747,1.0012,1.049,1.0332,1.0375,1.0702,1.1065,1.141,0.0,0.0,0.0,0.0,0.0,0.0,0.0,0.0,0.0,0.0,0.0,1.0667,0.9992,0.8533,0.7829,0.8388,0.7553,0.6752,0.6297,0.6319,0.5905,0.4775,0.4569,0.4286,0.378,0.3551,0.3423,0.3326,0.3284,0.312,0.2581,0.08,-0.0332,-0.0199,-0.0692,-0.0865,0.0039,0.3224,0.5601,0.446,0.4736,0.5576,0.7128,0.7577,0.7354,0.6582,0.6115,0.585,0.5885,0.5521,0.5209,0.5281,0.5301,0.5301,0.5273,0.514,0.5104,0.5182,0.5202,0.5189,-1.5462,-2.3467,-1.9261,-1.9924,-2.3816,-2.361,-2.361,-2.3753,-2.3553,-2.3576,-2.3753,-2.3753,-2.3774,-2.3795,-2.3795,-2.3795,-2.3795,-2.3876,-2.119,-1.6557,-1.6508,-1.3967,-0.9352,-0.9297,-0.9417,-0.9561,-0.9335,-0.9507,-1.0015,-0.9949,-1.0146,-1.035,-0.5675,-0.3246,-0.3178,0.0823,0.3622,0.4959,0.555,0.6204,0.6918,0.723,0.7605,0.8055,0.8362,0.8567,0.8613,0.862,0.8974,0.9695,0.9475,0.9533,0.9888,1.0205,1.0565,0.0,1.1049,0.0,0.0,0.0,0.0,0.0,0.0,0.0,0.0,1.1,1.1013,1.0484,0.9197,0.8583,0.9189,0.8678,0.792,0.7091,0.695,0.6585,0.5609,0.5636,0.5809,0.5869,0.5987,0.61,0.5977,0.6154,0.5697,0.4678,0.4301,0.3503,0.1965,0.1231,0.0912,0.1119,0.2665,0.4751,0.7489,0.6768,0.6185,0.8378,0.9043,0.8879,0.8277,0.7425,0.6873,0.689,0.6255,0.5573,0.5475,0.5486,0.5427,0.5309,0.5253,0.5273,0.5285,0.5285,0.5301,-1.8831,-2.3964,-2.3019,-2.313,-2.3937,-2.3816,-2.3667,-2.3531,-2.3301,-2.3324,-2.3553,-2.3571,-2.3642,-2.3795,-2.3795,-2.3795,-2.3795,-2.3816,-2.1264,-1.6727,-1.6795,-1.4314,-0.9846,-0.9794,-0.9878,-0.9679,-0.6596,-0.6907,-1.0329,-0.7136,-0.7525,-1.102,-0.6693,-0.436,-0.3939,0.0,0.0,0.0,0.4889,0.5546,0.6046,0.6529,0.6966,0.7456,0.7354,0.0,0.7706,0.7658,0.7865,0.8442,0.8854,0.0,0.0,0.0,0.0,0.0,0.0,0.0,0.0,0.0,0.0,0.0,1.1099,1.1049,1.0795,1.0442,1.0269,1.0232,0.9576,0.9088,0.894,0.8792,0.8637,0.8423,0.8371,0.8124,0.7423,0.7063,0.6661,0.6199,0.5769,0.5605,0.5937,0.5882,0.5819,0.5597,0.5542,0.5253,0.4562,0.2859,0.1705,0.1692,0.2081,0.3949,0.9433,0.8099,0.7357,0.9528,1.0398,1.0106,0.9247,0.8695,0.8379,0.8381,0.7928,0.7193,0.6459,0.637,0.6213,0.5321,0.5247,0.5301,0.5301,0.534,0.5352,-1.253,-2.0754,-1.8343,-1.9823,0.0,-2.371,-2.3616,-2.3504,-2.3468,-2.3535,-2.3642,-2.3531,-2.362,-2.3795,-2.3707,-2.371,-2.3795,-2.3795,-2.1188,-1.6517,-1.4192,-1.0521,-0.5722,-0.353,-0.2463,-0.2475,-0.0881,-0.131,-0.3353,-0.1977,-0.2392,-0.4626,-0.2589,-0.1445,-0.1198,0.0862,0.2404,0.3463,0.3843,0.4446,0.5218,0.5433,0.5814,0.6529,0.6593,0.0,0.0,0.0,0.0,0.0,0.0,0.0,0.0,0.9444,0.0,1.0079,1.0423,1.0559,1.0517,1.0568,1.0364,0.9762,0.9762,0.9976,1.0344,1.0146,0.9999,0.9984,0.9732,0.9524,0.9323,0.933,0.9173,0.8949,0.8896,0.862,0.8031,0.7824,0.7616,0.7343,0.7122,0.7122,0.723,0.7289,0.7176,0.6907,0.7122,0.6961,0.6199,0.4809,0.3963,0.4476,0.3877,0.5159,0.9505,0.9394,0.8852,1.1028,1.1784,1.1495,1.0771,1.0061,0.9595,0.9573,0.9005,0.8209,0.7679,0.7572,0.7391,0.6671,0.6551,0.6618,0.6494,0.5864,0.5407,-0.5744,-1.6568,-1.2787,-1.5583,-2.2551,-2.2418,-2.2677,-2.3245,-2.3486,0.0,0.0,-2.3463,-2.3468,-2.3667,-2.3571,-2.3576,-2.3671,-2.3774,-2.0727,-1.5142,-1.1328,-0.6514,-0.0913,0.2913,0.4728,0.4567,0.384,0.3398,0.3292,0.2404,0.2012,0.2009,0.1789,0.1734,0.1792,0.168,0.1958,0.2516,0.2625,0.3292,0.4395,0.4281,0.4666,0.5664,0.5882,0.5882,0.5668,0.5778,0.605,0.6529,0.6637,0.7117,0.799,0.8461,0.889,0.9204,0.9413,0.9517,0.9361,0.9458,0.9256,0.8626,0.8778,0.9152,0.9888,0.994,0.9888,0.974,0.974,0.974,0.974,0.974,0.9577,0.9086,0.9033,0.8771,0.8137,0.8309,0.8368,0.8368,0.8368,0.8639,0.8646,0.8646,0.858,0.815,0.8262,0.848,0.7616,0.6681,0.6279,0.6828,0.6438,0.7454,1.0031,1.0334,1.0605,1.2383,1.283,1.2726,1.2277,1.1469,1.0897,1.0884,1.0008,0.9347,0.8915,0.8879,0.8716,0.8119,0.8102,0.8163,0.7939,0.695,0.6278,-0.8041,-1.3728,-1.4098,-1.5641,-1.7875,-1.785,-1.9515,-2.2174,-2.2661,-2.2968,-2.317,-2.291,-2.2977,-2.323,-2.3417,-2.3394,-2.3236,-2.3606,-1.9263,-1.1327,-1.0787,-0.6217,0.1518,0.2323,0.2617,0.2619,0.2345,0.2237,0.2181,0.1958,0.1677,0.1453,0.1398,0.1231,0.1064,0.1009,0.1065,0.1177,0.1679,0.2458,0.3456,0.3453,0.4009,0.512,0.512,0.5117,0.5179,0.512,0.512,0.5344,0.5937,0.6421,0.6686,0.7818,0.8474,0.858,0.9001,0.9256,0.9211,0.9256,0.9001,0.8527,0.889,0.9309,0.9621,0.9673,0.9621,0.9621,0.9621,0.9569,0.9465,0.9465,0.9413,0.9204,0.9256,0.9093,0.8567,0.862,0.8613,0.8137,0.7984,0.8203,0.8527,0.8527,0.8527,0.8374,0.8474,0.8521,0.8659,0.8165,0.7463,0.7334,0.7933,0.9153,1.0756,1.1055,1.1572,1.307,1.3192,1.3104,1.2983,1.2513,1.2184,1.2252,1.1707,1.1038,1.0208,1.0104,0.9915,0.9202,0.914,0.9271,0.9342,0.9057,0.9067,-0.6049,-0.9946,-1.0717,-1.254,-1.5073,-1.503,-1.6386,-1.847,-1.8607,-2.1006,-2.461,-2.4331,-2.4296,-2.4527,-2.4356,-2.2723,-2.0188,-2.0406,-1.6961,-1.0813,-0.8234,-0.519,-0.1632,0.0975,0.2176,0.2068,0.1677,0.1455,0.1401,0.1008,0.0728,0.0616,0.0615,0.0392,0.0056,0.0224,0.0224,0.0056,0.0784,0.1567,0.2345,0.2569,0.3128,0.3962,0.4239,0.4463,0.4519,0.4522,0.4522,0.4632,0.5395,0.5882,0.5923,0.6956,0.7664,0.7996,0.8315,0.8639,0.8962,0.8798,0.8745,0.8844,0.8791,0.8791,0.8942,0.8942,0.9047,0.9302,0.9152,0.9047,0.9361,0.9413,0.9354,0.9316,0.9413,0.9361,0.9099,0.9145,0.9138,0.8876,0.8771,0.883,0.904,0.9001,0.8837,0.8679,0.8613,0.8803,0.9377,0.9607,0.9688,0.9673,1.0132,1.0906,1.1944,1.2199,1.2511,1.32,1.32,1.3142,1.3132,1.2952,1.2872,1.2775,1.256,1.2149,1.1397,1.1993,1.2,1.1661,1.2042,1.2447,1.2734,1.3514,1.3513,-0.3625,-0.6505,-0.686,-0.8924,-1.1978,-1.2085,-1.3107,-1.4675,-1.4633,-1.8178,-2.3587,-2.3563,-2.3293,-2.3106,-2.2702,-2.0364,-1.6986,-1.6704,-1.4375,-1.0065,-0.6441,-0.462,-0.3938,-0.044,0.1083,0.0912,0.051,0.0283,0.0227,-0.0225,-0.0336,-0.0224,-0.0168,-0.028,-0.0561,-0.0449,-0.0449,-0.0561,0.0112,0.0784,0.1455,0.1902,0.2406,0.3019,0.363,0.3965,0.4021,0.4079,0.4135,0.4193,0.4908,0.5285,0.5382,0.6086,0.6794,0.7456,0.7735,0.8062,0.8593,0.8427,0.8427,0.8791,0.8633,0.8427,0.8262,0.8262,0.8415,0.8725,0.8415,0.8468,0.8935,0.9086,0.9145,0.9263,0.9361,0.9354,0.9309,0.9413,0.9517,0.951,0.9458,0.9413,0.951,0.9465,0.9256,0.8935,0.9065,0.9415,0.9931,1.0839,1.1657,1.1913,1.208,1.2286,1.2968,1.3065,1.3075,1.3075,1.3075,1.3065,1.3055,1.3065,1.3017,1.289,1.291,1.2712,1.2543,1.3052,1.3504,1.3349,1.4026,1.5084,1.5592,1.6531,1.6752,-0.2706,-0.3338,-0.4631,-0.6008,-0.7578,-0.7892,-0.9551,-1.1915,-1.2527,-1.4692,-1.7756,-1.7339,-1.6434,-1.5309,-1.5656,-1.4875,-1.3303,-1.3663,-1.1528,-0.7832,-0.7355,-0.5644,-0.2852,-0.2119,-0.2071,-0.212,-0.2069,-0.1811,-0.1578,-0.1594,-0.1345,-0.0841,-0.0729,-0.0505,-0.0336,-0.0673,-0.0729,-0.0449,-0.0336,0.0112,0.0953,0.1512,0.2181,0.2907,0.3519,0.3907,0.3965,0.4021,0.4021,0.4021,0.4245,0.4519,0.4952,0.5382,0.6091,0.7079,0.7408,0.7788,0.8368,0.8521,0.8362,0.7931,0.8421,0.8421,0.7836,0.7777,0.7723,0.7711,0.7599,0.7759,0.8131,0.8237,0.8402,0.8798,0.8956,0.9061,0.9061,0.9166,0.9263,0.9413,0.9361,0.9413,0.9413,0.9413,0.9309,0.9256,0.9953,1.0551,1.0864,1.1733,1.2559,1.2715,1.2881,1.2929,1.3075,1.3075,1.3075,1.3085,1.2988,1.2929,1.2929,1.2929,1.2939,1.2929,1.2881,1.2832,1.2822,1.3044,1.3381,1.4216,1.4809,1.5325,1.6166,1.6745,1.6128,-0.3282,-0.3411,-0.3949,-0.4547,-0.5071,-0.52,-0.6394,-0.8158,-0.8471,-0.9628,-1.1115,-1.1005,-1.2609,-1.5586,-1.5089,-1.2966,-0.9739,-0.9828,-0.7526,-0.3635,-0.3503,-0.2911,-0.2023,-0.1907,-0.203,-0.2214,-0.2187,-0.2114,-0.2048,-0.1907,-0.1704,-0.1386,-0.1269,-0.1142,-0.1009,-0.1009,-0.0954,-0.0841,-0.0673,-0.0336,0.0168,0.0951,0.1509,0.1899,0.2683,0.3244,0.3466,0.3466,0.358,0.3747,0.4239,0.4515,0.468,0.5226,0.5778,0.6317,0.6972,0.7563,0.8109,0.8315,0.8362,0.8096,0.8374,0.8268,0.7676,0.767,0.7503,0.7069,0.6956,0.7063,0.7326,0.7427,0.7706,0.8203,0.8474,0.8745,0.9015,0.9113,0.9263,0.9256,0.9211,0.9211,0.9256,0.9263,0.9413,0.9666,1.0423,1.0931,1.1392,1.2166,1.2627,1.2783,1.2832,1.2881,1.2988,1.2978,1.2978,1.2978,1.2939,1.2891,1.2881,1.2891,1.2891,1.2891,1.2832,1.2832,1.2871,1.3558,1.4103,1.4969,1.6718,1.7781,1.8289,1.8413,1.8396,-0.3825,-0.3825,-0.3825,-0.3825,-0.3828,-0.3825,-0.435,-0.52,-0.5394,-0.5928,-0.6593,-0.6523,-0.9077,-1.3022,-1.2653,-1.0038,-0.6646,-0.6357,-0.4623,-0.1569,-0.1384,-0.1701,-0.2207,-0.2082,-0.2144,-0.2268,-0.219,-0.2046,-0.197,-0.1909,-0.1766,-0.1612,-0.1429,-0.1294,-0.1266,-0.1085,-0.0909,-0.0796,-0.0733,-0.0617,-0.028,0.0448,0.0951,0.1174,0.2128,0.2802,0.2965,0.2963,0.3079,0.3363,0.3959,0.4343,0.4519,0.5014,0.5458,0.5959,0.6756,0.7354,0.7634,0.7949,0.8103,0.8209,0.8209,0.8103,0.7788,0.7783,0.7509,0.6858,0.675,0.6804,0.6961,0.6956,0.7171,0.7711,0.7931,0.8103,0.8468,0.8679,0.8784,0.9001,0.9008,0.9008,0.9106,0.9106,0.9263,0.9769,1.0379,1.0947,1.1569,1.2116,1.2529,1.2627,1.2637,1.2735,1.2881,1.2881,1.2832,1.2832,1.2832,1.2783,1.2832,1.2832,1.2832,1.2783,1.2735,1.2735,1.2783,1.3585,1.4392,1.5639,1.7155,1.8612,1.8688,1.917,1.9474,-0.3825,-0.3825,-0.3825,-0.3894,-0.3961,-0.3894,-0.3823,-0.409,-0.4489,-0.4888,-0.5219,-0.4954,-0.5134,-0.6039,-0.6218,-0.4973,-0.3862,-0.3909,-0.3643,-0.2996,-0.3002,-0.334,-0.3813,-0.3407,-0.3199,-0.3177,-0.2654,-0.2089,-0.161,-0.1667,-0.1601,-0.1414,-0.1106,-0.0798,-0.0608,-0.0653,-0.0469,-0.0352,-0.0686,-0.073,-0.0393,0.0168,0.0672,0.1119,0.2127,0.2691,0.2691,0.2691,0.2747,0.2747,0.3077,0.3574,0.4408,0.4574,0.5085,0.6055,0.6737,0.709,0.7155,0.7306,0.7509,0.7723,0.7824,0.7984,0.8002,0.8002,0.7729,0.7139,0.7085,0.7187,0.73,0.6918,0.6907,0.7385,0.7015,0.7069,0.7599,0.7759,0.7984,0.8586,0.8804,0.885,0.8949,0.891,0.9113,0.9614,1.0218,1.083,1.1519,1.2135,1.2431,1.248,1.2529,1.2578,1.2832,1.2832,1.2735,1.2735,1.2676,1.252,1.2578,1.2578,1.2686,1.2686,1.2686,1.2637,1.2676,1.3074,1.3763,1.4733,1.5823,1.6918,1.7877,1.7679,1.7984,-0.4097,-0.4097,-0.4097,-0.4167,-0.4167,-0.4167,-0.4097,-0.4167,-0.4298,-0.4498,-0.4564,-0.4431,-0.4498,-0.4561,-0.4564,-0.4228,-0.3694,-0.3694,-0.3627,-0.3558,-0.3558,-0.3692,-0.3758,-0.322,-0.2952,-0.3082,-0.2455,-0.2037,-0.1759,-0.1562,-0.1354,-0.127,-0.0951,-0.0628,-0.0432,-0.0852,-0.0908,-0.0604,-0.094,-0.1041,-0.0693,0.0113,0.0729,0.0952,0.1738,0.2188,0.241,0.2354,0.2465,0.2691,0.2802,0.3355,0.4408,0.4959,0.5462,0.6142,0.6341,0.6544,0.682,0.7031,0.7241,0.7295,0.7348,0.7456,0.7521,0.7568,0.7456,0.7246,0.7348,0.7509,0.7354,0.6869,0.6701,0.7176,0.6912,0.6961,0.7717,0.7765,0.7765,0.8368,0.8527,0.858,0.8685,0.8685,0.9047,0.9917,1.032,1.088,1.166,1.2116,1.2283,1.2332,1.2382,1.2431,1.2588,1.2676,1.2676,1.2627,1.2578,1.2529,1.2529,1.2529,1.2578,1.2578,1.2529,1.2666,1.2764,1.3505,1.4018,1.4435,1.5454,1.5959,1.6693,1.6676,1.6915,-0.4367,-0.4364,-0.43,-0.4303,-0.4303,-0.4303,-0.4303,-0.4303,-0.4303,-0.4303,-0.4303,-0.4303,-0.4303,-0.4303,-0.4303,-0.4167,-0.3961,-0.3894,-0.3828,-0.3825,-0.3825,-0.3825,-0.3692,-0.3021,-0.2686,-0.2485,-0.1611,-0.1141,-0.1141,-0.1074,-0.0997,-0.085,-0.0653,-0.0453,-0.0317,-0.0628,-0.0625,-0.0435,-0.0728,-0.0833,-0.0471,0.0288,0.0793,0.1011,0.1403,0.1794,0.2074,0.2074,0.2186,0.2411,0.2689,0.3411,0.4574,0.5293,0.5791,0.6014,0.6009,0.6109,0.6436,0.6652,0.681,0.6977,0.6972,0.6972,0.7079,0.7187,0.7187,0.7187,0.7354,0.7461,0.73,0.6923,0.6815,0.7079,0.681,0.6858,0.7777,0.7605,0.7717,0.8209,0.8368,0.8474,0.8521,0.8521,0.9086,1.0159,1.0305,1.0779,1.166,1.2076,1.2076,1.2135,1.2175,1.2274,1.2382,1.2421,1.2529,1.248,1.2431,1.2431,1.248,1.2431,1.2431,1.2431,1.2569,1.2706,1.317,1.3967,1.434,1.4582,1.4903,1.5332,1.5664,1.5808,1.6077,-0.4431,-0.4561,-0.4367,-0.43,-0.4367,-0.4367,-0.4303,-0.4303,-0.43,-0.43,-0.4303,-0.4303,-0.4303,-0.4303,-0.4303,-0.4303,-0.4233,-0.4097,-0.3961,-0.3828,-0.3828,-0.3828,-0.3758,-0.3088,-0.2417,-0.1946,-0.0538,0.0202,0.0202,-0.0269,-0.0469,-0.0336,-0.0268,-0.02,-0.0268,0.0,0.0258,0.0257,-0.0125,-0.0061,0.0415,0.0589,0.0811,0.1074,0.1237,0.1459,0.1797,0.1797,0.1797,0.1908,0.2577,0.3685,0.4794,0.5462,0.5791,0.585,0.5795,0.59,0.6,0.6055,0.6273,0.6544,0.6647,0.6761,0.6923,0.6977,0.7031,0.6977,0.7085,0.7139,0.7079,0.7031,0.7031,0.7025,0.6588,0.6539,0.7031,0.7139,0.7408,0.8002,0.8268,0.8368,0.8421,0.8474,0.8935,0.9858,1.0261,1.0584,1.1469,1.1828,1.1927,1.1828,1.1877,1.2076,1.2126,1.2175,1.2274,1.2283,1.2224,1.2224,1.2274,1.2274,1.2382,1.2421,1.291,1.3045,1.3276,1.3941,1.4082,1.4316,1.4547,1.4777,1.4994,1.5209,1.5353,-0.4697,-0.4761,-0.4697,-0.4564,-0.4495,-0.4564,-0.45,-0.43,-0.4428,-0.4428,-0.43,-0.4303,-0.4303,-0.4303,-0.4303,-0.4303,-0.4303,-0.4233,-0.4167,-0.4097,-0.4167,-0.403,-0.3828,-0.3224,-0.2487,-0.1747,-0.1143,-0.0605,-0.0269,-0.0269,-0.0202,0.0202,0.0403,0.047,0.0403,0.0,-0.0133,0.0132,-0.0258,-0.0253,0.0125,0.0602,0.0939,0.116,0.1193,0.129,0.1459,0.1459,0.1515,0.1628,0.1908,0.274,0.4073,0.5238,0.5791,0.5791,0.5791,0.5791,0.5845,0.5845,0.595,0.6164,0.6218,0.6277,0.6445,0.65,0.6495,0.65,0.6652,0.6815,0.6864,0.6977,0.7085,0.7079,0.6588,0.648,0.6977,0.7246,0.7515,0.7901,0.8062,0.8109,0.8268,0.8421,0.8988,0.9762,1.0174,1.0651,1.1217,1.1528,1.1528,1.1427,1.1678,1.1828,1.1877,1.1977,1.2076,1.2184,1.2126,1.2126,1.2126,1.2224,1.2372,1.2666,1.3104,1.344,1.3621,1.381,1.3999,1.415,1.4466,1.4558,1.4605,1.472,1.4915,-0.4761,-0.4764,-0.4631,-0.4564,-0.4495,-0.4564,-0.4564,-0.4431,-0.4558,-0.4498,-0.4364,-0.4364,-0.4298,-0.4233,-0.4233,-0.4303,-0.4303,-0.4303,-0.4303,-0.4303,-0.4303,-0.4167,-0.3894,-0.3224,-0.2552,-0.1949,-0.1479,-0.1008,-0.0538,-0.0403,-0.0067,0.0337,0.0471,0.0471,0.0471,0.0067,-0.0067,0.0134,0.0,0.0065,0.0385,0.0746,0.0966,0.1062,0.104,0.108,0.1125,0.1178,0.129,0.1514,0.1906,0.274,0.3907,0.4963,0.5572,0.5631,0.5631,0.5631,0.5736,0.5732,0.5791,0.5896,0.595,0.5955,0.6014,0.6064,0.6064,0.6168,0.6273,0.649,0.6549,0.6652,0.6766,0.6761,0.6647,0.6696,0.7085,0.7246,0.7467,0.7681,0.7735,0.7842,0.8109,0.8474,0.8988,0.9614,1.0079,1.0506,1.0964,1.1226,1.1226,1.1226,1.1377,1.1528,1.1578,1.1728,1.1927,1.2036,1.2085,1.2085,1.2135,1.2332,1.2529,1.3007,1.3488,1.3716,1.3905,1.4035,1.4222,1.4326,1.4373,1.443,1.4512,1.4477,1.4582,-0.4691,-0.4764,-0.4431,-0.4367,-0.4364,-0.4367,-0.4431,-0.4561,-0.4625,-0.4498,-0.4364,-0.4431,-0.4359,-0.4161,-0.4097,-0.4167,-0.43,-0.4097,-0.4167,-0.4233,-0.4233,-0.4167,-0.3828,-0.3157,-0.2686,-0.2417,-0.1747,-0.1143,-0.0739,-0.0605,-0.0269,0.0202,0.0135,0.0,0.0,0.0202,0.0337,0.0472,0.0606,0.073,0.091,0.0902,0.0944,0.0895,0.0885,0.087,0.0909,0.0957,0.1066,0.1402,0.235,0.3294,0.407,0.4736,0.5179,0.5297,0.5301,0.5407,0.5513,0.5567,0.5622,0.5795,0.5791,0.5791,0.5845,0.5845,0.5905,0.595,0.6055,0.6059,0.6173,0.6228,0.6228,0.6282,0.6598,0.6869,0.7025,0.7085,0.7192,0.7413,0.7521,0.7574,0.7848,0.8262,0.889,0.9406,0.9917,1.0446,1.0761,1.0972,1.1074,1.1124,1.1124,1.1226,1.1326,1.1477,1.1728,1.2026,1.2076,1.2126,1.2224,1.2471,1.2813,1.3286,1.3678,1.3905,1.4093,1.4186,1.4222,1.428,1.4326,1.4373,1.443,1.443,1.4501,-0.4891,-0.4764,-0.4697,-0.4631,-0.4561,-0.4631,-0.4564,-0.4431,-0.4561,-0.4561,-0.4495,-0.4434,-0.4428,-0.4359,-0.3687,-0.3689,-0.403,-0.3623,-0.3758,-0.4233,-0.4097,-0.3897,-0.3629,-0.3293,-0.3025,-0.2889,-0.2351,-0.1814,-0.1344,-0.0873,-0.0403,0.0067,0.0,0.0,0.0,0.0202,0.0337,0.0472,0.054,0.0673,0.0799,0.0718,0.0706,0.0821,0.0665,0.0706,0.087,0.0909,0.0954,0.1234,0.2406,0.3186,0.3461,0.4346,0.5014,0.5128,0.5128,0.5187,0.5352,0.5352,0.5462,0.5622,0.5622,0.5732,0.5791,0.5791,0.585,0.59,0.595,0.595,0.5955,0.6009,0.6059,0.6059,0.6332,0.6554,0.6766,0.6815,0.6918,0.7139,0.7192,0.7246,0.7509,0.815,0.8778,0.9138,0.9769,1.0462,1.0616,1.0667,1.0726,1.0777,1.0828,1.0922,1.1074,1.1276,1.1578,1.1977,1.2126,1.2175,1.2363,1.2598,1.3035,1.3515,1.3726,1.3962,1.4057,1.415,1.4186,1.4233,1.428,1.4326,1.4384,1.4419,1.4628,-0.4957,-0.4694,-0.4631,-0.4564,-0.4495,-0.4567,-0.4498,-0.4431,-0.4561,-0.4561,-0.4495,-0.4428,-0.4361,-0.4225,-0.3485,-0.3556,-0.4097,-0.3153,-0.3286,-0.4167,-0.4097,-0.383,-0.3563,-0.3295,-0.3226,-0.3159,-0.2619,-0.2082,-0.1546,-0.1076,-0.0538,-0.0135,-0.0067,-0.0135,0.0,0.0067,0.0405,0.0607,0.0607,0.054,0.0673,0.0531,0.0784,0.1029,0.0923,0.0893,0.1043,0.0849,0.0785,0.1177,0.2183,0.2965,0.313,0.4181,0.4846,0.5014,0.5014,0.5069,0.5128,0.5128,0.5238,0.5348,0.5399,0.5458,0.5572,0.5572,0.5576,0.5736,0.5786,0.5845,0.5845,0.59,0.595,0.6,0.6005,0.6178,0.6436,0.6495,0.6657,0.6815,0.6918,0.6972,0.7079,0.8037,0.8567,0.8935,0.9629,1.0102,1.0419,1.0419,1.0419,1.0522,1.0573,1.0726,1.082,1.0972,1.1418,1.1819,1.2314,1.2363,1.2598,1.288,1.3228,1.3621,1.3821,1.3915,1.401,1.401,1.4057,1.4093,1.4186,1.428,1.4373,1.4605,1.4812,-0.4891,-0.4561,-0.4367,-0.4303,-0.43,-0.43,-0.4431,-0.4561,-0.4561,-0.4495,-0.4431,-0.4495,-0.4295,-0.3894,-0.3418,-0.3487,-0.3897,-0.2683,-0.3088,-0.3694,-0.3961,-0.3828,-0.3563,-0.3362,-0.3295,-0.3159,-0.2619,-0.2082,-0.1613,-0.1075,-0.0538,-0.0269,-0.027,-0.0337,-0.027,-0.0067,0.0337,0.0742,0.0607,0.054,0.0674,0.0671,0.0996,0.1558,0.1439,0.1257,0.1094,0.0788,0.0505,0.0729,0.2018,0.2685,0.3016,0.4018,0.4684,0.4846,0.4901,0.4904,0.4901,0.4956,0.4956,0.5069,0.5124,0.5128,0.5242,0.5297,0.5403,0.5732,0.5677,0.5841,0.59,0.5845,0.5791,0.5841,0.5845,0.5959,0.6123,0.6173,0.6337,0.6603,0.6652,0.6761,0.7133,0.7824,0.8567,0.856,0.9354,0.9999,1.0205,1.0257,1.0316,1.0368,1.0419,1.0478,1.0573,1.0718,1.1217,1.1719,1.2403,1.2745,1.3035,1.3324,1.3573,1.3763,1.3763,1.3821,1.3868,1.3915,1.3999,1.4186,1.4455,1.4408,1.4408,1.4777,1.504,-0.4827,-0.4364,-0.4364,-0.4303,-0.4303,-0.4303,-0.43,-0.4367,-0.4367,-0.4431,-0.4495,-0.4431,-0.4028,-0.3556,-0.3149,-0.2882,-0.2751,-0.2347,-0.2484,-0.3224,-0.3828,-0.3894,-0.3694,-0.3429,-0.3431,-0.3159,-0.2285,-0.1814,-0.1611,-0.1075,-0.0605,-0.0269,-0.0471,-0.0673,-0.027,0.0,0.0135,0.0405,0.0404,0.0741,0.1077,0.1076,0.1405,0.211,0.1771,0.1454,0.111,0.0682,0.0617,0.1121,0.1958,0.2681,0.3014,0.3904,0.4519,0.4684,0.4739,0.4794,0.4842,0.4901,0.4901,0.4956,0.4959,0.5014,0.5128,0.5183,0.5449,0.5887,0.6164,0.6218,0.6223,0.5736,0.5736,0.5841,0.5896,0.59,0.5905,0.6005,0.6114,0.6277,0.6337,0.6337,0.65,0.7605,0.8184,0.8343,0.9033,0.9888,1.0051,1.0051,1.0154,1.0213,1.0265,1.0316,1.0462,1.0659,1.125,1.1801,1.2491,1.3035,1.3372,1.3467,1.3563,1.3668,1.3668,1.3716,1.3763,1.4118,1.4294,1.4479,1.4686,1.4812,1.4949,1.5187,1.5322,-0.4761,-0.43,-0.4303,-0.4303,-0.4303,-0.4303,-0.4303,-0.4303,-0.4303,-0.4161,-0.3956,-0.3823,-0.3422,-0.2817,-0.2414,-0.2213,-0.2683,-0.2883,-0.2818,-0.2818,-0.322,-0.3286,-0.282,-0.2887,-0.2954,-0.3291,-0.2283,-0.1745,-0.1476,-0.0671,0.0067,0.0135,-0.0336,-0.0067,0.0269,0.0336,0.0538,0.1009,0.1143,0.1344,0.1612,0.1611,0.1929,0.2425,0.2144,0.1818,0.1937,0.1082,0.1011,0.1567,0.2237,0.2794,0.3074,0.3796,0.4298,0.4577,0.4519,0.4574,0.468,0.4736,0.4736,0.4794,0.4794,0.4901,0.5066,0.523,0.5614,0.6046,0.6372,0.6642,0.6707,0.649,0.6218,0.6327,0.6381,0.6332,0.6223,0.6114,0.6,0.6168,0.6381,0.6544,0.6966,0.7605,0.8184,0.856,0.9033,0.9836,0.9903,0.9947,0.9999,1.0051,1.0102,1.0205,1.0308,1.0694,1.1384,1.203,1.2677,1.3122,1.3525,1.3515,1.3515,1.3563,1.3621,1.3621,1.3752,1.4143,1.4468,1.4536,1.4731,1.5142,1.5412,1.5445,1.5591,-0.4625,-0.403,-0.4164,-0.4097,-0.3964,-0.3894,-0.3897,-0.3897,-0.3964,-0.3489,-0.3151,-0.3015,-0.2616,-0.2013,-0.1612,-0.2013,-0.2683,-0.3155,-0.2684,-0.2012,-0.2616,-0.2549,-0.2082,-0.208,-0.2414,-0.3218,-0.2012,-0.1409,-0.1006,-0.0134,0.0403,0.0605,0.0202,0.0336,0.0941,0.0941,0.0941,0.1545,0.1813,0.2013,0.2213,0.2213,0.2588,0.3,0.2659,0.2453,0.2439,0.1849,0.1411,0.2071,0.2627,0.3021,0.3466,0.3799,0.4135,0.4463,0.4294,0.4353,0.4463,0.4519,0.4574,0.4688,0.4688,0.4798,0.5066,0.5449,0.5887,0.6376,0.6756,0.7074,0.7187,0.6972,0.7025,0.7133,0.7139,0.7031,0.6701,0.6381,0.6273,0.6005,0.6223,0.6436,0.6972,0.7605,0.819,0.8778,0.9249,0.9621,0.974,0.9792,0.9836,0.9991,1.0095,1.0608,1.0812,1.0905,1.1592,1.2129,1.2822,1.317,1.3525,1.3515,1.3467,1.3515,1.3563,1.3563,1.3726,1.4078,1.4302,1.443,1.4858,1.5355,1.5623,1.57,1.5901,-0.3754,-0.2751,-0.3355,-0.3218,-0.2549,-0.2482,-0.2549,-0.2482,-0.2549,-0.2415,-0.2281,-0.228,-0.1879,-0.1411,-0.1812,-0.1812,-0.1678,-0.188,-0.1746,-0.141,-0.1946,-0.1946,-0.1679,-0.1544,-0.1812,-0.1677,-0.1074,-0.0671,-0.0671,-0.0134,0.047,0.047,0.0269,0.0538,0.1142,0.121,0.1344,0.1882,0.2149,0.2415,0.2618,0.2948,0.328,0.3774,0.3226,0.3017,0.2871,0.2312,0.2073,0.2523,0.2689,0.3079,0.3577,0.391,0.4079,0.419,0.419,0.419,0.4301,0.4408,0.4463,0.4519,0.4574,0.4904,0.5289,0.5668,0.6268,0.6972,0.7402,0.761,0.7771,0.745,0.7187,0.7187,0.7295,0.7295,0.7079,0.6972,0.6707,0.6223,0.6223,0.6436,0.7182,0.7771,0.8296,0.8778,0.9145,0.9458,0.9569,0.9621,0.9673,0.9873,1.019,1.0804,1.1418,1.1519,1.181,1.2197,1.2735,1.3074,1.3324,1.342,1.3467,1.3467,1.3467,1.3505,1.3736,1.4026,1.4251,1.4395,1.5006,1.5623,1.5668,1.5668,1.612,-0.3153,-0.2417,-0.2817,-0.2616,-0.2147,-0.2012,-0.2012,-0.208,-0.2012,-0.1812,-0.1544,-0.141,-0.1008,-0.0605,-0.0605,-0.0672,-0.0873,-0.1208,-0.1208,-0.1141,-0.1141,-0.1075,-0.0807,-0.074,-0.0538,-0.0336,0.0,-0.0067,-0.0269,0.047,0.0806,0.0806,0.0672,0.1008,0.1612,0.1613,0.1882,0.2285,0.2753,0.3019,0.3288,0.3623,0.3964,0.4002,0.3668,0.3328,0.3391,0.2821,0.2745,0.3154,0.322,0.3418,0.3635,0.3802,0.3913,0.4024,0.4021,0.4079,0.419,0.4301,0.4356,0.4519,0.4736,0.5011,0.5504,0.6055,0.6815,0.7574,0.7996,0.8096,0.815,0.7931,0.7937,0.7877,0.7937,0.783,0.7664,0.7605,0.7187,0.6707,0.7025,0.7343,0.7563,0.809,0.8461,0.8778,0.9093,0.9256,0.9406,0.9458,0.951,0.9925,1.0285,1.0897,1.1569,1.1918,1.2067,1.2412,1.2745,1.3035,1.3228,1.3324,1.3314,1.3314,1.3362,1.3362,1.3641,1.3884,1.4146,1.4406,1.4891,1.5322,1.5501,1.5724,1.6076,-0.2485,-0.2016,-0.2214,-0.2013,-0.1678,-0.1544,-0.1544,-0.1611,-0.1477,-0.1075,-0.0605,-0.0538,-0.0202,0.0202,0.0337,0.0135,-0.0336,-0.0939,-0.0806,-0.0538,-0.0336,-0.0067,0.027,0.0472,0.0539,0.0539,0.0674,0.0539,0.0336,0.1008,0.1344,0.1277,0.121,0.1613,0.215,0.1947,0.2487,0.3023,0.3625,0.3825,0.3961,0.4167,0.4303,0.43,0.3745,0.3632,0.3895,0.3463,0.3361,0.3589,0.3675,0.3652,0.3772,0.3649,0.3694,0.3855,0.3852,0.3965,0.419,0.4408,0.4625,0.4901,0.5226,0.55,0.5937,0.6701,0.7467,0.8062,0.8268,0.8321,0.8368,0.8474,0.8474,0.8521,0.8527,0.858,0.8196,0.8037,0.799,0.783,0.809,0.7984,0.7877,0.8156,0.8521,0.8679,0.8995,0.9152,0.9309,0.9309,0.9465,0.9917,1.0379,1.099,1.161,1.2264,1.2421,1.2618,1.2852,1.3094,1.318,1.3276,1.3228,1.319,1.3132,1.319,1.3471,1.3672,1.3852,1.4161,1.4662,1.4926,1.5006,1.5445,1.5888,-0.1612,-0.0808,-0.1411,-0.1141,-0.0404,-0.0269,-0.0269,-0.0269,-0.0135,0.0067,0.0135,0.0269,0.0337,0.0472,0.0472,0.0472,0.0337,0.0202,0.0135,0.0202,0.0337,0.0471,0.0674,0.0742,0.0876,0.101,0.1009,0.1008,0.0941,0.1344,0.1479,0.1344,0.1614,0.2017,0.2217,0.215,0.2619,0.3157,0.3558,0.3961,0.4167,0.43,0.4303,0.4295,0.4207,0.4093,0.4145,0.3869,0.388,0.3837,0.3823,0.3764,0.3751,0.3691,0.3593,0.3691,0.3744,0.3965,0.4353,0.468,0.5007,0.5336,0.5773,0.6317,0.6756,0.7246,0.7848,0.8121,0.8221,0.8275,0.8321,0.8374,0.8427,0.8474,0.8527,0.858,0.8461,0.8355,0.8315,0.8368,0.8421,0.8037,0.7771,0.8156,0.848,0.8633,0.8837,0.9047,0.9204,0.9309,0.9666,1.0226,1.0736,1.1301,1.181,1.2421,1.2618,1.2774,1.292,1.3104,1.3152,1.32,1.3162,1.3123,1.3017,1.3055,1.3258,1.346,1.3556,1.3821,1.4176,1.4373,1.4466,1.504,1.5668,-0.1211,-0.0674,-0.0875,-0.0673,-0.0202,0.0067,0.0202,0.0202,0.0337,0.0472,0.0607,0.0674,0.0741,0.0808,0.0741,0.0741,0.0808,0.0808,0.0741,0.0741,0.0741,0.0808,0.0809,0.0943,0.1009,0.1076,0.1076,0.1076,0.121,0.1277,0.1344,0.1277,0.1547,0.1748,0.2016,0.2084,0.2285,0.2688,0.3157,0.3763,0.4167,0.4303,0.4303,0.4303,0.4303,0.4265,0.4221,0.4143,0.4105,0.4004,0.3892,0.3884,0.3845,0.3823,0.3775,0.4074,0.4011,0.4089,0.4187,0.4739,0.512,0.534,0.5828,0.648,0.7192,0.7687,0.7901,0.8008,0.8014,0.8062,0.8162,0.8215,0.8268,0.8321,0.8421,0.8474,0.8521,0.8626,0.858,0.8692,0.8752,0.8315,0.8043,0.8315,0.8593,0.8692,0.8798,0.8903,0.9159,0.9413,0.9925,1.0635,1.115,1.171,1.2175,1.2676,1.2676,1.2822,1.2832,1.3017,1.3065,1.3123,1.3085,1.3036,1.2978,1.3017,1.3104,1.3248,1.3344,1.3525,1.3695,1.3894,1.4186,1.4834,1.5501,-0.1009,-0.0876,-0.0607,-0.0405,-0.027,0.0135,0.027,0.0337,0.0472,0.0674,0.0809,0.0876,0.0942,0.1076,0.0942,0.0943,0.1076,0.1076,0.1009,0.101,0.101,0.1009,0.0942,0.1009,0.1076,0.1076,0.1076,0.1076,0.1143,0.121,0.121,0.1143,0.1479,0.1614,0.1681,0.1883,0.2153,0.2624,0.3159,0.3696,0.4167,0.4167,0.4233,0.43,0.4303,0.4303,0.4287,0.4227,0.417,0.4132,0.4045,0.3982,0.3955,0.4082,0.417,0.4435,0.4609,0.4683,0.4755,0.4994,0.5152,0.5508,0.5937,0.6918,0.7467,0.7794,0.7901,0.7901,0.7901,0.7901,0.7955,0.8062,0.8062,0.8168,0.8215,0.8321,0.8374,0.8527,0.8633,0.8685,0.8745,0.8804,0.8586,0.8699,0.8752,0.8752,0.8804,0.8804,0.9061,0.9361,0.9969,1.0685,1.1259,1.1769,1.2332,1.2686,1.2735,1.2783,1.2832,1.2881,1.2978,1.2978,1.2978,1.2929,1.2939,1.2978,1.3017,1.3104,1.319,1.3372,1.3563,1.3705,1.4035,1.4686,1.5412,-0.1076,-0.1076,-0.0674,-0.0405,-0.027,0.0135,0.027,0.0337,0.0607,0.0741,0.0876,0.0942,0.1076,0.1076,0.1076,0.1076,0.1076,0.1076,0.1076,0.1076,0.1076,0.1076,0.1076,0.1076,0.1076,0.1076,0.1076,0.1076,0.1076,0.1143,0.1143,0.1143,0.1412,0.1547,0.1681,0.1816,0.2285,0.2757,0.3293,0.3694,0.3961,0.403,0.3961,0.4167,0.4233,0.4303,0.4303,0.4276,0.4328,0.4328,0.4281,0.4291,0.4411,0.4553,0.4732,0.5005,0.5441,0.5522,0.5545,0.5686,0.6087,0.6574,0.7019,0.7351,0.7658,0.7842,0.7919,0.7991,0.8003,0.8009,0.7973,0.7913,0.8021,0.8069,0.817,0.8221,0.8321,0.8474,0.8573,0.8633,0.8685,0.8752,0.8804,0.8804,0.8804,0.8804,0.8804,0.8804,0.8962,0.9316,0.9865,1.0525,1.1108,1.1719,1.2332,1.2529,1.2578,1.2676,1.2686,1.2783,1.2881,1.2881,1.2871,1.2929,1.2939,1.2929,1.292,1.3017,1.3113,1.3286,1.3467,1.361,1.4212,1.4983,1.5668,-0.1076,-0.1076,-0.0808,-0.0674,-0.054,-0.0202,0.0067,0.0337,0.054,0.0741,0.1009,0.1076,0.1076,0.1076,0.1076,0.1076,0.1076,0.1076,0.1076,0.1076,0.1076,0.1076,0.1076,0.1076,0.1076,0.1076,0.1076,0.1076,0.1076,0.1076,0.1076,0.121,0.1412,0.1547,0.1681,0.1883,0.2353,0.2619,0.3023,0.3291,0.3493,0.356,0.3493,0.3563,0.3894,0.3961,0.403,0.4233,0.4431,0.4628,0.4691,0.4851,0.5058,0.5262,0.5446,0.56,0.61,0.6233,0.6328,0.6425,0.6576,0.6789,0.7245,0.7676,0.7694,0.8011,0.8205,0.8222,0.8232,0.8303,0.8369,0.8249,0.8153,0.816,0.816,0.8201,0.835,0.8543,0.8592,0.8678,0.8738,0.8804,0.8804,0.8804,0.8804,0.8804,0.8804,0.8804,0.8956,0.9211,0.9814,1.0269,1.0846,1.1519,1.2126,1.2274,1.2431,1.2529,1.2588,1.2686,1.2735,1.2783,1.2774,1.2832,1.2929,1.2929,1.2929,1.2988,1.3075,1.3296,1.3478,1.3621,1.4351,1.5299,1.5876,-0.1076,-0.1076,-0.0942,-0.0809,-0.0674,-0.0337,0.0,0.027,0.0472,0.0674,0.1009,0.1076,0.1076,0.1076,0.1076,0.1076,0.1076,0.1076,0.1076,0.1076,0.1076,0.1076,0.1076,0.1076,0.1076,0.1076,0.1076,0.1076,0.1076,0.1076,0.1076,0.121,0.1344,0.1479,0.1614,0.2017,0.2285,0.2417,0.2619,0.2889,0.3159,0.3092,0.3159,0.3226,0.3491,0.3627,0.3627,0.383,0.4228,0.4625,0.4957,0.5289,0.5632,0.602,0.6137,0.6358,0.6572,0.6727,0.6894,0.6843,0.6926,0.721,0.7516,0.764,0.7795,0.8269,0.8486,0.8282,0.8475,0.8687,0.8693,0.8495,0.8405,0.8438,0.844,0.849,0.8596,0.8769,0.8757,0.8795,0.8857,0.8931,0.8804,0.8804,0.8804,0.8804,0.8804,0.8804,0.891,0.9211,0.9666,1.0123,1.0533,1.12,1.1819,1.1868,1.1977,1.2382,1.248,1.2529,1.2578,1.2627,1.2676,1.2774,1.2832,1.2929,1.3065,1.3258,1.3306,1.3354,1.3716,1.4316,1.4766,1.5668,1.602,-0.1076,-0.1076,-0.1076,-0.0875,-0.0472,-0.0135,0.0067,0.027,0.0472,0.0674,0.0876,0.1009,0.1076,0.1076,0.1076,0.1076,0.1076,0.1076,0.1076,0.1076,0.1076,0.1076,0.1076,0.1076,0.1076,0.1076,0.1076,0.1076,0.1076,0.1076,0.1076,0.1143,0.1277,0.1344,0.1412,0.2014,0.235,0.2417,0.2552,0.2822,0.2958,0.2822,0.2891,0.3025,0.3291,0.3426,0.3493,0.3761,0.4292,0.4891,0.5024,0.5422,0.6001,0.6449,0.6685,0.675,0.7149,0.7404,0.7469,0.7064,0.7189,0.7552,0.778,0.787,0.8153,0.8433,0.861,0.8342,0.8574,0.8765,0.8723,0.8745,0.8739,0.8703,0.8765,0.8794,0.889,0.8998,0.8983,0.9046,0.9075,0.9132,0.8931,0.8804,0.8804,0.8804,0.8804,0.8804,0.8857,0.9061,0.9465,0.9821,1.0226,1.0846,1.1368,1.1368,1.1578,1.2026,1.2323,1.2382,1.248,1.2578,1.2627,1.2725,1.291,1.3152,1.3382,1.361,1.3763,1.4046,1.4777,1.5311,1.568,1.5901,1.6207,-0.1076,-0.1076,-0.0942,-0.0741,-0.0472,-0.0405,-0.0202,0.0135,0.0472,0.0808,0.101,0.1076,0.1076,0.1076,0.1076,0.1076,0.1076,0.1076,0.1076,0.1076,0.1076,0.1076,0.1076,0.1076,0.1076,0.1076,0.1076,0.1076,0.1076,0.1076,0.1076,0.1143,0.1143,0.121,0.1412,0.1814,0.2017,0.195,0.2151,0.2421,0.2488,0.2488,0.2488,0.2691,0.3291,0.3558,0.3625,0.4025,0.4691,0.5352,0.5488,0.5954,0.6544,0.7068,0.7195,0.7199,0.7456,0.7461,0.7517,0.7369,0.7458,0.7744,0.7907,0.796,0.8064,0.8635,0.8646,0.8623,0.8895,0.9086,0.922,0.9089,0.9011,0.8945,0.8926,0.8961,0.9022,0.9144,0.9208,0.9295,0.9412,0.9165,0.8951,0.8824,0.8804,0.8804,0.8804,0.8804,0.8804,0.891,0.9106,0.9517,0.9925,1.0498,1.0913,1.1167,1.1528,1.2026,1.2224,1.2234,1.2323,1.2471,1.2666,1.2774,1.3104,1.343,1.3752,1.4129,1.4501,1.4926,1.5322,1.5591,1.568,1.5944,1.6306,-0.1076,-0.1076,-0.0876,-0.0674,-0.054,-0.0472,-0.027,0.0067,0.0472,0.0741,0.0875,0.1008,0.1076,0.1076,0.1076,0.1076,0.1076,0.1076,0.1076,0.1076,0.1076,0.1076,0.1076,0.1076,0.1076,0.1076,0.1076,0.1076,0.1076,0.1076,0.1076,0.1076,0.1076,0.1143,0.1277,0.1479,0.1681,0.1748,0.195,0.2354,0.2554,0.2686,0.2753,0.3157,0.3556,0.3956,0.4156,0.4622,0.5352,0.5815,0.621,0.6548,0.7003,0.733,0.7461,0.7526,0.7526,0.7526,0.7517,0.7512,0.7603,0.7941,0.7982,0.7982,0.8112,0.8575,0.8656,0.8801,0.9163,0.9344,0.9424,0.922,0.919,0.9124,0.9199,0.9246,0.9361,0.95,0.9549,0.9689,0.9608,0.9303,0.8951,0.8884,0.8804,0.8804,0.8804,0.8804,0.8804,0.891,0.9008,0.9361,0.9769,1.0336,1.0804,1.1217,1.1578,1.2026,1.2126,1.2184,1.2283,1.2471,1.2666,1.291,1.3286,1.3705,1.4222,1.464,1.5017,1.5244,1.5457,1.5635,1.568,1.6032,1.6436,-0.1076,-0.1076,-0.0876,-0.0674,-0.0472,-0.0337,-0.0202,0.0067,0.0337,0.0539,0.054,0.0942,0.1076,0.1076,0.1076,0.1076,0.1076,0.1076,0.1076,0.1076,0.1076,0.1076,0.1076,0.1076,0.1076,0.1076,0.1076,0.1076,0.1076,0.1076,0.1076,0.1076,0.1076,0.1143,0.121,0.1412,0.1613,0.1814,0.2017,0.2554,0.2952,0.3151,0.3418,0.3818,0.4217,0.442,0.4553,0.4752,0.5153,0.5547,0.5939,0.647,0.6933,0.7396,0.7461,0.7526,0.7526,0.7526,0.7526,0.7526,0.7591,0.7852,0.7917,0.7982,0.8242,0.863,0.8765,0.8899,0.9157,0.935,0.9442,0.9436,0.9424,0.947,0.9603,0.9693,0.9819,0.997,0.9998,1.0017,0.9953,0.9649,0.9147,0.893,0.8784,0.8745,0.8745,0.8745,0.8798,0.9008,0.9159,0.9458,0.9873,1.0233,1.0702,1.1217,1.1578,1.2026,1.2076,1.2135,1.2283,1.2471,1.2803,1.3142,1.3515,1.3988,1.4731,1.5232,1.5558,1.5736,1.5647,1.5856,1.5944,1.6238,1.6637,-0.1076,-0.1076,-0.0741,-0.054,-0.0472,-0.0202,0.0,0.0202,0.0337,0.0472,0.0741,0.0808,0.101,0.1076,0.1076,0.1076,0.1076,0.1076,0.1076,0.1076,0.1076,0.1076,0.1076,0.1076,0.1076,0.1076,0.1076,0.1076,0.1076,0.1076,0.1076,0.1076,0.121,0.1143,0.1344,0.1612,0.1947,0.2216,0.242,0.2954,0.3487,0.3751,0.4018,0.4281,0.4815,0.4951,0.508,0.5415,0.5818,0.6083,0.6342,0.6736,0.6876,0.7204,0.7335,0.7526,0.7526,0.7526,0.7526,0.7526,0.7591,0.7722,0.7722,0.7982,0.8306,0.87,0.8894,0.9022,0.9157,0.9414,0.9478,0.9478,0.9478,0.9542,0.9606,0.9734,0.9862,0.9964,1.0008,1.0019,0.9965,0.9708,0.9225,0.8909,0.8767,0.8725,0.8685,0.8685,0.8844,0.9054,0.9309,0.9614,1.0131,1.0592,1.0905,1.1377,1.1678,1.1927,1.2036,1.2175,1.2323,1.2559,1.2939,1.3457,1.4025,1.472,1.5424,1.5748,1.5792,1.5792,1.5792,1.6001,1.625,1.6509,1.6765,-0.1076,-0.1009,-0.0674,-0.0405,-0.027,-0.0067,0.0135,0.027,0.0337,0.054,0.0674,0.0876,0.101,0.1076,0.1076,0.1076,0.1076,0.1076,0.1076,0.1076,0.1076,0.1076,0.1076,0.1076,0.1076,0.1076,0.1143,0.1076,0.1142,0.1143,0.1076,0.1143,0.1277,0.1478,0.1678,0.2213,0.2748,0.3017,0.322,0.3553,0.3885,0.4284,0.4417,0.4749,0.5348,0.5547,0.5745,0.6148,0.6284,0.642,0.6609,0.6741,0.6876,0.7073,0.7265,0.7461,0.7526,0.7526,0.7526,0.7526,0.7591,0.7722,0.7787,0.8182,0.8441,0.8765,0.8894,0.9017,0.928,0.9478,0.9478,0.9478,0.9478,0.9478,0.9542,0.9612,0.9676,0.9804,0.9837,0.9926,0.9799,0.9586,0.9285,0.8972,0.875,0.8712,0.8678,0.8685,0.8896,0.9256,0.951,0.9762,1.0387,1.0956,1.1267,1.1477,1.1778,1.1977,1.2026,1.2175,1.2372,1.2706,1.318,1.3873,1.4709,1.5277,1.5703,1.5748,1.5792,1.5792,1.5836,1.6001,1.625,1.6552,1.6863,-0.1076,-0.1008,-0.0674,-0.027,0.0,0.0,0.0135,0.027,0.0472,0.054,0.0607,0.0942,0.1076,0.1076,0.1076,0.1076,0.1076,0.1076,0.1076,0.1076,0.1076,0.1076,0.1076,0.1076,0.1209,0.1209,0.1276,0.1478,0.1411,0.1545,0.1611,0.1344,0.1879,0.2214,0.2281,0.2948,0.3482,0.3818,0.3954,0.4154,0.4619,0.4948,0.5147,0.562,0.5822,0.5951,0.6083,0.6214,0.6284,0.6412,0.6544,0.6675,0.6806,0.7007,0.7265,0.7396,0.7461,0.7526,0.7526,0.7526,0.7657,0.7922,0.8252,0.8511,0.87,0.8899,0.9022,0.9151,0.9414,0.9478,0.9478,0.9478,0.9478,0.9478,0.9542,0.9542,0.9606,0.9676,0.9728,0.9755,0.9725,0.9463,0.9329,0.9072,0.8877,0.8743,0.8708,0.8712,0.9047,0.9413,0.9718,1.002,1.0592,1.1167,1.1427,1.1678,1.1927,1.2076,1.2126,1.2363,1.2696,1.3035,1.3372,1.4247,1.513,1.5424,1.5748,1.5792,1.5792,1.5792,1.5836,1.5957,1.6207,1.6565,1.6837,-0.1009,-0.0809,-0.0472,-0.0202,0.0,0.0,0.0135,0.027,0.0472,0.0607,0.0742,0.0876,0.0942,0.1076,0.1076,0.1076,0.1076,0.1076,0.1076,0.1076,0.1076,0.1209,0.1142,0.1209,0.141,0.1745,0.1946,0.208,0.2348,0.2549,0.2614,0.2683,0.2948,0.2948,0.3017,0.3685,0.4217,0.442,0.4688,0.4824,0.509,0.5352,0.555,0.5752,0.5818,0.5888,0.602,0.6148,0.6148,0.628,0.6416,0.6544,0.6671,0.7003,0.7199,0.7265,0.7396,0.7461,0.7526,0.7526,0.7722,0.7917,0.8182,0.8506,0.8829,0.9092,0.9291,0.935,0.9414,0.9478,0.9478,0.9478,0.9478,0.9478,0.9478,0.9542,0.9606,0.9606,0.9612,0.9576,0.9527,0.9519,0.9395,0.926,0.901,0.8843,0.879,0.889,0.9309,0.9718,0.9991,1.0293,1.0804,1.1326,1.1528,1.1678,1.1877,1.2116,1.2215,1.2598,1.2977,1.3505,1.3988,1.4766,1.5457,1.5603,1.5703,1.5792,1.5792,1.5792,1.5836,1.5913,1.6132,1.6436,1.6697,-0.1009,-0.0809,-0.0472,-0.0202,0.0,0.0,0.0135,0.027,0.0472,0.0607,0.0809,0.0876,0.101,0.1076,0.1076,0.1076,0.1076,0.1076,0.1076,0.1076,0.1209,0.1344,0.1411,0.1544,0.2079,0.2414,0.2547,0.2815,0.3284,0.3151,0.3151,0.3284,0.3418,0.3751,0.382,0.4353,0.4755,0.4824,0.5226,0.5359,0.5428,0.5491,0.5488,0.5557,0.5624,0.569,0.5822,0.5951,0.6083,0.6214,0.635,0.6548,0.6745,0.6942,0.7138,0.733,0.7461,0.7526,0.7526,0.7591,0.7717,0.7982,0.8047,0.8371,0.9022,0.9285,0.9291,0.935,0.9414,0.9478,0.9478,0.9478,0.9478,0.9478,0.9478,0.9542,0.9542,0.9542,0.9542,0.9536,0.957,0.973,0.9668,0.9669,0.9479,0.9479,0.933,0.9221,0.9665,0.9932,1.0198,1.0514,1.0922,1.1124,1.1175,1.1427,1.1678,1.1968,1.2314,1.2793,1.3266,1.3941,1.4605,1.5017,1.5289,1.5424,1.5525,1.5659,1.5748,1.5792,1.5792,1.5836,1.61,1.6349,1.6642,-0.0942,-0.0674,-0.0405,-0.0135,0.0,0.0,0.0135,0.027,0.0472,0.0607,0.0742,0.0942,0.1076,0.1076,0.1076,0.1076,0.1076,0.1076,0.1076,0.1276,0.1344,0.1745,0.2079,0.228,0.2748,0.3215,0.3485,0.3551,0.3751,0.3751,0.3885,0.3685,0.402,0.4489,0.4688,0.502,0.5355,0.5289,0.5425,0.5428,0.5428,0.5428,0.5428,0.5428,0.5428,0.5491,0.562,0.5818,0.6017,0.6152,0.635,0.6482,0.6679,0.6881,0.7077,0.7269,0.7461,0.7461,0.7526,0.7526,0.7852,0.8117,0.8052,0.8376,0.9022,0.9285,0.9221,0.9285,0.9414,0.9478,0.9478,0.9478,0.9478,0.9478,0.9478,0.9478,0.9478,0.9478,0.9478,0.9478,0.9606,0.9792,0.9995,1.0008,1.0053,1.0054,1.0037,0.9933,0.9948,1.0081,1.03,1.0462,1.0769,1.0871,1.0922,1.1124,1.1377,1.2008,1.2442,1.2977,1.3505,1.414,1.4523,1.4708,1.4937,1.5153,1.5334,1.5468,1.5614,1.5703,1.5913,1.6001,1.6175,1.6466,1.6685,-0.0674,-0.0405,-0.0135,0.0,0.0,0.0,0.0135,0.027,0.0405,0.054,0.0607,0.0809,0.0942,0.1076,0.1076,0.1142,0.1209,0.1209,0.1544,0.1879,0.1879,0.2347,0.2882,0.3149,0.3482,0.3951,0.4489,0.4891,0.4556,0.4818,0.502,0.4891,0.5223,0.5425,0.5226,0.5491,0.5554,0.5554,0.5491,0.5495,0.5491,0.5491,0.5428,0.5428,0.5428,0.5491,0.562,0.5822,0.602,0.6152,0.635,0.6486,0.6618,0.6815,0.7012,0.7204,0.7391,0.7456,0.7526,0.7526,0.7852,0.8052,0.8052,0.8117,0.8705,0.8958,0.9022,0.9151,0.9215,0.9414,0.9414,0.9478,0.9478,0.9414,0.9414,0.9414,0.9414,0.9478,0.9484,0.9548,0.9612,0.9983,1.0338,1.0369,1.0407,1.0458,1.0494,1.0385,1.0316,1.0335,1.0352,1.0514,1.0667,1.0777,1.0879,1.082,1.1116,1.185,1.2628,1.3256,1.3789,1.4186,1.4523,1.4616,1.4708,1.4891,1.5062,1.5244,1.5424,1.5558,1.602,1.6238,1.6367,1.6637,1.6909]}]]